[[{"header":{"parameterUnit":"m.s-1","parameterCategory":1,"la1":30.6,"la2":28.766,"lo1":-90.7593,"lo2":-88.6598,"dy":0.0162,"dx":0.0183,"nx":116,"ny":114,"refTime":"2023-04-22T18:00:00:Z","depth":0,"parameterNumber":2,"parameterNumberName":"U-component_of_WINDS"},"data":[0.0,0.0,0.0,0.0,0.0,0.0,0.0,0.0,0.0,0.0,0.0,0.0,0.0,0.0,0.0,0.0,0.0,0.0,0.0,0.0,0.0,0.0,0.0,0.0,0.0,0.0,0.0,0.0,0.0,0.0,0.0,0.0,0.0,0.0,0.0,0.0,0.0,0.0,0.0,0.0,0.0,0.0,0.0,0.0,0.0,0.0,0.0,0.0,0.0,0.0,0.0,0.0,0.0,0.0,0.0,0.0,0.0,0.0,0.0,0.0,0.0,0.0,0.0,0.0,0.0,0.0,0.0,0.0,0.0,0.0,0.0,0.0,0.0,0.0,0.0,0.0,0.0,0.0,0.0,0.0,0.0,0.0,0.0,0.0,0.0,0.0,0.0,0.0,0.0,0.0,0.0,0.0,0.0,0.0,0.0,0.0,0.0,0.0,0.0,0.0,0.0,0.0,0.0,0.0,0.0,0.0,0.0,0.0,0.0,0.0,0.0,0.0,0.0,0.0,0.0,0.0,0.0,0.0,0.0,0.0,0.0,0.0,0.0,0.0,0.0,0.0,0.0,0.0,0.0,0.0,0.0,0.0,0.0,0.0,0.0,0.0,0.0,0.0,0.0,0.0,0.0,0.0,0.0,0.0,0.0,0.0,0.0,0.0,0.0,0.0,0.0,0.0,0.0,0.0,0.0,0.0,0.0,0.0,0.0,0.0,0.0,0.0,0.0,0.0,0.0,0.0,0.0,0.0,0.0,0.0,0.0,0.0,0.0,0.0,0.0,0.0,0.0,0.0,0.0,0.0,0.0,0.0,0.0,0.0,0.0,0.0,0.0,0.0,0.0,0.0,0.0,0.0,0.0,0.0,0.0,0.0,0.0,0.0,0.0,0.0,0.0,0.0,0.0,0.0,0.0,0.0,0.0,0.0,0.0,0.0,0.0,0.0,0.0,0.0,0.0,0.0,0.0,0.0,0.0,0.0,0.0,0.0,0.0,0.0,0.0,0.0,0.0,0.0,0.0,0.0,0.0,0.0,0.0,0.0,0.0,0.0,0.0,0.0,0.0,0.0,0.0,0.0,0.0,0.0,0.0,0.0,0.0,0.0,0.0,0.0,0.0,0.0,0.0,0.0,0.0,0.0,0.0,0.0,0.0,0.0,0.0,0.0,0.0,0.0,0.0,0.0,0.0,0.0,0.0,0.0,0.0,0.0,0.0,0.0,0.0,0.0,0.0,0.0,0.0,0.0,0.0,0.0,0.0,0.0,0.0,0.0,0.0,0.0,0.0,0.0,0.0,0.0,0.0,0.0,0.0,0.0,0.0,0.0,0.0,0.0,0.0,0.0,0.0,0.0,0.0,0.0,0.0,0.0,0.0,0.0,0.0,0.0,0.0,0.0,0.0,0.0,0.0,0.0,0.0,0.0,0.0,0.0,0.0,0.0,0.0,0.0,0.0,0.0,0.0,0.0,0.0,0.0,0.0,0.0,0.0,0.0,0.0,0.0,0.0,0.0,0.0,0.0,0.0,0.0,0.0,0.0,0.0,0.0,0.0,0.0,0.0,0.0,0.0,0.0,0.0,0.0,0.0,0.0,0.0,0.0,0.0,0.0,0.0,0.0,0.0,0.0,0.0,0.0,0.0,0.0,0.0,0.0,0.0,0.0,0.0,0.0,0.0,0.0,0.0,0.0,0.0,0.0,0.0,0.0,0.0,0.0,0.0,0.0,0.0,0.0,0.0,0.0,0.0,0.0,0.0,0.0,0.0,0.0,0.0,0.0,0.0,0.0,0.0,0.0,0.0,0.0,0.0,0.0,0.0,0.0,0.0,0.0,0.0,0.0,0.0,0.0,0.0,0.0,0.0,0.0,0.0,0.0,0.0,0.0,0.0,0.0,0.0,0.0,0.0,0.0,0.0,0.0,0.0,0.0,0.0,0.0,0.0,0.0,0.0,0.0,0.0,0.0,0.0,0.0,0.0,0.0,0.0,0.0,0.0,0.0,0.0,0.0,0.0,0.0,0.0,0.0,0.0,0.0,0.0,0.0,0.0,0.0,0.0,0.0,0.0,0.0,0.0,0.0,0.0,0.0,0.0,0.0,0.0,0.0,0.0,0.0,0.0,0.0,0.0,0.0,0.0,0.0,0.0,0.0,0.0,0.0,0.0,0.0,0.0,0.0,0.0,0.0,0.0,0.0,0.0,0.0,0.0,0.0,0.0,0.0,0.0,0.0,0.0,0.0,0.0,0.0,0.0,0.0,0.0,0.0,0.0,0.0,0.0,0.0,0.0,0.0,0.0,0.0,0.0,0.0,0.0,0.0,0.0,0.0,0.0,0.0,0.0,0.0,0.0,0.0,0.0,0.0,0.0,0.0,0.0,0.0,0.0,0.0,0.0,0.0,0.0,0.0,0.0,0.0,0.0,0.0,0.0,0.0,0.0,0.0,0.0,0.0,0.0,0.0,0.0,0.0,0.0,0.0,0.0,0.0,0.0,0.0,0.0,0.0,0.0,0.0,0.0,0.0,0.0,0.0,0.0,0.0,0.0,0.0,0.0,0.0,0.0,0.0,0.0,0.0,0.0,0.0,0.0,0.0,0.0,0.0,0.0,0.0,0.0,0.0,0.0,0.0,0.0,0.0,0.0,0.0,0.0,0.0,0.0,0.0,0.0,0.0,0.0,0.0,0.0,0.0,0.0,0.0,0.0,0.0,0.0,0.0,0.0,0.0,0.0,0.0,0.0,0.0,0.0,0.0,0.0,0.0,0.0,0.0,0.0,0.0,0.0,0.0,0.0,0.0,0.0,0.0,0.0,0.0,0.0,0.0,0.0,0.0,0.0,0.0,0.0,0.0,0.0,0.0,0.0,0.0,0.0,0.0,0.0,0.0,0.0,0.0,0.0,0.0,0.0,0.0,0.0,0.0,0.0,0.0,0.0,0.0,0.0,0.0,0.0,0.0,0.0,0.0,0.0,0.0,0.0,0.0,0.0,0.0,0.0,0.0,0.0,0.0,0.0,0.0,0.0,0.0,0.0,0.0,0.0,0.0,0.0,0.0,0.0,0.0,0.0,0.0,0.0,0.0,0.0,0.0,0.0,0.0,0.0,0.0,0.0,0.0,0.0,0.0,0.0,0.0,0.0,0.0,0.0,0.0,0.0,0.0,0.0,0.0,0.0,0.0,0.0,0.0,0.0,0.0,0.0,0.0,0.0,0.0,0.0,0.0,0.0,0.0,0.0,0.0,0.0,0.0,0.0,0.0,0.0,0.0,0.0,0.0,0.0,0.0,0.0,0.0,0.0,0.0,0.0,0.0,0.0,0.0,0.0,0.0,0.0,0.0,0.0,0.0,0.0,0.0,0.0,0.0,0.0,0.0,0.0,0.0,0.0,0.0,0.0,0.0,0.0,0.0,0.0,0.0,0.0,0.0,0.0,0.0,0.0,0.0,0.0,0.0,0.0,0.0,0.0,0.0,0.0,0.0,0.0,0.0,0.0,0.0,0.0,0.0,0.0,0.0,0.0,0.0,0.0,0.0,0.0,0.0,0.0,0.0,0.0,0.0,0.0,0.0,0.0,0.0,0.0,0.0,0.0,0.0,0.0,0.0,0.0,0.0,0.0,0.0,0.0,0.0,0.0,0.0,0.0,0.0,0.0,0.0,0.0,0.0,0.0,0.0,0.0,0.0,0.0,0.0,0.0,0.0,0.0,0.0,0.0,0.0,0.0,0.0,0.0,0.0,0.0,0.0,0.0,0.0,0.0,0.0,0.0,0.0,0.0,0.0,0.0,0.0,0.0,0.0,0.0,0.0,0.0,0.0,0.0,0.0,0.0,0.0,0.0,0.0,0.0,0.0,0.0,0.0,0.0,0.0,0.0,0.0,0.0,0.0,0.0,0.0,0.0,0.0,0.0,0.0,0.0,0.0,0.0,0.0,0.0,0.0,0.0,0.0,0.0,0.0,0.0,0.0,0.0,0.0,0.0,0.0,0.0,0.0,0.0,0.0,0.0,0.0,0.0,0.0,0.0,0.0,0.0,0.0,0.0,0.0,0.0,0.0,0.0,0.0,0.0,0.0,0.0,0.0,0.0,0.0,0.0,0.0,0.0,0.0,0.0,0.0,0.0,0.0,0.0,0.0,0.0,0.0,0.0,0.0,0.0,0.0,0.0,0.0,0.0,0.0,0.0,0.0,0.0,0.0,0.0,0.0,0.0,0.0,0.0,0.0,0.0,0.0,0.0,0.0,0.0,0.0,0.0,0.0,0.0,0.0,0.0,0.0,0.0,0.0,0.0,0.0,0.0,0.0,0.0,0.0,0.0,0.0,0.0,0.0,0.0,0.0,0.0,0.0,0.0,0.0,0.0,0.0,0.0,0.0,0.0,0.0,0.0,0.0,0.0,0.0,0.0,0.0,0.0,0.0,0.0,0.0,0.0,0.0,0.0,0.0,0.0,0.0,0.0,0.0,0.0,0.0,0.0,0.0,0.0,0.0,0.0,0.0,0.0,0.0,0.0,0.0,0.0,0.0,0.0,0.0,0.0,0.0,0.0,0.0,0.0,0.0,0.0,0.0,0.0,0.0,0.0,0.0,0.0,0.0,0.0,0.0,0.0,0.0,0.0,0.0,0.0,0.0,0.0,0.0,0.0,0.0,0.0,0.0,0.0,0.0,0.0,0.0,0.0,0.0,0.0,0.0,0.0,0.0,0.0,0.0,0.0,0.0,0.0,0.0,0.0,0.0,0.0,0.0,0.0,0.0,0.0,0.0,0.0,0.0,0.0,0.0,0.0,0.0,0.0,0.0,0.0,0.0,0.0,0.0,0.0,0.0,0.0,0.0,0.0,0.0,0.0,0.0,0.0,0.0,0.0,0.0,0.0,0.0,0.0,0.0,0.0,0.0,0.0,0.0,0.0,0.0,0.0,0.0,0.0,0.0,0.0,0.0,0.0,0.0,0.0,0.0,0.0,0.0,0.0,0.0,0.0,0.0,0.0,0.0,0.0,0.0,0.0,0.0,0.0,0.0,0.0,0.0,0.0,0.0,0.0,0.0,0.0,0.0,0.0,0.0,0.0,0.0,0.0,0.0,0.0,0.0,0.0,0.0,0.0,0.0,0.0,0.0,0.0,0.0,0.0,0.0,0.0,0.0,0.0,0.0,0.0,0.0,0.0,0.0,0.0,0.0,0.0,0.0,0.0,0.0,0.0,0.0,0.0,0.0,0.0,0.0,0.0,0.0,0.0,0.0,0.0,0.0,0.0,0.0,0.0,0.0,0.0,0.0,0.0,0.0,0.0,0.0,0.0,0.0,0.0,0.0,0.0,0.0,0.0,0.0,0.0,0.0,0.0,0.0,0.0,0.0,0.0,0.0,0.0,0.0,0.0,0.0,0.0,0.0,0.0,0.0,0.0,0.0,0.0,0.0,0.0,0.0,0.0,0.0,0.0,0.0,0.0,0.0,0.0,0.0,0.0,0.0,0.0,0.0,0.0,0.0,0.0,0.0,0.0,0.0,0.0,0.0,0.0,0.0,0.0,0.0,0.0,0.0,0.0,0.0,0.0,0.0,0.0,0.0,0.0,0.0,0.0,0.0,0.0,0.0,0.0,0.0,0.0,0.0,0.0,0.0,0.0,0.0,0.0,0.0,0.0,0.0,0.0,0.0,0.0,0.0,0.0,0.0,0.0,0.0,0.0,0.0,0.0,0.0,0.0,0.0,0.0,0.0,0.0,0.0,0.0,0.0,0.0,0.0,0.0,0.0,0.0,0.0,0.0,0.0,0.0,0.0,0.0,0.0,0.0,0.0,0.0,0.0,0.0,0.0,0.0,0.0,0.0,0.0,0.0,0.0,0.0,0.0,0.0,0.0,0.0,0.0,0.0,0.0,0.0,0.0,0.0,0.0,0.0,0.0,0.0,0.0,0.0,0.0,0.0,0.0,0.0,0.0,0.0,0.0,0.0,0.0,0.0,0.0,0.0,0.0,0.0,0.0,0.0,0.0,0.0,0.0,0.0,0.0,0.0,0.0,0.0,0.0,0.0,0.0,0.0,0.0,0.0,0.0,0.0,0.0,0.0,0.0,0.0,0.0,0.0,0.0,0.0,0.0,0.0,0.0,0.0,0.0,3.3778,0.0,0.0,0.0,0.0,0.0,0.0,0.0,0.0,0.0,0.0,0.0,0.0,0.0,0.0,0.0,0.0,0.0,0.0,0.0,0.0,0.0,0.0,0.0,0.0,0.0,0.0,0.0,0.0,0.0,0.0,0.0,0.0,0.0,0.0,0.0,0.0,0.0,0.0,0.0,2.3954,2.4118,2.4118,2.5779,2.6572,2.6662,0.0,0.0,0.0,0.0,0.0,0.0,0.0,0.0,0.0,0.0,0.0,0.0,0.0,0.0,0.0,0.0,0.0,0.0,0.0,0.0,0.0,0.0,0.0,0.0,0.0,0.0,0.0,0.0,0.0,0.0,0.0,0.0,0.0,0.0,0.0,0.0,0.0,0.0,0.0,0.0,0.0,0.0,0.0,0.0,0.0,0.0,0.0,0.0,0.0,0.0,0.0,0.0,0.0,0.0,0.0,0.0,0.0,0.0,0.0,0.0,0.0,0.0,0.0,0.0,0.0,0.0,0.0,0.0,0.0,0.0,0.0,3.4252,0.0,0.0,0.0,0.0,0.0,0.0,0.0,0.0,0.0,0.0,0.0,0.0,0.0,0.0,0.0,0.0,0.0,0.0,0.0,0.0,0.0,0.0,0.0,0.0,2.5151,2.6482,2.5495,0.0,0.0,0.0,0.0,0.0,0.0,0.0,0.0,2.3595,2.3595,2.3595,2.3729,2.4462,2.5809,2.7006,2.6991,2.5989,2.6961,0.0,0.0,0.0,0.0,0.0,0.0,0.0,0.0,0.0,0.0,0.0,0.0,0.0,0.0,0.0,0.0,0.0,0.0,0.0,0.0,0.0,0.0,0.0,0.0,0.0,0.0,0.0,0.0,0.0,0.0,0.0,0.0,0.0,0.0,0.0,0.0,0.0,0.0,0.0,0.0,0.0,0.0,0.0,0.0,0.0,0.0,0.0,0.0,0.0,0.0,0.0,0.0,0.0,0.0,0.0,0.0,0.0,0.0,0.0,0.0,0.0,0.0,0.0,3.7869,3.9309,4.0493,4.0493,4.0155,3.9462,3.7601,3.6502,3.5938,3.4919,0.0,0.0,0.0,0.0,0.0,0.0,0.0,0.0,0.0,0.0,0.0,0.0,0.0,0.0,0.0,0.0,0.0,0.0,0.0,0.0,0.0,2.4627,2.5151,2.6482,2.5914,2.5216,0.0,0.0,0.0,0.0,0.0,0.0,2.3595,2.3595,2.3595,2.3595,2.4193,2.5166,2.6482,2.7215,2.7535,2.734,2.6901,2.7679,2.9205,0.0,0.0,0.0,0.0,0.0,0.0,0.0,0.0,0.0,0.0,0.0,0.0,0.0,0.0,0.0,0.0,0.0,0.0,0.0,0.0,0.0,0.0,0.0,0.0,0.0,0.0,0.0,0.0,0.0,0.0,0.0,0.0,0.0,0.0,0.0,0.0,0.0,0.0,0.0,0.0,0.0,2.997,3.1377,0.0,0.0,0.0,0.0,0.0,0.0,0.0,0.0,0.0,0.0,0.0,0.0,0.0,3.1022,3.1022,3.5241,3.7439,3.7648,4.0384,4.1813,4.1999,4.1999,4.1948,4.1847,4.1542,0.0,3.753,3.6526,0.0,0.0,0.0,0.0,0.0,0.0,0.0,0.0,0.0,0.0,0.0,0.0,0.0,0.0,0.0,0.0,0.0,0.0,0.0,0.0,0.0,2.5061,2.6108,2.7066,2.7575,2.725,2.5859,0.0,0.0,0.0,0.0,2.3334,2.3595,2.2978,2.301,2.3701,2.5429,2.6782,2.7739,2.8397,2.8697,2.8697,2.8397,2.8562,2.8966,2.8098,0.0,0.0,0.0,0.0,0.0,0.0,0.0,0.0,0.0,0.0,0.0,0.0,0.0,0.0,0.0,0.0,0.0,0.0,0.0,0.0,0.0,0.0,0.0,0.0,0.0,0.0,0.0,0.0,0.0,0.0,0.0,0.0,0.0,0.0,0.0,0.0,0.0,0.0,0.0,2.8824,3.0335,3.083,3.1207,3.1214,0.0,0.0,0.0,0.0,0.0,0.0,0.0,0.0,0.0,2.8844,3.1397,3.2895,3.3202,3.7871,4.0027,3.9686,4.2316,4.3572,4.3572,4.3572,4.3756,4.4026,4.3186,4.2253,4.1279,3.9468,3.8528,3.8151,0.0,0.0,0.0,0.0,3.7716,3.779,0.0,0.0,0.0,0.0,0.0,0.0,0.0,0.0,0.0,0.0,0.0,0.0,2.3584,2.5448,2.6991,2.7993,2.8682,2.8517,2.72,2.6467,0.0,0.0,2.3554,2.3377,2.3377,2.2717,2.3004,2.4293,2.6505,2.8098,2.9101,2.9594,2.9909,3.0088,3.0088,2.9804,2.9325,2.8816,2.7634,2.6078,0.0,0.0,0.0,0.0,0.0,0.0,0.0,0.0,0.0,0.0,0.0,0.0,0.0,0.0,0.0,0.0,0.0,0.0,0.0,0.0,0.0,0.0,0.0,0.0,0.0,0.0,0.0,0.0,0.0,0.0,0.0,0.0,0.0,0.0,0.0,0.0,0.0,2.89,3.0521,3.0623,3.1941,3.2327,0.0,0.0,0.0,0.0,0.0,0.0,2.8805,2.9017,2.9405,3.0119,3.2863,3.4555,3.5039,3.9678,4.1741,4.1276,4.3531,4.4587,4.4587,4.4587,4.4804,4.5113,4.3988,4.3663,4.3845,4.1653,4.031,3.9661,3.9429,3.9313,3.9337,3.9589,3.9301,3.8994,0.0,0.0,0.0,0.0,0.0,0.0,0.0,0.0,0.0,0.0,0.0,2.2975,2.3705,2.5464,2.7365,2.931,2.8382,2.7904,2.8457,2.6138,2.4642,2.4537,2.3405,2.2754,2.2754,2.3302,2.4274,2.5575,2.695,2.8547,3.0417,3.0447,3.0806,3.1377,3.1377,3.1362,3.1198,2.94,2.8158,2.7415,2.6108,0.0,0.0,0.0,0.0,0.0,0.0,0.0,0.0,0.0,0.0,0.0,0.0,0.0,0.0,0.0,0.0,0.0,0.0,0.0,0.0,0.0,0.0,0.0,0.0,0.0,0.0,0.0,0.0,0.0,0.0,0.0,0.0,0.0,0.0,0.0,0.0,0.0,0.0,3.1374,3.3156,0.0,0.0,0.0,0.0,3.0767,3.0652,3.0775,3.1176,3.0912,3.1061,3.174,3.4113,3.5308,3.5335,3.9757,4.1981,4.1949,4.3781,4.4587,4.4587,4.4587,4.4531,4.4353,4.4267,4.4091,4.3696,4.2021,4.1339,4.1269,4.1058,4.0983,4.0826,3.953,3.9065,3.8922,0.0,0.0,0.0,0.0,0.0,0.0,0.0,0.0,0.0,1.8756,2.0627,2.2452,2.3685,2.6512,2.9002,3.0675,3.1165,3.0761,2.9325,2.7528,2.5935,2.4597,2.3297,2.2429,2.1988,2.3518,2.4568,2.5053,2.7189,2.8801,2.9909,3.0296,3.0632,3.0876,3.1235,3.169,3.2017,3.0485,2.8951,2.755,2.6602,2.553,0.0,0.0,0.0,0.0,0.0,0.0,0.0,0.0,0.0,0.0,0.0,0.0,0.0,0.0,0.0,0.0,0.0,0.0,0.0,0.0,0.0,0.0,0.0,0.0,0.0,0.0,0.0,0.0,0.0,0.0,0.0,0.0,0.0,0.0,0.0,0.0,0.0,3.0594,3.2357,0.0,3.2495,3.2489,3.2182,3.125,3.1326,3.1475,3.1739,3.1421,3.1821,3.3067,3.5026,3.6311,3.6954,4.1202,4.2893,4.1997,4.4221,4.479,4.3826,4.3826,4.3923,4.415,4.3641,4.3779,4.429,4.3214,4.2758,4.2721,4.2658,4.2445,4.1996,4.098,4.0396,4.0003,0.0,0.0,0.0,0.0,0.0,0.0,0.0,0.0,1.8095,1.8153,2.0415,2.2653,2.4304,2.7784,3.0617,3.2049,3.2587,3.1781,2.9426,2.7618,2.571,2.3596,2.2451,2.1832,2.1666,2.3603,2.4881,2.535,2.7306,2.8854,2.991,3.0068,3.0375,3.0795,3.1232,3.1817,3.2408,3.1533,3.0186,2.8517,2.7631,2.6842,2.5985,0.0,0.0,0.0,0.0,0.0,0.0,0.0,0.0,0.0,0.0,0.0,0.0,0.0,0.0,0.0,0.0,0.0,0.0,0.0,0.0,0.0,0.0,0.0,0.0,0.0,0.0,0.0,0.0,0.0,0.0,0.0,0.0,0.0,0.0,2.6323,2.8197,2.8451,3.0665,3.1766,3.0778,3.1562,3.1653,3.0541,3.0921,3.1293,3.1423,3.1352,3.2218,3.4057,3.5544,3.6788,3.7753,4.1511,4.2925,4.1997,4.4238,4.4654,4.342,4.362,4.3713,4.3687,4.3347,4.3628,4.425,4.3718,4.341,4.3214,4.3214,4.2884,4.2293,4.1292,4.0412,3.9468,0.0,0.0,0.0,0.0,0.0,0.0,0.0,1.8066,1.8085,1.8143,2.0929,2.3655,2.5582,2.9212,3.1989,3.335,3.2184,3.0611,2.8666,2.6096,2.3681,2.1623,2.0885,2.0909,2.1836,2.3589,2.5149,2.6596,2.7232,2.8551,3.0351,2.9766,3.0143,3.1358,3.1374,3.1789,3.2494,3.2444,3.1807,3.0583,2.9202,2.8249,2.7395,0.0,0.0,0.0,0.0,0.0,0.0,0.0,0.0,0.0,0.0,0.0,0.0,0.0,0.0,0.0,0.0,0.0,0.0,0.0,0.0,0.0,0.0,0.0,0.0,0.0,0.0,0.0,0.0,0.0,0.0,0.0,0.0,0.0,2.145,2.4162,2.5811,2.5196,2.826,2.9795,2.8371,2.9966,3.0355,2.8716,2.9451,3.0072,3.0375,3.0949,3.2253,3.4664,3.5668,3.6696,3.7753,4.0613,4.1981,4.1965,4.3706,4.413,4.3352,4.3941,4.3759,4.2908,4.3512,4.3666,4.3497,4.3479,4.3178,4.2655,4.2619,4.2266,4.1584,4.0192,3.8757,3.705,0.0,0.0,0.0,0.0,0.0,0.0,0.0,1.6925,1.6931,1.6897,2.0351,2.3592,2.5558,2.8685,3.1234,3.2646,3.0703,2.8768,2.7159,2.4218,2.1977,2.0767,2.0568,2.1456,2.3553,2.3742,2.4493,2.5776,2.6414,2.6995,2.7551,2.8722,2.9459,2.9842,3.0381,3.1254,3.234,3.1912,3.2364,3.3234,3.09,2.9312,2.8093,0.0,0.0,0.0,0.0,0.0,0.0,0.0,0.0,0.0,0.0,0.0,0.0,0.0,0.0,0.0,0.0,0.0,0.0,0.0,0.0,0.0,0.0,0.0,0.0,0.0,0.0,0.0,0.0,0.0,0.0,0.0,1.7465,1.8982,2.0505,2.1746,2.2839,2.3796,2.5936,2.7148,2.6753,2.8626,2.9354,2.8153,2.9007,2.9973,3.092,3.114,3.2253,3.4664,3.5668,3.6696,3.7753,4.0613,4.1741,4.1198,4.2924,4.3064,4.1813,4.2429,4.2469,4.2129,4.2745,4.3176,4.3479,4.3087,4.2598,4.1991,4.1337,4.0795,4.0043,3.7617,3.5537,3.3653,0.0,0.0,0.0,0.0,0.0,0.0,0.0,1.594,1.6288,1.6704,2.0106,2.3252,2.514,2.7619,2.9413,3.0051,2.8203,2.614,2.4013,2.0999,1.9292,1.9431,1.9512,2.0851,2.3595,2.3615,2.4354,2.5901,2.623,2.6626,2.7142,2.8518,2.9327,2.9593,3.0325,3.1385,3.2576,3.2017,3.2791,3.415,3.1792,3.0635,2.9909,2.6669,2.5544,2.5478,2.3868,2.4619,2.6256,2.5149,0.0,0.0,0.0,0.0,0.0,0.0,0.0,0.0,0.0,0.0,0.0,0.0,0.0,0.0,0.0,0.0,0.0,0.0,0.0,0.0,0.0,0.0,0.0,0.0,1.492,1.6122,1.6785,1.8961,2.0756,2.1665,2.3138,2.4176,2.4382,2.6184,2.7151,2.6806,2.7877,2.9131,3.0406,3.0944,3.2253,3.4664,3.5668,3.6556,3.7336,4.0112,4.1213,4.051,4.2159,4.2479,4.1579,4.2193,4.2335,0.0,4.2808,4.3087,4.3142,4.2826,4.1848,0.0,0.0,0.0,0.0,0.0,3.3137,3.1862,0.0,0.0,0.0,0.0,0.0,0.0,0.0,1.5096,1.5899,1.6955,1.9816,2.2422,2.4118,2.5981,2.6849,2.6344,2.4891,2.2804,1.9813,1.7221,1.6514,1.808,1.8533,2.0025,2.2746,2.3381,2.4549,2.6313,2.6308,2.6862,2.7882,2.8731,2.946,3.0082,3.087,3.1854,3.2919,3.2518,3.2946,3.3783,3.1926,3.1642,3.1867,2.7434,2.6361,2.698,2.5051,2.535,2.6648,2.649,0.0,0.0,0.0,0.0,0.0,0.0,0.0,0.0,0.0,0.0,0.0,0.0,0.0,0.0,0.0,0.0,0.0,0.0,0.0,0.0,0.0,0.0,0.0,0.0,1.2183,1.2443,1.2039,1.585,1.8688,1.884,2.0206,2.1257,2.1642,2.3388,2.458,2.4971,2.6648,2.8132,2.9315,0.0,0.0,0.0,0.0,3.648,3.7069,3.9637,4.0606,4.0068,4.1593,4.2159,4.1994,4.2617,4.2804,4.275,4.3214,4.3142,4.2711,4.2559,4.0893,3.8434,3.8366,3.7552,3.5989,3.274,3.1435,3.1021,0.0,0.0,0.0,0.0,0.0,0.0,0.0,1.4514,1.5096,1.5745,1.8246,2.0417,2.1641,2.3063,2.3646,2.3064,2.0825,1.8493,1.6084,1.5369,1.6064,1.835,1.9521,2.1181,2.3409,2.3914,2.4642,2.5601,2.5926,2.6188,2.6442,2.7859,2.8956,2.973,3.0817,3.1772,3.2579,3.251,3.2755,3.2976,3.0543,3.0103,3.0608,2.8005,2.6865,2.6533,2.5602,2.6764,2.8641,2.7671,2.8493,2.9589,2.7832,2.641,0.0,0.0,0.0,0.0,0.0,0.0,0.0,0.0,0.0,0.0,0.0,0.0,0.0,0.0,0.0,0.0,0.0,0.0,0.0,0.9819,1.0981,1.1725,1.0865,1.2425,1.3975,1.4835,1.7895,1.9886,1.9962,2.264,2.4453,2.4531,2.6464,2.8132,2.9315,3.0586,3.2253,3.4664,3.5668,3.702,3.8644,4.0119,4.0852,4.0778,0.0,0.0,4.1192,4.2252,4.2703,4.2711,4.2826,4.2788,4.2616,4.1664,3.933,3.6312,3.5743,3.4274,3.2337,3.1208,3.0444,2.9661,0.0,0.0,0.0,0.0,0.0,0.0,0.0,1.3873,1.4457,1.4985,1.6741,1.8276,1.9098,1.9745,1.9787,1.89,1.642,1.4723,1.4172,1.4399,1.5378,1.7263,1.8787,2.038,2.2072,2.2951,2.3956,2.5105,2.5689,2.621,2.6691,2.825,2.9323,2.9969,3.1306,3.2243,3.284,3.2583,3.2613,3.2546,3.009,2.9237,2.9204,2.6838,2.5945,2.5826,2.5465,2.6638,2.8339,2.841,2.9163,2.9858,2.8695,2.7213,2.5518,0.0,0.0,0.0,0.0,0.0,0.0,0.0,0.0,0.0,0.0,0.0,0.0,0.0,0.0,1.0324,0.7928,0.0,0.7354,0.6648,0.7988,0.8996,0.8554,1.0095,1.1947,1.3803,1.6655,1.8864,1.9736,2.2437,2.4287,2.4707,2.6658,2.8258,2.9385,3.0636,3.2319,3.465,3.5396,3.6542,3.8038,3.956,4.0188,3.9939,4.1016,4.1441,4.1402,4.2302,4.2711,4.2711,4.2711,4.2342,4.1594,3.9282,3.694,3.462,3.3162,3.1905,3.0837,2.9901,2.9337,2.8921,0.0,0.0,0.0,0.0,0.0,0.0,0.0,0.0,1.382,1.437,1.5366,1.6138,1.6539,1.659,1.6049,1.4668,1.2715,1.1981,1.3106,1.3856,1.4924,1.6455,1.8081,1.9489,2.072,2.2103,2.3521,2.4927,2.5828,2.6725,2.7683,2.8998,2.9941,3.0622,3.1929,3.284,3.3302,3.2903,3.2631,3.2311,2.9963,2.8706,2.7901,2.5193,2.463,2.5365,2.5441,2.6136,2.718,2.8668,2.9189,2.9163,2.9045,2.7745,2.584,2.3756,2.2824,0.0,0.0,0.0,0.0,0.0,0.0,0.0,0.0,1.0483,0.9916,0.807,0.7429,0.6557,0.4733,0.4016,0.387,0.4102,0.5567,0.6554,0.6531,0.855,1.0986,1.3397,1.5783,1.794,1.9783,2.2053,2.3971,2.5036,2.6868,2.8363,2.9342,3.0882,3.262,3.4779,3.5356,3.6372,3.7736,3.9157,3.9719,3.9534,4.0577,4.1402,4.1979,4.2598,4.2788,4.2711,4.244,4.1576,4.0086,3.6908,3.48,3.3293,3.1157,3.0253,3.0013,2.8981,2.8569,2.8447,0.0,0.0,0.0,0.0,0.0,0.0,0.0,0.0,0.0,1.3805,1.4031,1.4114,1.4125,1.4118,1.3338,1.139,1.1048,1.1353,1.2432,1.3741,1.5448,1.7627,1.9041,2.0231,2.1277,2.3079,2.4424,2.5326,2.6559,2.7739,2.8906,2.9382,3.0422,3.1903,3.2393,3.3003,3.3734,3.368,3.3225,3.2258,2.9747,2.8256,2.7166,2.4067,2.403,2.5652,2.6243,2.6154,2.6083,2.8055,2.8301,2.7839,2.8102,2.7054,2.531,2.2837,2.1155,1.9754,1.8148,1.6355,1.4622,1.3317,1.084,0.8832,0.0,0.8043,0.6824,0.5802,0.5904,0.572,0.4198,0.4062,0.4102,0.4242,0.5623,0.6646,0.6544,0.7821,0.9657,1.2094,1.4461,1.6858,1.9355,2.116,2.3047,2.5217,2.6933,2.8407,2.9479,3.1524,3.3435,3.5269,3.6208,3.7887,4.0436,4.002,4.0451,4.1736,4.169,4.2038,4.2616,4.316,4.3142,4.2655,4.1578,4.0035,3.8148,3.5873,3.407,3.2594,3.0492,2.9325,2.8801,2.8652,2.8495,2.8334,0.0,0.0,0.0,0.0,0.0,0.0,0.0,0.0,0.0,0.0,1.2648,1.2483,1.2073,1.167,1.1223,1.0788,1.0407,1.1005,1.2851,1.395,1.5356,1.7359,1.8924,2.0023,2.0679,2.2892,2.4663,2.5928,2.7324,2.8719,3.0166,3.0756,3.1547,3.2429,3.3191,3.3622,3.3815,3.3961,3.3186,3.1688,2.9881,2.7986,2.5958,2.3902,2.3197,2.3415,2.4073,2.4133,0.0,2.5749,2.5886,2.5447,2.5799,2.4748,2.311,2.1533,2.024,1.8771,1.6123,1.3407,1.0932,0.9229,0.7688,0.6367,0.5754,0.5203,0.4565,0.3462,0.3497,0.3199,0.1871,0.1696,0.2056,0.2866,0.4337,0.601,0.771,0.8924,1.0617,1.318,1.4629,1.6465,1.919,2.1329,2.3418,2.5305,2.7026,2.8502,2.9533,3.1067,3.276,3.4775,3.5421,3.7022,3.962,3.9393,3.9956,4.1405,4.1648,4.2121,4.2711,4.2939,4.2311,4.0948,4.0126,3.8387,3.6007,3.4711,3.3077,3.1262,2.9666,2.8846,2.8607,2.8607,2.8243,2.7782,0.0,0.0,0.0,0.0,0.0,0.0,0.0,0.0,0.0,0.0,1.1814,1.1616,1.1116,1.0466,1.0261,1.0762,1.0517,1.126,1.3343,1.4302,1.5568,1.7275,1.878,1.9968,2.072,2.2883,2.4842,2.644,2.8022,2.9556,3.1066,3.1937,3.259,3.308,3.3934,3.4171,3.391,3.4123,3.3183,3.1418,2.9846,2.7691,2.525,2.3503,2.2147,2.1302,2.2118,2.2293,2.2338,2.364,2.3585,2.3066,2.3506,2.239,2.0588,1.9298,1.7701,1.5722,1.2876,1.0179,0.7631,0.5642,0.4772,0.4072,0.2711,0.2502,0.2367,0.1482,0.1419,0.1144,0.0211,0.0319,0.086,0.199,0.3773,0.5859,0.832,0.964,1.1522,1.453,1.4988,1.6464,1.9903,2.177,2.3639,2.5753,2.7324,2.859,2.9627,3.0855,3.2347,3.4112,3.515,3.6728,3.8802,3.9023,3.9823,4.1178,4.1578,4.2185,4.2902,4.2598,4.1505,3.9759,3.9024,3.7072,3.4344,3.3477,3.1908,2.9849,2.8547,2.8141,2.8263,2.8082,2.7712,2.7359,0.0,0.0,0.0,0.0,0.0,0.0,0.0,0.0,0.0,0.0,0.0,0.0,0.0,1.1166,1.0762,1.0813,1.1366,1.2288,1.3622,1.4801,1.6255,1.8001,1.9051,2.0384,2.2,2.3594,2.516,2.6792,2.8658,3.0194,3.1403,3.2474,3.3394,3.4181,3.4529,3.4508,3.4176,3.42,3.3324,3.1761,2.9374,2.7399,2.5532,2.2532,2.076,2.0121,2.1312,2.1321,2.0976,2.2293,2.1948,2.1083,2.1632,2.0266,1.8069,1.5821,1.2458,0.9191,0.822,0.6768,0.5074,0.3202,0.2172,0.1433,0.039,0.0099,0.0101,0.0101,0.0102,0.0,0.0,0.1052,0.2032,0.2178,0.4579,0.681,0.804,0.9492,1.1711,1.5242,1.5299,1.6884,2.1561,2.2184,2.3681,2.7023,2.781,2.8621,2.9752,3.1563,3.2883,3.3578,3.6134,3.7935,3.8802,3.9528,4.0492,4.175,4.181,4.2386,4.3444,4.2346,4.1086,3.9721,3.8539,3.6394,3.3633,3.2316,3.056,2.8517,2.7171,2.6955,2.7381,2.6717,2.6792,2.7163,0.0,0.0,0.0,0.0,0.0,0.0,0.0,0.0,0.0,0.0,0.0,0.0,0.0,0.0,0.0,0.0,1.1665,1.2531,1.4261,1.5071,1.6273,1.8013,1.9309,2.0516,2.1676,2.3774,2.5627,2.713,2.8966,3.0467,3.1695,3.2767,3.31,3.2874,3.4321,3.415,3.2835,3.3421,3.2519,3.0516,2.8806,2.6674,2.4282,2.2144,2.0442,1.9253,0.0,1.9162,1.9049,1.9501,1.8865,1.7942,1.8021,1.6243,1.3558,1.0671,0.8645,0.6954,0.4934,0.3521,0.2363,0.1159,0.075,0.0488,0.01,0.0,0.0,0.0,0.0,0.0,0.0,0.0402,0.1014,0.2064,0.3796,0.5753,0.8115,1.0305,1.2547,1.5203,1.649,1.8501,2.1869,2.2676,2.3805,2.5995,2.7723,2.8635,2.8664,3.1201,3.2946,3.3689,3.5838,3.7534,3.8828,3.9511,4.0485,4.1793,4.2221,4.2135,4.1615,4.0803,3.948,3.7684,3.6356,3.4718,3.2808,3.1041,2.9373,2.788,2.7339,2.698,2.6729,2.6723,2.702,2.7396,0.0,0.0,0.0,0.0,0.0,0.0,0.0,0.0,0.0,0.0,0.0,0.0,0.0,0.0,0.0,0.0,0.0,1.312,1.4606,1.556,1.6709,1.8052,1.9632,2.0893,2.1693,2.3779,2.5455,2.6655,2.8664,3.0097,3.0977,3.2331,3.2713,3.2314,3.3675,3.3544,3.2258,3.2467,3.1422,2.9452,2.7815,2.5634,2.3224,2.1557,1.9942,0.0,1.776,1.7233,1.6946,1.7572,1.6824,1.5533,1.4727,1.2073,0.8858,0.652,0.5269,0.428,0.2617,0.1493,0.0712,0.0093,0.0,0.0,0.0,0.0,0.0,0.0,0.0,0.0,0.0,0.0095,0.0569,0.1944,0.2983,0.4754,0.7961,1.0198,1.2614,1.5658,1.7316,1.9326,2.22,2.2963,2.4106,2.6082,2.7593,2.8583,2.8879,3.1229,3.3101,3.4295,3.6059,3.7572,3.8781,3.9412,4.0279,4.1207,4.1656,4.131,4.0258,3.9407,3.8052,3.6238,3.4644,3.3171,3.1719,2.9689,2.8236,2.7225,2.6811,2.6541,2.6361,2.6519,2.695,2.7419,0.0,0.0,0.0,0.0,0.0,0.0,0.0,0.0,0.0,0.0,0.0,0.0,0.0,0.0,0.0,0.0,0.0,0.0,1.4698,1.6298,1.7477,1.8092,1.9978,2.1343,2.2084,2.3588,2.4754,2.548,2.7767,2.9005,2.9319,3.1148,3.2086,3.2248,3.2593,3.256,3.2159,3.1236,3.0036,2.858,2.6355,2.4348,2.2483,2.0807,1.9302,1.7894,1.6756,1.5584,1.4778,1.6401,1.5641,1.3637,1.1692,0.8045,0.4408,0.3595,0.2457,0.1425,0.1319,0.0786,0.0183,0.0194,0.0199,0.0202,0.0202,0.0201,0.0199,0.0192,0.0187,0.0183,0.009,0.0264,0.079,0.192,0.2393,0.391,0.7528,0.9279,1.1786,1.6195,1.7572,1.9291,2.2298,2.3057,2.438,2.6893,0.0,2.826,3.0118,3.168,3.3405,3.5175,3.6886,3.8079,3.8652,3.937,3.9891,4.0257,4.0257,3.9944,3.935,3.8039,3.6729,3.5432,3.3322,3.1684,3.0359,2.8379,2.7111,2.6411,2.5707,2.5723,2.6126,2.6028,2.6522,2.7265,0.0,0.0,0.0,0.0,0.0,0.0,0.0,0.0,0.0,0.0,0.0,0.0,0.0,0.0,0.0,0.0,0.0,0.0,1.532,1.6511,1.7612,1.8579,2.015,2.134,2.2078,2.3426,2.4423,2.5057,2.6465,2.7278,2.7569,2.8907,2.9193,2.8673,3.0,2.9851,2.8623,2.8559,2.8005,2.6924,2.4769,2.3169,2.1908,2.0361,1.8739,1.72,1.6075,1.4726,1.3606,1.3834,1.1912,0.8998,0.695,0.5147,0.3536,0.2202,0.2323,0.2607,0.1956,0.2415,0.2988,0.2973,0.3004,0.2904,0.2866,0.2728,0.2574,0.2383,0.2294,0.2049,0.1172,0.1122,0.1158,0.0632,0.1518,0.2858,0.4767,0.7707,1.0707,1.3393,1.5884,1.8172,2.0338,2.1042,2.2203,2.4302,2.6254,2.752,2.8012,3.0538,3.3274,3.5999,3.7184,3.8297,3.9439,3.9858,4.0345,4.0857,4.0091,3.9046,3.7813,3.6198,3.4655,3.3225,3.1214,2.9873,2.8978,2.75,2.6168,2.5183,2.5753,2.5775,2.549,2.5643,2.6196,2.6764,0.0,0.0,0.0,0.0,0.0,0.0,0.0,0.0,0.0,0.0,0.0,0.0,0.0,0.0,0.0,0.0,0.0,0.0,0.0,1.6998,1.7972,1.8797,2.0234,2.1197,2.1622,2.3147,2.3946,2.3934,2.536,2.6038,2.5999,2.699,2.7251,2.6911,2.7845,2.7734,2.6838,2.6552,2.598,0.0,0.0,2.2422,2.1089,1.9769,1.8302,1.6633,1.458,1.25,1.0605,0.9789,0.8105,0.5887,0.3215,0.2188,0.1899,0.1637,0.2126,0.2716,0.2859,0.344,0.4025,0.3999,0.3992,0.3842,0.3642,0.3471,0.3275,0.2996,0.2981,0.2819,0.2025,0.138,0.0845,0.0593,0.0451,0.1231,0.3624,0.6614,0.9609,1.2327,1.5261,1.7809,1.9543,2.0607,2.1829,2.3164,2.5468,2.7183,2.8004,3.076,3.3542,3.599,3.6905,3.7923,3.9068,3.9049,3.9185,3.9515,3.8098,3.7016,3.6165,3.415,3.2804,3.1925,0.0,2.8462,2.8018,2.6419,2.5243,2.4526,2.5075,2.497,2.459,2.5139,2.5687,2.6065,0.0,0.0,0.0,0.0,0.0,0.0,0.0,0.0,0.0,0.0,0.0,0.0,0.0,0.0,0.0,0.0,0.0,0.0,0.0,0.0,1.8405,1.9051,2.0317,2.1055,2.1166,2.2806,2.3369,2.2695,2.4331,2.4924,2.4599,2.529,2.5717,2.5901,2.5901,2.5901,2.5823,2.4864,2.4058,2.3449,2.2954,2.177,2.0185,0.0,1.7785,1.6071,1.266,0.9657,0.703,0.5471,0.466,0.3883,0.1053,0.0235,0.0567,0.1904,0.2554,0.3029,0.4238,0.4739,0.5012,0.5088,0.4942,0.4726,0.4252,0.3959,0.3718,0.3407,0.3346,0.3301,0.3147,0.1739,0.0784,0.1422,0.0083,0.0175,0.3585,0.6114,0.8722,1.1876,1.5018,1.7499,1.8976,2.066,2.2014,2.2734,2.4921,2.7027,2.8969,3.1425,3.3645,3.5655,3.6486,3.7335,3.8121,3.7715,3.747,3.7312,3.5588,3.473,3.4571,3.2309,3.1222,3.0958,0.0,0.0,2.7036,2.5272,2.4422,2.4178,2.41,2.39,2.3786,2.4577,2.5065,2.5242,0.0,0.0,0.0,0.0,0.0,0.0,0.0,0.0,0.0,0.0,1.252,1.2774,0.0,0.0,0.0,0.0,0.0,0.0,0.0,0.0,0.0,1.9932,2.0618,2.1323,2.2049,2.2412,2.2627,2.2695,2.3033,2.3288,2.3483,2.3625,2.3684,2.3736,2.3736,2.3736,2.3672,2.2903,2.248,2.2293,2.1261,2.0407,1.9612,1.8636,0.0,0.0,1.0624,0.7854,0.5956,0.3715,0.3047,0.3177,0.3063,0.2405,0.1951,0.3297,0.5251,0.6988,0.7271,0.8909,1.0515,1.0547,1.0303,0.9823,0.8407,0.7792,0.7341,0.6745,0.6051,0.5405,0.53,0.4444,0.3476,0.2887,0.2376,0.2823,0.5027,0.689,0.8781,1.0549,1.376,1.6102,1.6678,1.8792,2.0515,2.1427,2.4107,2.6558,2.8726,3.0069,3.2288,3.5607,3.7191,3.7813,3.7309,3.7443,3.7165,3.6486,3.5337,3.4499,3.381,3.1641,3.0035,2.8846,2.7395,0.0,2.5061,2.4569,2.3999,2.3506,2.3697,2.3752,2.3736,2.3996,2.427,2.4421,0.0,0.0,0.0,0.0,0.0,0.0,0.0,1.2422,1.311,1.3317,1.4037,1.4338,1.3768,1.3941,1.4402,0.0,0.0,0.0,0.0,0.0,0.0,0.0,0.0,0.0,2.1928,2.255,2.2751,2.25,0.0,2.2959,2.2721,2.2721,2.2721,2.2721,2.2721,2.2599,2.2344,2.2,2.1576,2.115,2.099,2.0203,1.9006,0.0,0.0,0.0,0.9695,0.8067,0.6777,0.5859,0.5206,0.4485,0.3183,0.3238,0.4055,0.5548,0.7318,0.8918,0.9786,1.0956,1.1945,1.1945,1.1687,1.1044,0.9843,0.9278,0.8852,0.8126,0.7789,0.7578,0.7367,0.6589,0.5761,0.5277,0.4627,0.4538,0.5648,0.7502,0.9064,0.9843,1.3085,1.5593,1.6413,1.8594,2.0625,2.2323,2.4019,2.5734,2.7526,2.9703,3.2002,3.426,3.5734,3.6397,3.6291,3.6212,3.5904,3.5296,3.4163,3.33,3.2651,3.0418,2.9046,2.827,2.6367,0.0,2.442,2.3984,2.3452,2.2936,2.3062,2.3059,2.3003,2.3405,2.3626,2.375,0.0,0.0,0.0,0.0,0.0,0.0,0.0,1.3214,1.3828,1.4282,1.5529,1.6031,1.519,1.5053,1.5226,0.0,0.0,0.0,0.0,0.0,0.0,0.0,0.0,0.0,2.1764,0.0,0.0,2.2547,2.3001,0.0,0.0,0.0,0.0,0.0,2.2135,2.1945,2.1582,2.1399,2.0942,0.0,0.0,1.996,0.0,0.0,0.0,0.0,0.0,0.8537,0.7757,0.8137,0.7577,0.6373,0.3934,0.4413,0.6092,0.7731,0.9221,1.0565,1.1844,1.249,1.2721,1.2721,1.2366,1.1779,1.0704,1.0205,0.9856,0.9018,0.8998,0.9119,0.915,0.8325,0.7571,0.7457,0.6629,0.6093,0.652,0.8413,0.9761,0.9858,1.307,1.5643,1.6767,1.874,2.0791,2.2831,2.3936,2.5232,2.6828,2.9826,3.1945,3.3044,3.4194,3.4816,3.4864,3.472,3.4277,3.3507,3.242,3.1688,3.127,2.914,2.81,2.7833,2.5536,0.0,0.0,2.3421,2.2917,2.2588,2.2566,2.2488,2.2453,2.2989,2.3253,2.3392,0.0,0.0,0.0,0.0,0.0,0.0,0.0,1.3776,1.4365,1.5186,1.6465,1.7241,1.7225,1.7099,1.6836,0.0,0.0,0.0,0.0,0.0,0.0,0.0,0.0,0.0,0.0,0.0,0.0,2.3291,2.287,0.0,0.0,0.0,0.0,0.0,0.0,2.1658,2.1552,2.0765,0.0,0.0,0.0,0.0,0.0,0.0,0.0,0.0,0.0,0.8331,0.7689,0.7747,0.7888,0.7962,0.7673,0.7548,0.7785,0.9123,1.0978,1.2791,1.3164,1.437,1.5439,1.5439,1.5015,1.4179,1.2433,1.17,1.1182,1.0538,0.973,0.9389,1.0246,0.9367,0.8522,0.8617,0.8216,0.8127,0.8557,1.0313,1.1462,1.1222,1.3939,1.6085,1.6838,1.8339,1.9763,2.0993,2.322,2.562,2.8163,3.0218,3.1858,3.2975,3.4181,3.4163,3.2781,3.3219,3.2511,3.0658,3.0129,2.9831,2.9763,2.8145,2.708,2.6382,2.4947,0.0,0.0,2.2887,2.2654,2.257,2.24,2.246,2.2712,2.3069,2.3392,2.3714,0.0,0.0,0.0,0.0,0.0,0.0,1.3387,1.3652,1.431,1.5976,1.7309,1.8395,1.9147,1.9305,1.8996,1.8096,0.0,0.0,0.0,0.0,0.0,0.0,0.0,0.0,0.0,0.0,2.2942,2.2903,2.3159,0.0,0.0,0.0,0.0,0.0,0.0,2.1472,2.0797,2.0492,0.0,0.0,0.0,0.0,0.0,0.0,0.0,0.0,0.0,0.0,0.9156,0.9364,0.9418,0.9325,0.9361,0.9531,0.9805,1.0572,1.2157,1.3892,1.5116,1.6169,1.6943,1.6943,1.6321,1.534,1.3533,1.2685,1.2119,1.148,1.1197,1.1162,1.1535,1.0883,1.0263,1.0365,0.9952,0.9579,0.9265,1.0276,1.1222,1.1584,1.3533,1.5638,1.7634,1.9194,2.0835,2.2818,2.4185,2.5797,2.7858,2.9029,3.0,3.0751,3.182,3.2224,3.1826,3.2056,3.1518,3.0247,3.0043,2.9706,2.9194,2.7486,2.6711,2.6678,2.4587,0.0,0.0,2.2867,2.2531,2.2434,2.2511,2.2599,2.2772,2.3282,2.3588,2.3753,0.0,0.0,0.0,0.0,0.0,1.3116,1.3681,1.3901,1.4716,1.6684,1.8104,1.9239,2.0248,2.0747,2.072,2.0194,1.9364,0.0,0.0,0.0,0.0,0.0,0.0,0.0,0.0,0.0,2.3251,2.2948,2.3733,2.3777,0.0,0.0,2.2812,2.1793,0.0,0.0,0.0,0.0,0.0,0.0,0.0,0.0,0.0,0.0,0.0,0.0,0.0,0.0,0.0,0.0,0.0,1.0234,1.0147,1.0642,1.1334,1.1586,1.2956,1.4655,1.6254,1.7305,1.7988,1.8087,1.7378,1.6369,1.501,1.4159,1.3486,1.2942,1.2797,1.2732,1.2732,1.2104,1.1557,1.1557,1.1254,1.0772,0.9974,1.091,1.174,1.2034,1.3544,1.5562,1.8024,1.9699,2.1694,2.4194,2.4516,2.5255,2.6842,2.7386,2.8318,2.9709,3.0422,3.084,3.0874,3.0874,3.0414,2.9526,2.9404,2.9045,2.844,2.6744,2.6264,2.6632,2.4236,0.0,0.0,2.292,2.255,2.2453,2.2738,2.2923,2.3045,2.3522,2.3756,2.3876,0.0,0.0,0.0,0.0,0.0,0.0,1.4239,1.4828,1.5722,1.7291,1.8695,1.9725,2.0179,2.1024,2.1845,2.2523,2.0309,0.0,0.0,0.0,0.0,0.0,0.0,0.0,0.0,0.0,2.3502,2.3704,2.4627,2.4507,2.3421,2.3999,2.3226,2.1286,0.0,0.0,0.0,0.0,0.0,0.0,0.0,0.0,0.0,0.0,0.0,0.0,0.0,0.0,0.0,0.0,0.0,0.0,0.0,1.0854,1.1839,1.2111,1.3446,1.5033,1.622,1.7595,1.8774,1.8879,1.8337,1.7705,1.7335,1.6407,1.5519,1.5229,1.4378,1.3673,1.3673,1.2699,1.1864,1.1864,1.2087,1.1825,1.0728,1.2634,1.3773,1.2697,1.441,1.6199,1.7467,1.953,2.1791,2.421,2.3606,0.0,2.5245,2.5449,2.7157,3.0664,3.0782,3.0413,2.9638,2.962,2.9053,2.7915,2.7535,2.7321,2.7289,2.5875,2.5503,0.0,0.0,0.0,0.0,2.2993,2.2695,2.2721,2.3069,2.3392,2.3692,2.3692,2.3917,2.4208,0.0,0.0,0.0,0.0,0.0,0.0,0.0,1.4104,1.5137,1.7601,1.8294,1.9209,2.0927,2.1815,2.2563,2.3248,2.1773,0.0,0.0,0.0,0.0,0.0,0.0,0.0,0.0,0.0,2.408,2.3987,2.4772,2.4602,2.3519,2.3746,2.3277,2.2249,2.1762,2.1196,0.0,0.0,0.0,0.0,0.0,0.0,1.2704,0.0,0.0,0.0,0.0,0.0,0.0,0.0,0.0,0.0,0.0,0.0,0.0,1.3743,1.4221,1.484,1.6547,1.7614,1.8357,1.8689,1.8275,1.7596,1.6608,1.5856,1.5303,1.5188,1.495,1.4736,1.4736,1.4237,1.3715,1.3421,1.3257,1.2972,1.2321,1.3169,1.4192,1.5078,1.7921,1.9787,1.9774,2.1197,2.2381,2.3039,2.3087,2.3645,2.4974,2.533,2.6165,2.7664,2.7985,2.835,2.8778,2.8093,2.8003,2.8506,2.7423,2.704,2.7238,2.5662,2.5203,0.0,0.0,0.0,0.0,2.2976,2.2755,2.2772,2.3323,2.3628,2.3714,2.3976,2.4113,2.4281,0.0,0.0,0.0,0.0,0.0,0.0,0.0,1.4647,1.5597,1.7823,1.8312,1.9138,2.1016,2.2048,2.2902,2.3523,2.3533,0.0,0.0,0.0,0.0,0.0,0.0,0.0,2.3799,2.4526,2.4647,2.4084,2.508,2.4898,2.361,2.3864,2.3375,2.2302,2.1903,2.121,0.0,0.0,0.0,0.0,0.0,0.0,1.2477,0.0,0.0,0.0,0.0,0.0,0.0,0.0,0.0,0.0,0.0,0.0,0.0,0.0,1.5183,1.5534,1.7097,1.8091,1.881,1.9058,1.8787,1.8221,1.745,1.6703,1.6228,1.6228,1.5939,1.5677,1.5462,1.516,1.4728,1.4098,1.4151,1.395,1.3144,1.3874,1.5084,1.6568,1.8806,2.0307,2.0469,2.1163,2.1957,2.2661,2.2713,2.326,2.4582,2.4662,2.4972,2.5708,2.6786,2.7513,2.7825,2.7513,2.7502,2.7775,2.6744,2.6314,2.642,2.5029,2.4697,0.0,0.0,0.0,0.0,2.3128,2.2989,2.3117,2.3671,2.3896,2.3917,2.4113,2.419,2.4337,0.0,0.0,0.0,0.0,0.0,0.0,0.0,1.6037,1.6807,1.7972,1.8631,1.9384,2.0489,2.1923,2.3017,2.3602,0.0,0.0,0.0,0.0,0.0,0.0,0.0,0.0,2.4574,2.5304,2.5178,2.4201,2.5568,2.5358,2.3684,2.4283,2.3599,2.1844,2.1756,2.0951,0.0,0.0,0.0,0.0,0.0,0.0,0.0,0.0,0.0,0.0,0.0,0.0,0.0,0.0,0.0,0.0,0.0,0.0,0.0,0.0,0.0,0.0,0.0,1.8848,1.9746,1.9775,1.9512,1.9238,1.9209,1.8603,0.0,1.8018,1.7285,1.6578,1.6111,1.5653,1.5099,1.4231,1.4768,1.4889,1.3466,1.483,1.6339,1.7239,1.7781,1.8572,1.9738,1.9988,2.0843,2.2758,2.2367,2.2628,2.4118,2.3578,2.3731,2.4775,2.6853,2.7625,2.686,2.7531,2.7278,2.6126,2.5633,2.5314,2.5062,2.4106,2.3964,0.0,0.0,0.0,0.0,2.3362,2.3392,2.3735,2.4074,2.419,2.4208,2.4263,2.4301,2.4468,0.0,0.0,0.0,0.0,0.0,0.0,0.0,0.0,0.0,0.0,1.8053,1.8807,1.9886,2.2068,2.3691,0.0,0.0,0.0,0.0,0.0,0.0,0.0,0.0,0.0,2.5338,2.6065,2.5944,2.4942,2.6366,2.6103,2.4358,2.4458,2.4043,2.3198,2.2075,2.0348,0.0,0.0,0.0,0.0,0.0,0.0,0.0,0.0,0.0,0.0,1.1209,1.1734,0.0,0.0,0.0,0.0,0.0,0.0,0.0,0.0,1.7086,1.7344,1.7871,0.0,1.8057,1.8379,1.8623,1.8701,0.0,1.8408,1.8398,1.8076,1.7794,1.7523,1.7101,1.6968,1.6628,1.5717,1.5761,1.5885,1.5682,1.6581,1.7328,1.771,1.9046,1.9781,1.9237,2.0736,2.1545,2.1076,2.1682,2.2361,2.2971,2.3508,2.4118,2.479,2.6043,2.6617,2.6446,2.588,2.587,2.6387,2.5159,2.4752,2.5073,2.3986,2.354,0.0,0.0,0.0,2.2981,2.314,2.3392,2.3735,2.4074,2.419,2.4263,2.4887,2.5226,2.5558,0.0,0.0,0.0,0.0,0.0,0.0,0.0,0.0,0.0,0.0,0.0,1.8601,1.977,2.192,0.0,0.0,0.0,0.0,0.0,0.0,0.0,0.0,0.0,2.5355,2.6099,2.657,2.6438,2.5639,2.6477,2.6072,2.4534,2.452,2.3893,2.2685,2.103,1.9168,0.0,0.0,0.0,0.0,1.2562,0.0,0.0,0.0,0.0,0.0,1.1169,1.2009,0.0,1.3604,1.4706,1.606,0.0,0.0,0.0,0.0,1.7666,1.7715,1.7949,1.7988,1.8018,1.8242,1.8467,1.8504,1.835,1.832,1.8281,1.8057,1.7852,1.7588,1.7168,1.709,1.6797,1.5908,1.5928,1.6317,1.6931,1.7443,1.7967,1.8673,1.921,1.9443,1.9364,2.0364,2.0956,2.0701,2.1559,2.2327,2.2853,2.3498,2.4155,2.479,2.5234,2.5518,2.562,2.5447,2.5237,2.4994,2.4171,2.3797,2.379,2.3187,2.2902,0.0,0.0,0.0,2.2947,2.3117,2.35,2.3955,2.4132,2.4428,2.4797,2.5337,2.5838,2.6522,0.0,0.0,0.0,0.0,0.0,0.0,0.0,0.0,0.0,0.0,0.0,0.0,0.0,0.0,0.0,0.0,0.0,0.0,0.0,0.0,0.0,0.0,2.6742,2.6201,2.6724,2.6866,2.6698,2.6227,2.6455,2.5908,2.4675,2.4612,2.3502,2.1341,1.949,1.7924,0.0,0.0,0.0,0.0,1.1937,0.0,0.0,0.0,0.0,0.0,0.0,0.0,0.0,1.4701,1.5799,1.6922,1.7725,0.0,0.0,0.0,0.0,0.0,1.8008,1.8408,1.8799,1.8601,1.8682,1.8721,1.8652,1.8359,1.8086,1.8018,1.7725,1.7324,1.6625,1.6529,1.6177,1.5193,1.5644,1.6483,1.74,1.7802,1.8398,1.9418,1.8892,1.8755,1.9604,1.9846,2.0254,2.0942,2.1782,2.2539,2.3165,2.361,2.4099,2.4746,2.4607,2.4607,2.476,2.5439,2.4912,2.3189,2.3189,2.2883,2.231,2.231,2.231,2.231,0.0,0.0,2.3189,2.3277,2.3649,2.4208,2.4337,2.4795,2.5461,2.5894,2.6522,2.7453,0.0,0.0,0.0,0.0,0.0,0.0,0.0,0.0,0.0,0.0,0.0,0.0,0.0,0.0,0.0,0.0,0.0,0.0,0.0,0.0,0.0,2.977,2.8262,2.7293,2.6904,2.6998,2.6839,2.6355,2.7022,2.6667,2.5336,2.5303,2.3603,2.0495,1.9124,1.7571,1.5906,1.4603,0.0,0.0,1.217,0.0,0.0,0.0,0.0,0.0,0.0,0.0,0.0,1.5983,1.6945,1.7794,1.794,0.0,0.0,0.0,0.0,0.0,1.8008,1.8848,1.9541,1.8818,1.8916,1.9092,1.8721,1.8584,1.8437,1.8086,1.7959,1.7456,1.5993,1.5652,1.5196,1.3613,1.5021,1.6571,1.7191,1.8001,1.8453,1.8199,1.8927,1.9362,1.9056,2.061,2.1464,2.1039,2.2255,2.3076,2.3189,2.3964,2.4425,2.4526,2.4685,2.4685,2.4561,2.4673,2.4228,2.3189,2.3189,2.2883,2.231,2.231,2.231,2.231,0.0,2.2848,2.3212,2.3522,2.3837,2.4263,2.4962,2.5293,2.5608,2.7157,2.7959,2.8555,0.0,0.0,0.0,0.0,0.0,0.0,0.0,0.0,0.0,0.0,0.0,0.0,0.0,0.0,0.0,0.0,0.0,0.0,0.0,0.0,2.951,2.9087,2.8064,2.7367,2.7027,2.6824,2.6614,2.6377,2.7194,2.6837,2.5388,2.3986,2.226,2.0342,1.9011,1.7284,1.5304,1.452,1.3623,0.0,0.0,0.0,0.0,0.0,0.0,0.0,0.0,0.0,0.0,0.0,1.7207,1.8008,1.8008,0.0,0.0,0.0,0.0,0.0,1.7364,1.7868,1.8285,1.7514,1.863,1.9713,1.8666,1.8524,1.8584,1.8389,1.755,1.6624,1.583,1.5129,1.4491,1.4012,1.59,1.7416,1.7416,1.8258,1.8863,1.8939,0.0,1.9273,1.9357,2.0645,2.1343,2.1023,2.219,2.3021,2.3189,2.3762,2.4192,2.4495,2.4478,2.4478,2.4495,2.4211,2.3783,2.3189,2.3021,2.2704,2.231,2.231,2.2388,2.2527,0.0,2.2996,2.3477,2.3649,2.3896,2.4281,2.509,2.5678,2.6289,2.8241,2.978,3.1021,0.0,0.0,0.0,0.0,0.0,0.0,0.0,0.0,0.0,0.0,0.0,0.0,0.0,0.0,0.0,0.0,0.0,0.0,0.0,2.9077,2.8968,2.8502,2.7496,2.684,2.6663,2.6158,2.6077,2.6427,2.6886,2.6495,2.5329,2.2976,2.1326,2.0229,1.9181,1.7287,1.488,1.4816,1.3987,0.0,0.0,0.0,0.0,0.0,0.0,0.0,0.0,0.0,0.0,0.0,0.0,0.0,0.0,0.0,0.0,1.8125,1.8086,1.7813,1.6972,1.708,1.7069,1.5979,1.7608,1.9228,1.8264,1.8033,1.7993,1.8096,1.6944,1.5876,1.5613,1.4512,1.3897,1.4649,1.6495,1.7809,1.779,1.8486,1.922,1.9762,1.9282,1.9155,1.9723,2.05,2.0991,2.0991,2.204,2.2848,2.3165,2.3522,2.3921,2.4409,2.4284,2.4247,2.432,2.3821,2.3437,2.3189,2.2873,2.2563,2.231,2.231,2.2453,2.2695,2.2797,2.3141,2.3732,2.3994,2.4249,2.4595,2.5628,2.6725,2.7902,2.949,3.1386,3.3199,0.0,0.0,0.0,0.0,0.0,0.0,0.0,0.0,0.0,0.0,0.0,0.0,0.0,0.0,0.0,0.0,0.0,0.0,0.0,2.8151,2.8714,2.9275,2.7009,2.5605,2.5453,2.4761,2.5136,2.6471,2.5951,2.5578,2.5342,2.3722,2.1862,1.9907,1.9812,1.7866,1.4569,1.5416,1.4955,1.36,1.3578,0.0,0.0,0.0,0.0,0.0,0.0,0.0,0.0,0.0,0.0,0.0,0.0,0.0,1.8086,1.8477,1.832,1.788,1.733,1.7506,1.7278,1.4937,1.5263,1.6296,1.699,1.6645,1.6286,1.6624,1.6308,1.5725,1.48,1.3776,1.3437,1.4692,1.5802,1.6928,1.8078,1.866,1.923,1.9716,1.9266,1.91,1.9646,2.0492,2.0991,2.0991,2.204,2.2848,2.3165,2.3522,2.3858,2.4209,2.4209,2.4074,2.3756,2.3414,2.3212,2.3189,2.2873,2.2563,2.231,2.231,2.2453,2.2721,2.3021,2.3369,2.3768,2.4839,2.5291,2.5496,2.7231,2.9172,3.0978,3.1127,3.2436,3.4103,0.0,0.0,0.0,0.0,0.0,0.0,0.0,0.0,0.0,0.0,0.0,0.0,0.0,0.0,0.0,0.0,0.0,0.0,0.0,2.6516,2.6749,2.6919,2.5625,2.4646,2.4044,2.425,2.4657,2.518,2.4915,2.5134,2.5837,2.3619,2.1825,2.0437,1.9974,1.7809,1.4566,1.5824,1.5312,1.3738,1.4378,0.0,0.0,0.0,0.0,0.0,0.0,0.0,0.0,0.0,1.8008,1.8008,1.8008,1.8008,1.8037,1.8193,1.7703,1.6968,1.6192,1.5873,1.5402,1.3722,1.386,1.4764,1.5978,1.6381,1.6452,1.6591,1.5968,1.5104,1.4091,1.4361,1.4923,1.5373,1.666,1.7689,1.7997,1.8588,1.909,1.9264,1.9054,1.9127,1.9669,2.0476,2.0991,2.0991,2.204,0.0,2.3165,2.3522,2.3837,2.419,2.419,2.4036,2.3692,2.3369,2.3093,2.2898,2.259,2.2415,2.231,2.231,2.2571,2.3021,2.3141,2.3791,2.4803,2.5234,2.5676,2.6342,2.818,2.9885,3.1382,3.1917,3.3006,3.4199,0.0,0.0,0.0,0.0,0.0,0.0,0.0,0.0,0.0,0.0,0.0,0.0,0.0,0.0,0.0,0.0,0.0,0.0,2.4844,2.4777,2.4917,2.5435,2.4426,2.3815,2.3589,2.3883,2.4092,2.4368,2.4309,2.478,2.5548,2.3242,2.1738,2.0868,1.9693,1.7635,1.5122,1.6131,1.5718,1.4317,1.4999,1.4807,0.0,0.0,0.0,0.0,0.0,0.0,0.0,0.0,1.8008,1.8008,1.8008,1.8008,1.794,1.7725,1.7148,1.6349,1.5092,1.4347,1.3682,1.2995,1.2883,1.3451,1.4999,1.5681,1.606,1.6268,1.5736,1.5134,1.4402,1.5205,1.589,1.5718,1.7017,1.7957,1.7583,1.8238,1.8783,1.8945,1.8764,1.8983,1.9806,2.0562,2.1055,2.1181,2.2141,0.0,0.0,2.3522,2.3837,2.419,2.4094,2.3876,2.3544,2.3212,2.2873,2.2573,2.2388,2.231,2.231,2.2388,2.2721,2.3212,2.3323,2.4125,2.5421,2.5658,2.6602,2.7996,2.938,3.0804,3.2165,3.2851,3.3738,3.4603,0.0,0.0,0.0,0.0,0.0,0.0,0.0,0.0,0.0,0.0,0.0,0.0,0.0,0.0,0.0,0.0,0.0,0.0,2.355,2.3009,2.3529,2.5365,2.3603,2.3133,2.4266,2.3543,2.3484,2.4305,2.4292,2.4292,2.4292,2.2665,2.1632,2.1086,1.8869,1.7291,1.6246,1.6457,1.6218,1.5593,1.5312,1.5171,1.4958,0.0,0.0,0.0,0.0,0.0,0.0,0.0,1.8008,1.8008,1.8008,1.8008,1.7794,1.7019,1.6655,1.614,1.4371,1.3055,1.2318,1.2665,1.2264,1.2207,1.4064,1.4522,1.4683,1.5264,1.5609,1.5815,1.5916,1.5989,1.5988,1.5488,1.6631,1.7399,1.6908,1.7613,1.8369,1.8821,1.8425,1.8698,2.0162,2.0715,2.115,2.1552,0.0,0.0,0.0,2.3522,2.3837,2.417,2.3876,2.3544,2.3189,2.2873,2.2563,2.231,2.231,2.231,2.231,2.259,2.2898,2.323,2.3562,2.4369,2.5495,2.63,2.8199,3.0626,3.0923,3.2158,3.384,3.4112,3.4757,3.5493,0.0,0.0,0.0,0.0,0.0,0.0,0.0,0.0,0.0,0.0,0.0,0.0,0.0,0.0,0.0,0.0,0.0,0.0,2.1708,2.1874,2.2207,2.2712,2.2552,2.3023,2.4266,2.4553,2.4767,2.484,2.3901,2.3914,2.484,2.3095,2.1969,2.1241,1.9216,1.7254,1.5532,1.561,1.5225,1.4672,1.5219,1.5176,1.4781,0.0,0.0,0.0,0.0,0.0,0.0,0.0,0.0,0.0,1.8008,1.7569,1.6936,1.6446,1.4985,1.3489,1.3454,1.2716,1.2064,1.2883,1.3356,1.3906,1.4635,1.4669,1.4737,1.5675,1.5748,1.5905,1.6528,1.6562,1.6747,1.7318,1.7181,1.7213,1.77,1.8021,1.8249,1.833,1.8531,1.9089,2.0196,2.0715,2.115,0.0,0.0,0.0,0.0,2.3522,2.3753,2.3855,2.3735,2.3414,2.2848,2.2746,2.2563,2.231,2.231,2.231,2.2327,2.3202,2.378,2.4087,2.5008,2.6027,2.7181,2.8576,2.9714,3.0716,3.192,3.2977,3.3865,3.4579,3.5124,3.5493,0.0,0.0,0.0,0.0,0.0,0.0,0.0,0.0,0.0,0.0,0.0,0.0,0.0,0.0,0.0,0.0,0.0,0.0,0.0,2.0806,2.105,2.1212,2.174,2.276,2.4266,2.4966,2.5141,2.4807,2.3994,2.3829,2.4283,2.257,2.1587,2.1174,1.8516,1.6713,1.5576,1.5009,1.4638,1.4418,1.4875,1.5098,1.5211,0.0,0.0,0.0,0.0,0.0,0.0,0.0,0.0,0.0,1.7579,1.6766,1.5817,1.4745,1.3023,1.1525,1.1637,1.0959,1.069,1.2382,1.3076,1.3647,1.4738,1.4917,1.5232,1.642,1.6301,1.6221,1.725,1.7007,1.6947,1.7718,1.7269,1.7037,1.7654,1.7996,1.8198,1.8095,1.8574,1.9346,2.0483,2.0829,2.1244,0.0,0.0,0.0,0.0,2.3522,2.3692,2.3692,2.3566,2.3236,2.2721,2.2599,2.2463,2.231,2.2598,2.275,2.2779,2.3727,2.4476,2.5135,2.6294,2.7177,2.7915,2.9531,3.0494,3.1061,3.246,3.3458,3.4223,3.488,3.5273,3.5565,0.0,0.0,0.0,0.0,0.0,0.0,0.0,0.0,0.0,0.0,2.3565,0.0,0.0,0.0,0.0,0.0,0.0,0.0,0.0,1.9733,1.9933,2.0583,2.1395,2.2704,2.4527,2.4978,2.5023,2.4474,2.4376,2.3884,2.3078,2.14,2.0817,2.0885,1.7233,1.5799,1.5926,1.4622,1.416,1.4425,1.4131,1.4872,1.5959,1.4803,0.0,0.0,0.0,0.0,0.0,0.0,0.0,0.0,1.6853,1.5817,1.4434,1.2431,1.1081,1.0075,0.9316,0.8549,0.8689,1.1601,1.2148,1.2403,1.4533,1.5255,1.5861,1.7302,1.7082,1.6877,1.7856,1.7399,1.6884,1.7256,1.7015,1.6928,1.7179,1.7784,1.8173,1.8095,1.8612,1.9492,2.0862,2.0991,0.0,0.0,0.0,0.0,0.0,2.3437,2.361,2.361,2.3305,2.2996,2.2686,2.2426,2.231,2.231,2.2987,2.3388,2.3583,2.4287,2.526,2.6421,2.7478,2.7915,2.8026,2.9641,3.0742,3.1526,3.2651,3.3746,3.4753,3.5075,3.5331,3.5641,0.0,0.0,0.0,0.0,0.0,0.0,0.0,0.0,0.0,0.0,0.0,0.0,0.0,0.0,0.0,0.0,0.0,0.0,0.0,1.8448,1.8858,1.977,2.29,2.5184,2.6558,2.6358,2.6106,2.5931,2.4851,2.3884,2.3078,2.1684,2.0698,1.9797,1.7018,1.5372,1.4539,1.3259,1.2859,1.3209,1.3147,1.3823,1.4988,1.5245,1.6001,0.0,0.0,0.0,0.0,0.0,0.0,0.0,1.6636,1.4893,1.2666,1.2019,1.0149,0.8505,0.9101,0.8679,0.8926,1.2076,1.3731,1.4733,1.5206,1.5686,1.6201,1.7137,1.7431,1.7647,1.8322,1.7961,1.7645,1.7999,1.7486,1.7239,1.7858,1.807,1.8138,1.812,1.8968,1.9929,2.0894,2.0991,0.0,0.0,0.0,0.0,2.2797,2.2873,2.2923,2.2923,2.2848,2.2678,2.2388,2.2321,2.231,0.0,2.2462,2.3295,2.4769,2.5807,2.7043,2.8393,2.8645,2.8741,2.8888,3.0485,3.1237,3.1581,3.3282,3.4252,3.481,3.5702,3.5809,3.5718,0.0,0.0,0.0,0.0,0.0,0.0,0.0,0.0,0.0,0.0,0.0,0.0,0.0,0.0,0.0,0.0,0.0,0.0,0.0,0.0,1.901,2.0471,2.3568,2.5418,2.5815,2.5897,2.5772,2.5412,2.4363,2.3412,2.2519,2.1429,2.0466,1.9634,1.6893,1.5405,1.4879,1.3241,1.2605,1.2822,1.3272,1.4204,1.5433,1.6062,1.6883,1.7787,1.7948,0.0,0.0,0.0,0.0,0.0,0.0,0.0,1.2051,1.1478,0.9628,0.8069,0.9295,0.9114,0.9366,1.2659,1.4433,1.5357,1.5217,1.5922,1.6684,1.6983,1.7415,1.777,1.7977,1.787,1.7877,1.8231,1.8108,1.8203,1.8939,1.8981,1.8962,1.8962,1.9397,2.005,2.091,0.0,0.0,0.0,0.0,2.2426,2.2695,2.2695,2.2695,2.2695,2.2695,2.2573,2.231,2.231,2.231,2.231,2.3021,2.4442,2.6472,2.721,2.8084,2.8994,2.8994,2.8994,2.9085,3.032,3.1035,3.1538,3.2908,3.4195,3.5358,3.5913,3.6358,3.6892,0.0,0.0,0.0,0.0,0.0,0.0,0.0,0.0,0.0,0.0,0.0,0.0,0.0,0.0,0.0,0.0,0.0,0.0,0.0,0.0,0.0,2.1581,2.3781,2.4873,2.4596,2.4908,2.484,2.4437,2.352,2.2647,2.1745,2.0955,2.0215,1.9353,1.6722,1.5454,1.5263,1.345,1.2817,1.3044,1.3783,1.4973,1.6304,1.6756,1.7589,1.8486,1.8135,1.7862,1.7647,1.6853,0.0,0.0,0.0,0.0,1.1797,1.1001,0.9513,0.8322,0.9502,0.9793,1.0322,1.3046,1.4502,1.5184,1.4937,1.6015,1.6975,1.6678,1.7197,1.7694,1.7644,1.7748,1.8002,1.8328,1.8787,1.931,1.9925,1.9934,1.9886,1.9886,1.9782,2.005,2.091,0.0,0.0,0.0,0.0,2.2466,2.2798,2.2703,2.2703,2.2824,2.2703,2.251,2.231,2.231,2.2361,2.2513,2.4058,2.5841,2.7731,2.8192,2.8633,2.8994,2.8994,2.8994,2.9067,3.0026,3.0797,3.1519,3.2482,3.4102,3.5924,3.6116,3.6954,3.8142,0.0,0.0,0.0,0.0,0.0,0.0,0.0,0.0,0.0,0.0,2.1932,2.2183,0.0,0.0,0.0,0.0,0.0,0.0,1.6332,0.0,0.0,2.2113,2.3612,2.4833,2.5818,2.4394,2.4103,2.511,2.2871,2.1618,2.1261,2.0846,1.9521,1.7587,1.5982,1.4638,1.3491,1.2729,1.2868,1.3594,1.374,1.4896,1.6571,1.6666,1.7222,1.8086,1.8037,1.7501,1.6784,1.6636,1.5508,0.0,0.0,0.0,1.0926,1.0858,0.9965,0.9163,0.9587,1.0921,1.2314,1.2939,1.3842,1.4623,1.4583,1.5665,1.6669,1.6146,1.7099,1.8066,1.8281,1.8259,1.8305,1.8581,1.9334,1.9877,1.9985,1.9934,1.9886,1.9886,1.9782,2.005,2.091,0.0,0.0,0.0,2.231,2.2581,2.3277,2.2717,2.2666,2.3294,2.27,2.2349,2.231,2.231,2.2632,2.3274,2.5107,2.6301,2.6996,2.7958,2.8633,2.8994,2.8994,2.8994,2.9104,3.0613,3.1292,3.1581,3.3308,3.4753,3.602,3.7015,3.7647,3.8219,0.0,0.0,0.0,0.0,0.0,0.0,0.0,0.0,0.0,0.0,0.0,2.0607,0.0,0.0,0.0,1.688,1.6607,1.6627,1.6961,1.8861,2.0516,2.182,2.3093,2.3856,2.3966,2.3306,2.2812,2.2498,2.1099,2.0217,1.9717,1.9846,1.918,1.7774,1.6215,1.5016,1.4002,1.277,1.2806,1.3745,1.4307,1.5367,1.6636,1.7207,1.7647,1.794,1.7432,1.6922,1.6419,1.5367,1.4378,1.36,1.3098,0.0,0.0,0.0,1.097,1.0379,1.0991,1.214,1.3303,1.3976,1.467,1.5227,1.5397,1.6577,1.7458,1.7003,1.7901,1.8563,1.8165,1.8419,1.8633,1.8684,1.9661,2.0558,2.0901,2.0595,2.0472,2.0877,2.0495,2.063,2.1534,0.0,0.0,0.0,2.3528,2.3663,2.3985,2.3697,2.3663,2.4002,2.3291,2.3105,2.3528,2.3122,2.3595,2.4974,2.5806,2.6964,2.838,2.8378,2.8633,2.9012,2.9494,2.9677,2.9769,3.0907,3.1659,3.2162,3.2969,3.4381,3.5962,3.6462,3.7523,3.8834,0.0,0.0,0.0,0.0,0.0,0.0,0.0,0.0,0.0,0.0,0.0,0.0,0.0,0.0,0.0,0.0,1.6681,1.7074,1.7625,1.9045,2.0269,2.1267,2.233,2.257,2.1853,2.1839,2.1267,2.0134,1.9547,1.912,1.8784,1.9065,1.8764,1.7854,1.6488,1.5304,1.4307,1.3229,1.3286,1.4279,1.5026,1.5992,1.7051,1.761,1.7775,1.7569,1.6853,1.628,1.5649,1.4163,1.3528,1.3237,1.2519,1.2305,0.0,0.0,0.0,1.1456,1.2192,1.2959,1.3694,1.4355,1.5064,1.5636,1.5799,1.6949,1.7934,1.7746,1.8545,1.9123,1.8426,1.8731,1.9137,1.921,2.0118,2.1028,2.1615,2.1248,2.1206,2.1853,2.1365,2.1332,2.2253,0.0,0.0,0.0,2.4506,2.4591,2.4763,2.4608,2.4608,2.4763,2.4052,2.3934,2.4506,2.4137,2.4645,2.6044,2.6648,2.7829,2.9467,2.9248,2.9325,2.9641,3.0026,3.021,3.0283,3.1292,3.2063,3.2632,3.2834,3.421,3.612,3.6184,3.7623,3.9522,0.0,0.0,0.0,0.0,0.0,0.0,0.0,0.0,0.0,0.0,0.0,0.0,1.98,1.9296,1.8252,1.6562,1.6837,1.7319,1.784,1.9605,2.0677,2.0756,2.1285,0.0,2.0529,2.0001,1.9639,1.9372,1.8677,1.8704,1.9267,1.9156,1.8312,1.6756,1.6368,1.5081,1.3344,1.3841,1.4649,1.5536,1.5748,1.6717,1.7891,1.7568,1.7101,1.6636,1.6636,1.5438,1.381,1.3745,1.3091,1.2372,1.2298,1.2305,1.2305,0.0,0.0,0.0,1.2649,1.3019,1.324,1.3293,1.4184,1.5167,1.5343,1.6209,1.7197,1.7629,1.8545,1.9413,1.9669,1.9645,1.978,2.0453,2.072,2.1028,2.1615,2.1688,2.1902,2.2581,2.2039,2.2034,2.2948,0.0,0.0,0.0,2.4506,2.4797,2.5507,2.4864,2.4814,2.5524,2.4814,2.4472,2.4506,2.5152,2.5524,2.5658,2.7892,2.9018,2.9165,3.061,3.1274,3.1219,3.0503,3.021,3.032,3.1898,3.2577,3.2687,3.344,3.4929,3.6702,3.7027,3.8381,4.0101,0.0,0.0,0.0,0.0,0.0,0.0,0.0,0.0,0.0,0.0,0.0,0.0,0.0,1.9334,1.8289,1.6546,1.6065,1.6582,1.8329,1.9064,1.9773,2.0652,2.0446,2.0157,1.9865,1.9226,1.843,1.7496,1.7266,1.7287,1.762,1.7205,1.66,1.5741,1.5914,1.4896,1.318,1.3051,1.391,1.5312,1.5085,1.5716,1.6768,1.63,1.5855,1.5291,1.4678,1.4128,1.36,1.3025,1.2592,1.2305,1.2305,1.2305,1.2305,1.2305,1.2305,1.2365,1.2741,1.2685,1.2864,1.3867,1.4804,1.5775,1.6623,1.7692,1.8427,1.8303,1.9469,2.0512,2.0348,2.0384,2.0538,2.0657,2.1043,2.1406,2.1657,2.1716,2.1946,2.2626,2.2473,2.272,2.3686,0.0,0.0,0.0,0.0,2.6015,2.6285,2.6048,2.6015,2.6302,2.5592,2.5203,2.5203,2.593,2.6578,2.7086,2.8447,2.9615,3.0576,3.1137,3.1678,3.2155,3.188,3.1751,3.1843,3.2926,3.3366,3.3458,3.4266,3.5124,3.6037,3.6832,3.8036,3.9299,0.0,0.0,0.0,0.0,0.0,0.0,0.0,0.0,0.0,1.8918,0.0,0.0,0.0,0.0,1.8646,1.7039,1.6,1.6199,1.7931,1.8235,1.879,1.9842,1.9412,1.9089,1.9023,1.8358,1.7492,1.6376,1.6376,1.6277,1.6065,1.5926,1.5497,1.4681,1.4977,1.4321,1.3026,1.2996,1.369,1.4864,1.4478,1.4993,1.5894,1.5375,1.4976,1.4577,1.3841,1.3513,1.3314,1.2553,1.2305,1.2305,1.2305,1.2305,1.2372,1.2666,1.2732,1.2921,1.3422,1.3548,1.3637,1.4744,1.5575,1.6461,1.7537,1.8319,1.8818,1.8672,1.9855,2.0906,2.0646,2.1198,2.1604,2.1312,2.1469,2.1792,2.2275,2.2168,2.2338,2.321,2.3325,2.3651,2.4473,0.0,0.0,0.0,0.0,0.0,2.6691,2.6691,2.6691,2.6691,2.6218,2.5981,2.5981,2.6708,2.7413,2.8129,2.9283,3.0478,3.1634,3.2012,3.2504,3.2999,3.2999,3.2852,3.2669,3.3476,3.3807,3.3844,3.4394,3.5081,3.588,3.6672,3.7785,3.8963,0.0,0.0,0.0,0.0,0.0,0.0,0.0,0.0,1.7854,1.856,0.0,0.0,0.0,0.0,0.0,1.8076,1.6716,1.6202,1.6802,1.7355,1.7835,1.8315,1.8291,1.8152,1.778,1.7353,1.6837,1.6064,1.6055,1.5609,1.4889,1.551,1.5051,1.3658,1.3585,1.3255,1.2726,1.3697,1.4156,1.4149,1.3997,1.4596,1.5373,1.4673,1.4488,1.4488,1.4253,1.3547,1.2768,1.2398,1.2311,1.2318,1.2318,1.2318,1.2532,1.3462,1.3745,1.3954,0.0,0.0,0.0,1.5748,1.6422,1.7126,1.7732,1.7958,1.8135,1.8535,1.9681,2.0602,2.0655,2.199,2.2902,2.2422,2.1931,2.2112,2.3417,2.3102,2.3225,2.4477,2.4657,2.4798,2.5233,0.0,0.0,0.0,2.6759,2.6759,2.6759,2.6759,2.6759,2.6759,2.6759,2.6759,2.6759,2.7486,2.8101,2.8563,3.0497,3.1678,3.2151,3.3287,3.3807,3.3807,3.3807,3.3366,3.2706,3.3476,3.3807,3.3807,3.3844,3.4871,3.6342,3.6668,3.7765,3.9152,0.0,0.0,0.0,0.0,0.0,0.0,2.0257,1.9723,1.9504,0.0,0.0,0.0,2.0451,1.9114,1.8433,1.8939,1.7166,1.6688,1.8231,1.7975,1.8056,1.8711,1.8197,1.7899,1.7791,1.688,1.6045,1.5241,1.4884,1.4459,1.3924,1.3469,1.2871,1.2281,1.1585,1.0948,1.0301,1.1346,1.2192,1.2845,1.1773,1.2025,1.2952,1.2423,1.2393,1.2649,1.2566,1.2458,1.2412,1.2331,1.2445,1.2625,1.2625,1.3147,1.3688,1.3667,1.4243,1.4879,1.5092,0.0,0.0,0.0,0.0,0.0,1.7764,1.8199,1.8537,1.9002,2.0103,2.1136,2.1498,2.2372,2.3027,2.2924,2.3283,2.3603,2.3578,2.4307,2.4936,2.5269,2.5712,2.6165,0.0,0.0,0.0,0.0,2.8349,2.8349,2.8349,2.8349,2.8349,2.8349,2.8349,2.8349,2.8349,2.8836,2.931,2.9744,3.1213,3.2097,3.2482,3.3386,3.3807,3.3807,3.3807,3.3678,3.3495,3.3715,3.3807,3.3917,3.5128,3.5881,3.647,3.7931,3.8707,3.9152,0.0,0.0,0.0,0.0,0.0,2.1129,2.0597,2.0267,2.02,0.0,0.0,0.0,2.0545,1.9167,1.8361,1.8699,1.7274,1.6717,1.7669,1.7327,1.7359,1.7964,1.7564,1.7498,1.7873,1.708,1.6128,1.5178,1.4716,1.3935,1.2806,1.2047,1.1443,1.1,1.0205,0.9674,0.9306,0.9535,1.0242,1.1089,1.0054,1.031,1.1266,1.1285,1.1596,1.2132,1.2494,1.2719,1.2846,1.2726,1.2792,0.0,1.3383,1.3957,1.4554,1.5241,1.5836,1.6416,1.6785,1.6929,1.7108,1.7784,0.0,0.0,1.8395,1.8594,1.8715,1.9204,2.0161,2.1122,2.18,2.2567,2.3078,2.3078,2.3817,2.4354,2.4336,2.509,2.5704,2.5989,2.6566,2.7011,0.0,2.8103,2.8699,2.8991,2.9011,2.9011,2.9011,2.9011,2.9011,2.9011,2.9011,2.9011,2.9011,2.9535,3.0126,3.0725,3.1773,3.2557,3.3128,3.3587,3.3807,3.3807,3.3807,3.3807,3.3825,3.4174,3.41,3.3935,3.5257,3.5973,3.646,3.7904,3.8637,3.8961,0.0,0.0,2.2588,2.2004,2.1246,2.0667,2.0544,2.0331,2.03,0.0,2.0966,2.1009,2.0394,1.9474,1.8527,1.7729,1.6953,1.6354,1.5975,1.5946,1.6119,1.645,1.6469,1.6843,1.7706,1.7312,1.6506,1.5254,1.4871,1.3618,1.1563,1.105,1.0392,0.9572,0.9083,0.8936,0.8932,0.8125,0.8361,0.9115,0.8779,0.9257,1.0242,1.0891,1.1601,1.2469,1.3263,1.3594,1.3561,1.3333,1.3233,0.0,0.0,0.0,0.0,0.0,1.7823,1.8175,1.9049,1.9287,1.9375,1.9746,1.9561,0.0,1.9287,1.9095,1.9054,1.941,2.026,2.1111,2.1901,2.2628,2.309,2.3165,2.387,2.4647,2.53,2.5568,2.5938,2.6632,2.7302,2.768,2.754,2.8682,2.9353,2.9262,2.9228,2.9228,2.9228,2.9228,2.9228,2.9228,2.9228,2.9228,2.9228,2.9963,3.0695,3.1441,3.2148,3.2934,3.3734,3.3734,3.3762,3.3807,3.3807,3.3844,3.399,3.4697,3.4596,3.4027,3.4945,3.5752,3.6523,3.7331,3.8083,3.8707,0.0,2.2961,2.3054,2.2147,2.1839,2.1352,2.0198,2.0573,2.1119,2.1618,2.1707,2.1608,2.1111,1.8859,1.7236,1.6747,1.5954,1.5352,1.4966,1.4941,1.5042,1.5119,1.5119,1.5266,1.572,1.5291,1.4662,1.3707,1.3305,1.2157,1.027,1.0182,0.9292,0.7792,0.7686,0.7376,0.688,0.6803,0.6944,0.7122,0.7244,0.848,1.0188,1.0352,1.1525,1.3039,1.3234,1.3293,1.332,1.35,1.3407,1.324,0.0,0.0,0.0,1.6296,0.0,0.0,0.0,0.0,0.0,0.0,0.0,0.0,1.9287,2.0121,2.0852,2.0817,2.1886,2.2787,2.285,2.3005,2.3288,2.3753,2.4464,2.5042,2.5355,2.5909,2.6608,2.7315,2.8389,0.0,2.9006,3.0079,3.0785,3.0768,3.0768,3.0768,3.0768,3.0768,3.0768,3.0768,3.0768,3.0768,3.0768,3.1216,3.1545,3.1742,3.2228,3.2777,3.3302,3.3302,3.3494,3.3807,3.3807,3.4174,3.477,3.4935,3.4899,3.4926,3.6413,3.711,3.7349,3.8175,3.8579,3.8707,2.1417,2.1891,2.197,2.168,2.1565,2.1348,2.0683,2.1375,2.186,2.1657,2.1173,2.0391,1.9291,1.7252,1.548,1.4324,1.3889,1.3491,1.3093,1.3585,1.3797,1.3632,1.4231,1.4783,1.5226,1.4981,1.4175,1.2756,1.2452,1.1177,0.9174,0.8689,0.8042,0.7215,0.6888,0.6638,0.6281,0.6576,0.6742,0.6807,0.6814,0.7528,0.8692,0.9863,1.095,1.2046,1.3225,1.3647,1.3647,1.3647,1.3647,0.0,1.4272,1.5336,1.6627,0.0,1.8522,1.9648,0.0,0.0,0.0,1.9922,0.0,0.0,0.0,2.0907,2.1589,2.224,2.2901,2.3544,2.3879,2.3753,2.3753,2.4318,2.458,2.4949,2.5684,2.6452,2.7055,2.7554,2.84,0.0,2.9361,3.0208,3.0878,3.119,3.119,3.119,3.119,3.119,3.119,3.119,3.119,3.119,3.119,3.1411,3.1603,3.1825,3.2282,3.2745,3.3214,3.3408,3.3606,3.3825,3.4229,3.4633,3.5045,3.5899,3.6248,3.634,3.7165,3.7507,3.7588,3.8395,3.8707,3.8762,1.983,2.0001,2.0115,2.0716,2.0841,2.0951,2.1033,2.1777,2.1994,2.1081,2.0267,1.8863,1.6515,1.5089,1.3237,1.0795,1.0816,1.0674,1.0013,1.1172,1.1805,1.1573,1.2937,1.3909,1.4332,1.4324,1.3548,1.1937,1.1493,1.0265,0.8246,0.7538,0.6985,0.666,0.6388,0.6227,0.6089,0.6689,0.6993,0.7085,0.6902,0.7004,0.7567,0.9658,1.0686,1.1278,1.3319,1.4088,1.4055,1.3874,1.3935,1.423,1.4986,1.6118,0.0,0.0,0.0,0.0,0.0,0.0,0.0,0.0,0.0,2.1198,0.0,0.0,0.0,2.3438,2.379,2.411,2.4703,2.4456,2.4305,2.4745,0.0,0.0,0.0,2.6962,0.0,2.7599,2.814,0.0,2.937,3.0085,3.0764,3.1395,3.1436,3.1436,3.1436,3.1533,3.1613,3.1613,3.1478,3.1478,3.1613,3.1326,3.1564,3.2258,3.2249,3.2743,3.3665,3.3738,3.3963,3.4321,3.4981,3.532,3.5605,3.6927,3.7569,3.7716,3.7716,3.7716,3.7808,3.8469,3.8799,3.9019,1.7515,1.7658,1.7997,1.91,1.956,2.0003,2.0615,2.079,2.0661,2.0033,1.9781,1.8067,1.4073,1.2625,1.0029,0.5416,0.6141,0.6234,0.4696,0.6731,0.7852,0.7719,0.9723,1.0916,1.1103,1.1254,1.1224,1.0926,1.0013,0.9015,0.7867,0.7795,0.6721,0.5031,0.5905,0.591,0.5304,0.6386,0.6939,0.6973,0.7204,0.8015,0.9142,1.0324,1.142,1.2476,1.3651,1.4088,1.4122,0.0,1.4269,1.4168,0.0,1.5866,1.6883,1.7714,0.0,0.0,0.0,0.0,0.0,0.0,2.213,0.0,0.0,0.0,2.5073,2.4257,0.0,2.5228,2.4843,0.0,0.0,0.0,0.0,0.0,2.6274,2.7343,2.8057,2.7658,2.814,0.0,0.0,3.056,3.1546,3.222,3.2265,3.2265,3.2265,3.284,3.3152,3.3152,3.251,3.2476,3.3152,3.185,3.211,3.3925,3.2175,3.2735,3.5291,3.4232,3.4528,3.6009,3.6101,3.656,3.7221,3.7434,3.7918,3.856,3.856,3.856,3.8579,3.867,3.9148,3.9772,1.7033,1.7342,1.7571,1.828,1.8525,1.8742,1.9074,1.9048,1.8816,1.839,1.7171,1.4845,1.0717,0.8525,0.5423,0.0515,0.1346,0.1572,0.0164,0.2961,0.4924,0.5421,0.7626,0.9155,0.9943,0.9911,0.9732,0.9324,0.8746,0.7936,0.6949,0.6329,0.5483,0.4604,0.5322,0.5358,0.5106,0.6543,0.7238,0.7336,0.7543,0.7946,0.8528,0.9332,1.084,1.2567,1.3691,1.4088,1.4108,0.0,1.4302,0.0,0.0,0.0,0.0,1.8594,0.0,0.0,0.0,0.0,0.0,0.0,0.0,0.0,2.3698,0.0,2.6212,0.0,0.0,0.0,0.0,0.0,0.0,0.0,2.6489,0.0,0.0,0.0,2.7809,0.0,0.0,0.0,0.0,0.0,0.0,0.0,3.1602,3.1825,3.1825,3.284,3.3406,3.3406,3.3102,3.3085,3.3406,3.2797,3.2904,3.3744,3.3151,3.3523,3.4729,3.4741,3.5159,3.5872,3.6673,3.7184,3.7533,3.7991,3.8395,3.8707,3.8707,3.8707,3.8762,3.9221,3.9606,4.0029,1.5196,1.6003,1.6605,1.7266,1.7398,1.7448,1.7598,1.7318,1.6833,1.6339,1.4601,1.1657,0.6903,0.4404,0.0975,-0.43,-0.3539,-0.3143,-0.3974,-0.0925,0.1555,0.2853,0.5439,0.7356,0.8494,0.8779,0.8663,0.806,0.7663,0.7087,0.6322,0.5577,0.5036,0.4671,0.5333,0.5456,0.5224,0.6837,0.7519,0.7665,0.777,0.7763,0.7841,0.8939,1.084,1.2936,1.3822,1.4088,1.4095,1.4175,1.4349,0.0,1.5602,0.0,1.8387,0.0,0.0,0.0,2.1855,0.0,0.0,0.0,0.0,0.0,0.0,0.0,0.0,0.0,0.0,0.0,0.0,0.0,0.0,0.0,0.0,2.7318,0.0,2.8351,0.0,0.0,0.0,0.0,0.0,0.0,0.0,0.0,0.0,3.1806,3.1957,3.3259,3.4015,3.4015,3.3812,3.3812,3.4015,3.3609,3.3693,3.4235,3.4014,3.4254,3.4948,3.5297,3.5629,3.6016,3.7139,3.7619,3.7674,3.8389,3.8707,3.8707,3.8707,3.8836,3.9093,3.968,4.0175,4.0708,1.0691,1.2595,1.4496,1.5553,1.5794,1.6009,1.6626,1.5802,1.4764,1.3748,1.2667,0.9425,0.2565,0.0571,-0.2803,-0.9119,-0.8769,-0.7967,-0.7663,-0.5323,-0.2818,-0.0391,0.2904,0.5121,0.6077,0.7374,0.7956,0.7791,0.6946,0.6544,0.6468,0.662,0.6086,0.517,0.6313,0.6444,0.5858,0.7108,0.7675,0.7804,0.7811,0.7641,0.7654,0.0,1.2122,1.4082,1.4088,0.0,0.0,1.4409,1.4509,0.0,0.0,0.0,0.0,0.0,0.0,0.0,0.0,0.0,0.0,2.3857,0.0,0.0,0.0,0.0,2.8662,0.0,0.0,0.0,0.0,0.0,0.0,0.0,0.0,0.0,0.0,0.0,2.9953,0.0,0.0,0.0,0.0,0.0,0.0,0.0,0.0,0.0,3.3409,3.4755,3.5554,3.5554,3.4844,3.481,3.5537,3.4117,3.4396,3.6288,3.4362,3.4726,3.7046,3.5867,3.5976,3.7177,3.7666,3.791,3.7943,3.8496,3.8707,3.8707,3.8707,3.9184,3.9845,3.9882,4.0891,4.2231,0.9456,1.0677,1.1901,1.2225,1.231,1.2413,1.2747,1.194,1.105,1.0573,0.8063,0.4418,-0.0764,-0.3212,-0.6608,-1.2273,-1.1477,-1.0496,-1.0347,-0.7953,-0.5029,-0.1568,0.0264,0.2252,0.4214,0.5358,0.5927,0.5885,0.6348,0.6624,0.6627,0.5927,0.5408,0.5107,0.5794,0.5935,0.5779,0.7178,0.7767,0.7907,0.8764,1.0013,1.1436,0.0,0.0,1.1997,1.3561,1.4088,0.0,1.4202,1.4857,1.5755,1.6737,1.8104,1.9503,2.0716,2.1322,0.0,0.0,0.0,2.2242,2.2928,0.0,0.0,0.0,0.0,0.0,0.0,0.0,0.0,0.0,0.0,0.0,0.0,0.0,0.0,0.0,0.0,0.0,2.9909,3.0238,3.0453,0.0,0.0,0.0,0.0,0.0,0.0,0.0,3.46,3.5622,3.5622,3.5368,3.5368,3.5622,3.5131,3.5203,3.5854,3.5186,3.5334,3.6122,3.6056,3.6439,3.7228,3.7685,3.8099,3.8446,3.8627,3.9019,3.9478,3.9478,4.0304,4.1423,4.0891,4.1387,4.2378,0.7665,0.8507,0.9657,1.0438,0.9873,0.9517,0.9999,0.8844,0.7674,0.7045,0.4463,0.0788,-0.4379,-0.6377,-0.9179,-1.3848,-1.2861,-1.1763,-1.1058,-0.9001,-0.6284,-0.2819,-0.1098,0.0719,0.2743,0.4253,0.5004,0.4861,0.626,0.6885,0.6787,0.6198,0.5903,0.5869,0.6128,0.6334,0.6351,0.7379,0.8181,0.8758,1.0578,1.1862,0.0,0.0,1.2957,1.2215,0.0,1.4175,1.4088,1.4088,1.4698,1.565,1.6918,1.8235,1.9578,2.1221,2.165,2.1748,2.2178,2.1982,0.0,2.3329,2.4772,0.0,2.7359,0.0,0.0,0.0,0.0,0.0,0.0,0.0,0.0,0.0,0.0,0.0,0.0,3.0866,0.0,3.0866,3.0866,3.0612,2.9968,0.0,0.0,0.0,0.0,0.0,0.0,0.0,3.547,3.6011,3.5757,3.5757,3.6028,3.5757,3.5622,3.5622,3.5622,3.5622,3.5622,3.5985,3.6291,3.6666,3.7155,3.7542,3.7895,3.8267,3.8889,3.9634,3.9818,4.0873,4.2249,4.1735,4.2047,4.28,0.5179,0.6163,0.758,0.9758,0.8375,0.7299,0.829,0.6502,0.4574,0.3166,0.1817,-0.1536,-0.7878,-0.8832,-1.0418,-1.3916,-1.3169,-1.1807,-0.9953,-0.8549,-0.6541,-0.3859,-0.1368,0.0538,0.1687,0.4126,0.5277,0.4977,0.6634,0.7234,0.6956,0.7238,0.7288,0.7153,0.7461,0.76,0.7617,0.7916,0.8825,1.0288,1.2904,1.3059,1.2194,1.4558,1.5064,1.4563,1.4543,1.4355,1.4108,1.4108,1.4179,1.458,1.6706,1.7689,1.8562,2.0614,2.1269,2.1328,2.1768,2.1553,2.194,2.4941,0.0,0.0,0.0,0.0,2.9792,0.0,0.0,0.0,0.0,0.0,0.0,2.9109,2.978,0.0,0.0,0.0,3.1482,3.1482,3.1482,3.127,3.0567,3.0477,0.0,0.0,0.0,3.1788,0.0,0.0,3.5267,3.6738,3.6096,3.6062,3.6772,3.6045,3.5656,3.5622,3.5622,3.5622,3.5622,3.5622,3.5622,3.565,3.6182,3.6451,3.6591,3.7542,3.8435,3.9263,3.9812,4.0983,4.2359,4.2359,4.2837,4.3497,0.2861,0.3707,0.4393,0.3972,0.4276,0.4278,0.3696,0.2189,0.058,-0.0606,-0.3,-0.5689,-0.854,-0.9697,-1.1032,-1.2837,-1.2612,-1.1615,-1.004,-0.8724,-0.6319,-0.2795,-0.0962,0.105,0.3153,0.4866,0.5662,0.5611,0.6919,0.7444,0.7261,0.7336,0.7288,0.7153,0.7461,0.76,0.7617,0.7916,0.9312,1.1556,1.3199,1.4226,1.4848,0.0,1.5491,1.5144,1.493,1.4656,1.4409,1.4409,1.5339,1.6656,1.7581,1.8971,2.0599,2.1826,2.1738,2.1328,2.1768,2.186,2.2056,2.3243,2.497,2.6706,0.0,0.0,0.0,0.0,0.0,0.0,0.0,0.0,0.0,2.9659,3.051,3.1278,0.0,0.0,0.0,3.1482,3.1482,3.127,3.0567,3.0088,0.0,0.0,0.0,0.0,0.0,0.0,0.0,3.6772,3.7127,3.7144,3.6772,3.6586,3.6197,3.5622,3.5622,3.5622,3.5622,3.5622,3.581,3.6224,3.6333,3.6934,3.7844,3.851,3.9572,4.0853,4.1458,4.2304,4.3185,4.3185,4.3314,4.3497,0.1177,0.101,0.0841,0.0095,0.0094,0.0094,-0.0098,-0.118,-0.2493,-0.3935,-0.5508,-0.7413,-0.9507,-0.9823,-1.0452,-1.1722,-1.1111,-1.0002,-0.8517,-0.7033,-0.4816,-0.1514,0.0,0.1722,0.3638,0.506,0.5685,0.5714,0.6995,0.7519,0.737,0.737,0.7288,0.7153,0.7461,0.76,0.7712,0.9073,1.0583,1.2042,1.398,1.5146,0.0,1.5832,1.5732,1.5565,1.5398,1.507,1.471,1.471,1.5605,1.6969,1.7918,1.9388,2.0945,2.2136,2.2168,2.1807,2.1865,2.2069,2.2471,2.3197,2.4824,2.6533,2.7706,2.8694,2.949,0.0,0.0,0.0,0.0,0.0,0.0,3.0037,0.0,0.0,0.0,0.0,0.0,3.1482,3.1482,0.0,0.0,0.0,0.0,0.0,0.0,0.0,0.0,0.0,0.0,3.7246,3.7686,3.7702,3.728,3.6941,3.64,3.5622,3.5622,3.5622,3.5622,3.5622,3.597,3.6568,3.6568,3.7154,3.8148,3.8682,3.9765,4.122,4.2375,4.3094,4.3497,4.3497,4.3497,4.3497,-0.0463,-0.1594,-0.248,-0.2626,-0.3723,-0.425,-0.3417,-0.389,-0.49,-0.6579,-0.6805,-0.7741,-1.0325,-0.9614,-0.9406,-1.049,-0.9286,-0.7881,-0.6382,-0.4861,-0.2765,-0.0095,0.1334,0.2718,0.4053,0.5225,0.5836,0.5852,0.7073,0.7533,0.74,0.74,0.7319,0.7183,0.7489,0.7732,0.8048,1.0729,1.2042,1.2334,1.4854,1.5832,1.5832,1.5832,1.5832,1.5832,1.5832,1.5478,1.5113,1.5197,1.576,1.6644,1.828,1.9512,2.08,2.2196,2.2559,2.2432,2.2227,2.2522,2.3206,2.4332,2.5319,2.6565,2.845,2.8988,2.9189,2.9691,2.9792,2.9465,0.0,0.0,0.0,3.0297,0.0,0.0,0.0,0.0,3.1511,3.1601,0.0,0.0,0.0,0.0,0.0,0.0,0.0,0.0,0.0,0.0,0.0,3.7807,3.8091,0.0,3.8058,0.0,3.6637,3.5774,3.5774,3.5723,3.5622,3.5622,3.6045,3.6772,3.6772,3.7263,3.8089,3.8573,3.9573,4.1019,4.2723,4.341,4.341,4.3479,4.3497,4.3497,-0.3289,-0.3491,-0.4008,-0.5176,-0.5665,-0.6269,-0.7324,-0.6736,-0.669,-0.811,-0.8362,-0.8673,-0.9223,-0.903,-0.8934,-0.8962,-0.8706,-0.7843,-0.6171,-0.4728,-0.2381,0.1258,0.2719,0.4522,0.6861,0.7169,0.7331,0.0,0.0,0.7587,0.756,0.756,0.7478,0.7346,0.7641,0.8419,0.9714,1.1234,0.0,1.3686,1.5146,1.5832,1.5832,1.5832,1.5832,1.5832,1.5832,1.5611,1.5494,1.6461,1.7297,1.8296,1.9964,2.1237,2.2215,2.2814,2.2783,2.266,2.3546,2.3859,2.4279,2.5826,2.693,2.7902,2.87,2.9302,2.9666,2.9779,2.9792,2.9591,2.8913,0.0,0.0,0.0,0.0,0.0,0.0,0.0,0.0,3.2273,0.0,3.1482,0.0,0.0,0.0,0.0,0.0,0.0,0.0,0.0,0.0,0.0,3.9073,0.0,0.0,0.0,3.7922,3.6569,3.6569,3.6231,3.5622,3.5622,3.6045,3.6772,3.6772,3.755,3.8851,3.9348,4.0377,4.17,4.2505,4.2826,4.2902,4.3339,4.3497,4.3497,-0.5081,-0.5613,-0.6283,-0.7012,-0.7346,-0.7685,-0.8468,-0.8294,-0.8141,-0.8612,-0.8774,-0.8821,-0.8821,-0.8893,-0.8849,-0.8621,-0.8526,-0.7547,-0.5207,-0.4442,-0.2287,0.166,0.2445,0.3973,0.6549,0.6482,0.6923,0.7811,0.0,0.0,0.7706,0.7634,0.756,0.7499,0.8467,0.9243,1.0096,0.0,0.0,1.3974,1.5337,1.5832,1.5832,1.5832,1.5832,1.5832,1.5832,1.6108,1.6722,1.7254,1.8369,1.98,2.0799,2.1776,2.2598,2.3018,2.2998,2.2869,2.3217,2.4115,2.5082,2.5612,2.6926,2.8247,2.88,2.9139,2.9428,2.9729,2.9553,2.9089,2.8235,2.828,0.0,0.0,0.0,0.0,0.0,0.0,3.2153,0.0,3.1943,3.1482,0.0,0.0,0.0,0.0,0.0,0.0,0.0,0.0,0.0,0.0,0.0,0.0,0.0,0.0,0.0,3.7364,3.7364,3.7178,3.6806,3.6806,3.7212,3.7922,3.7922,3.8548,3.9596,4.0169,4.0756,4.1402,4.1979,4.2422,4.275,4.2976,4.325,4.3497,-0.6519,-0.7307,-0.8136,-0.8289,-0.8435,-0.857,-0.8693,-0.8937,-0.9022,-0.8791,-0.8788,-0.8794,-0.876,-0.8866,-0.8876,-0.8723,-0.8355,-0.6942,-0.4341,-0.3856,-0.1995,0.1677,0.1767,0.3011,0.5628,0.5523,0.6211,0.0,0.0,0.0,0.0,0.7682,0.7851,0.8167,0.0,0.0,0.0,0.0,1.407,1.4364,1.5439,1.5832,1.5832,1.5832,1.5832,1.5832,1.6109,1.7037,1.8141,1.8411,1.9487,2.0896,2.1469,2.2089,2.2715,2.3047,2.3135,2.3153,2.3313,2.4437,2.5654,2.5936,2.7115,2.8423,2.8988,2.9114,2.9239,2.9691,2.9239,2.8486,2.762,2.7767,0.0,0.0,0.0,0.0,0.0,0.0,3.2677,0.0,3.2063,3.1584,3.1165,0.0,0.0,0.0,0.0,0.0,0.0,0.0,0.0,0.0,0.0,3.8988,3.8988,0.0,3.8853,0.0,3.8142,3.8058,3.7905,3.7905,3.8311,3.8988,3.8988,3.9411,4.0121,4.0577,4.0733,4.078,4.1534,4.208,4.2519,4.277,4.3142,4.3497,-0.8295,-0.8136,-0.8292,-0.8438,-0.8587,-0.8696,-0.871,-0.8852,-0.895,-0.892,-0.9028,-0.9062,-0.8933,-0.893,-0.8876,-0.8723,-0.7496,-0.5996,-0.4341,-0.2946,-0.0904,0.1908,0.1879,0.3031,0.5746,0.5633,0.6253,0.0,0.0,0.0,0.0,0.0,0.0,0.0,0.0,0.0,0.0,1.3776,1.4555,1.5635,1.573,1.5832,1.5832,1.5832,1.5832,1.592,1.7131,1.8319,1.9497,2.0567,2.1087,2.1425,2.257,2.3018,2.3086,2.3125,2.3135,2.3551,2.5587,2.5906,2.6211,2.8692,2.9087,2.9001,2.9578,2.9716,2.9729,2.9779,2.8925,2.8147,2.8047,2.7276,2.7743,0.0,0.0,0.0,0.0,0.0,3.3185,3.2587,3.2452,3.1719,2.9939,3.0836,0.0,0.0,3.118,0.0,0.0,0.0,0.0,3.6874,0.0,3.8988,3.8988,3.9648,0.0,3.8886,3.8886,3.8548,3.7905,3.7905,3.8311,3.8988,3.8988,3.9411,4.0121,4.0171,4.0154,4.0286,4.1375,4.1835,4.2021,4.3032,4.3444,4.3497,-0.8488,-0.8397,0.0,0.0,0.0,0.0,0.0,-0.9028,-0.9066,-0.9066,-0.9042,-0.9001,-0.8947,-0.8152,-0.7543,-0.7414,-0.5948,-0.4493,-0.2945,-0.2377,-0.1126,0.0718,0.0705,0.1594,0.3477,0.4193,0.5243,0.0,0.0,0.0,0.0,0.0,0.0,0.0,0.0,1.2624,1.3974,1.4752,1.5337,1.5832,1.5832,1.5832,1.5832,1.5832,1.6292,1.7037,1.7505,1.8956,2.0657,2.1114,2.1756,2.2492,2.296,2.3135,2.3135,2.3135,2.3135,2.3474,2.5052,2.5821,2.6551,2.8311,2.8855,2.9089,2.9666,2.9528,2.9277,2.9277,2.8386,2.7607,2.7607,2.7519,2.8261,0.0,0.0,0.0,0.0,0.0,0.0,3.2003,0.0,3.0851,2.9699,3.0387,0.0,0.0,0.0,0.0,0.0,0.0,0.0,3.6753,0.0,3.9208,3.9648,3.9935,3.9935,3.9648,3.9648,3.9495,3.9208,3.9208,3.9377,3.9648,3.9648,3.9817,4.007,4.007,4.007,4.0171,4.0594,4.1213,4.1853,4.2306,4.2903,4.3497,-0.8646,0.0,-0.8662,0.0,-0.8842,-0.891,-0.912,-0.9117,-0.9089,-0.9089,-0.8664,-0.8266,-0.8266,-0.7371,-0.6445,-0.593,-0.4479,-0.3138,-0.2128,-0.1673,-0.1034,0.0,0.0,0.0,0.2514,0.3473,0.4745,0.6575,0.7413,0.0,0.0,0.0,0.0,0.0,1.1945,1.3204,1.4561,1.5439,1.5832,1.5832,1.5832,1.5832,1.5832,1.5832,1.6574,1.7785,1.8141,1.9579,2.1382,2.1756,2.2403,2.3135,2.3135,2.3135,2.3135,2.3135,2.3135,2.3387,2.4882,2.5891,2.6801,2.8267,2.8889,2.9252,2.9478,2.9227,2.8837,2.8511,2.7821,2.7281,2.7281,2.7607,2.8569,3.0733,0.0,0.0,0.0,3.338,0.0,3.1601,3.127,3.0702,2.9684,3.0328,0.0,0.0,0.0,0.0,0.0,0.0,0.0,0.0,0.0,0.0,0.0,3.9969,4.007,4.007,4.007,4.007,4.007,4.007,4.007,4.007,4.007,4.007,4.007,4.007,4.007,4.0121,4.0286,4.0844,4.1578,4.1707,4.2306,4.3032,-0.889,-0.8828,-0.8977,-0.9123,-0.9147,-0.915,-0.9154,-0.9032,-0.894,-0.894,-0.7595,-0.6702,-0.6702,-0.6702,-0.6142,-0.4693,-0.3083,-0.2167,-0.2235,-0.0838,0.0,0.0,0.0,0.1209,0.3915,0.4014,0.5268,0.7814,0.0,0.0,0.7818,0.0,1.0681,1.1945,1.3295,1.4561,1.5737,1.5825,1.5832,1.5832,1.5832,1.5832,1.5832,1.5832,1.6574,1.787,1.9039,2.0305,2.148,2.2677,2.3057,2.3135,2.3135,2.3135,2.3135,2.3135,2.3135,2.3551,2.5891,2.6483,2.7058,2.9209,2.9779,2.9628,2.9063,2.8938,2.8612,2.7532,2.7293,2.7281,2.7281,2.7293,2.8318,3.1295,0.0,0.0,0.0,0.0,0.0,3.1764,3.2093,3.1734,2.9774,3.0746,0.0,0.0,0.0,0.0,0.0,0.0,0.0,3.5696,3.7096,0.0,3.9005,3.9715,4.007,4.007,4.007,4.007,4.007,4.007,4.007,4.007,4.007,4.007,4.007,4.007,4.007,4.0171,4.0703,4.0903,4.0995,4.1578,4.181,4.1895,-0.8855,-0.8906,-0.8954,-0.8998,-0.9008,-0.9042,-0.9137,-0.9032,-0.8559,-0.7709,-0.7019,-0.5944,-0.3857,-0.3598,-0.3462,0.0,-0.1559,-0.0665,0.0,-0.0217,0.0427,0.1361,0.1344,0.2141,0.3917,0.492,0.5807,0.6572,0.0,0.0,0.0,0.8407,0.9801,1.1945,1.2334,1.3788,1.5832,1.5832,1.5832,1.5832,1.5832,1.5832,1.5832,1.5832,1.7117,1.8956,1.9405,2.0764,2.2589,2.296,2.3135,2.3135,2.3135,2.3135,2.3135,2.3135,2.3627,2.4553,2.6058,2.7046,2.7947,2.9456,2.9214,2.8699,2.8888,2.8348,2.7708,2.7356,2.7281,2.7394,2.777,2.8147,2.9134,3.1293,3.1626,0.0,0.0,0.0,3.2572,3.1016,3.1016,3.0731,0.0,3.0761,0.0,0.0,0.0,0.0,0.0,0.0,0.0,0.0,3.7801,0.0,3.9732,3.9969,4.007,4.007,4.007,4.007,4.007,4.007,4.007,4.007,4.007,4.007,4.007,4.007,4.007,4.0121,4.0286,4.0577,4.0903,4.1133,4.2043,4.327,-0.894,-0.8981,-0.9018,-0.9018,-0.9018,-0.9049,-0.914,-0.8578,-0.7762,-0.6888,-0.5766,-0.426,-0.2381,-0.1688,0.0,-0.1343,-0.056,0.0,0.0,0.0438,0.1074,0.2001,0.2481,0.3356,0.472,0.0,0.0,0.6731,0.7637,0.8038,0.8038,0.8531,0.9899,1.1945,1.2431,1.3788,1.5832,1.5832,1.5832,1.5832,1.5832,1.5832,1.5832,1.5832,1.7296,1.9497,1.9497,2.1042,2.3135,2.3135,2.3135,2.3135,2.3135,2.3135,2.3222,2.3637,2.4211,2.5126,2.6707,2.7602,2.8347,2.9534,2.9101,2.8398,2.8323,2.777,2.7281,2.7281,2.7281,2.7444,2.8009,2.8845,2.9986,3.1418,3.2166,3.2577,3.2868,0.0,3.2392,0.0,0.0,0.0,0.0,3.1644,3.2542,0.0,0.0,0.0,0.0,0.0,0.0,3.6774,3.7929,0.0,4.007,4.007,4.007,4.007,4.007,4.007,4.007,4.007,4.007,4.007,4.007,4.024,4.0476,4.0189,4.0409,4.0882,4.0612,4.0882,4.1418,4.1418,4.2223,4.3315,-0.894,-0.9055,-0.9154,0.0,-0.9161,0.0,-0.9037,-0.7567,-0.6487,-0.6376,-0.3911,-0.2125,-0.2016,-0.0784,0.0,0.0112,0.0,0.0,0.0,0.14,0.2219,0.2286,0.3459,0.4728,0.6142,0.6134,0.6731,0.8038,0.8038,0.8038,0.8038,0.941,1.0681,1.1945,1.3295,1.4657,1.5832,1.5832,1.5832,1.5832,1.5832,1.5832,1.5832,1.592,1.739,1.9488,1.9579,2.1132,2.3135,2.3135,2.3135,2.3135,2.3135,2.3135,2.3474,2.4457,2.4872,2.5368,2.751,2.8176,2.8426,2.9534,2.9365,2.8649,2.7582,2.7344,2.7344,2.7344,2.7369,2.7557,2.8059,2.9396,3.0748,3.1695,3.3038,3.3819,3.354,0.0,3.3021,0.0,0.0,0.0,0.0,3.314,3.3769,0.0,0.0,0.0,0.0,0.0,3.5294,3.6798,3.7454,3.8557,4.007,4.007,4.0104,4.0155,4.0155,4.0172,4.0223,4.0223,4.0223,4.0223,4.0223,4.0629,4.1221,4.0527,4.1052,4.2219,4.1542,4.1694,4.2286,4.2286,4.2373,4.2513,0.0,0.0,-0.9154,-0.9154,-0.8202,-0.7423,-0.7445,-0.6039,-0.455,-0.3416,-0.259,-0.1798,-0.0684,-0.0226,0.0448,0.1566,0.1677,0.1675,0.1669,0.2953,0.4213,0.5375,0.5532,0.6259,0.7699,0.7594,0.7637,0.8038,0.8038,0.8038,0.8038,0.941,1.0681,1.1945,1.3295,1.4657,1.5832,1.5832,1.5832,1.5832,1.5832,1.5832,1.5927,1.6857,1.8226,1.9579,2.0576,2.1854,2.3135,2.3135,2.3135,2.3135,2.3135,2.3714,2.4457,2.4702,2.5378,2.6378,2.7763,2.8767,2.9456,2.9702,2.9365,2.875,2.8059,2.7908,2.7908,2.7908,2.8247,2.8586,2.8712,2.9964,3.1336,3.2244,3.2913,3.334,3.3481,3.3499,0.0,0.0,3.2856,3.326,3.326,3.341,3.3769,0.0,0.0,0.0,0.0,3.5355,3.5951,3.7492,3.7726,3.8557,4.007,4.007,4.0358,4.0933,4.0933,4.1221,4.1762,4.1762,4.1762,4.1762,4.1762,4.1863,4.2016,4.1847,4.1965,4.2269,4.21,4.2151,4.2286,4.2286,4.2978,4.3939,-0.9025,-0.91,-0.8924,-0.8234,-0.7486,-0.6699,-0.5952,-0.4433,-0.3179,-0.229,-0.1582,-0.0899,-0.0114,0.0563,0.1343,0.2124,0.2235,0.2459,0.3242,0.4507,0.566,0.6421,0.6843,0.744,0.8269,0.8119,0.8038,0.8038,0.8038,0.8333,0.892,1.0293,1.1556,1.2909,1.4172,1.5146,1.5832,1.5832,1.5832,1.5832,1.5832,1.5832,1.592,1.7225,1.8411,1.967,2.0845,2.212,2.3135,2.3135,2.3135,2.3135,2.3135,2.3877,2.4872,2.5378,2.6378,2.7452,2.8609,2.9365,2.9729,2.9465,2.9365,2.9114,2.8298,2.8298,2.8486,2.8486,2.8725,2.9151,2.9817,3.0969,3.2096,3.2751,3.3336,3.3608,3.3109,3.3305,0.0,3.2587,3.3365,3.3948,3.3948,3.4233,3.4562,3.4921,0.0,0.0,3.5489,3.5504,3.6211,3.7764,3.7822,3.8704,4.0578,4.0916,4.1288,4.1694,4.1694,4.1914,4.2286,4.2286,4.2286,4.2286,4.2286,4.2489,4.2777,4.2439,4.2709,4.3301,4.2946,4.3031,4.3335,4.3335,4.3844,4.4523,-0.9123,-0.9054,-0.8499,-0.7138,-0.6565,-0.576,-0.438,-0.2838,-0.1918,-0.1831,-0.0792,0.0112,0.0336,0.1454,0.2347,0.2793,0.2904,0.3463,0.4693,0.6046,0.6864,0.6883,0.7824,0.8313,0.8336,0.8163,0.8062,0.8038,0.8038,0.8726,0.9998,1.1268,1.2624,1.3974,1.5242,1.5832,1.5832,1.5832,1.5832,1.5832,1.5832,1.592,1.6197,1.7498,1.868,1.9943,2.1114,2.2217,2.3135,2.3135,2.3135,2.3135,2.3299,2.4125,2.5294,2.6389,2.7533,2.8597,2.9534,2.9792,2.9679,2.9176,2.9428,2.9541,2.8574,2.8725,2.9063,2.9063,2.9063,2.9479,3.0939,3.196,3.2723,3.3149,3.3927,3.4053,3.2841,0.0,3.3395,3.2736,3.3829,3.4637,3.4637,3.507,3.5429,3.5639,3.5564,3.5594,0.0,3.5789,3.6486,3.8067,3.803,3.9047,4.1356,4.1982,4.2354,4.2472,4.2574,4.2692,4.2811,4.2912,4.2912,4.2811,4.2811,4.3115,4.3538,4.2912,4.3403,4.4519,4.3859,4.3995,4.4587,4.4705,4.4756,4.4857,-0.9123,-0.8093,-0.7267,-0.713,-0.4887,-0.3103,-0.2864,-0.1399,-0.0344,-0.0345,-0.0113,0.0448,0.1677,0.2012,0.3239,0.5806,0.6031,0.6142,0.6366,0.7583,0.8438,0.8562,0.8505,0.8509,0.8638,0.8374,0.817,0.8038,0.8038,0.8726,0.9998,1.1268,1.2624,1.3974,1.5242,1.5832,1.5832,1.5832,1.5832,1.5832,1.5832,1.648,1.7498,1.8772,1.9943,2.1203,2.2403,2.295,2.3135,2.3135,2.3135,2.3299,2.4211,2.5294,2.6472,2.7522,2.8688,2.9534,2.9792,2.9792,2.9779,2.9679,2.9729,2.9741,2.9578,2.9591,2.9654,2.9654,2.9654,2.9961,3.1031,3.196,3.2862,3.3693,3.4206,3.4203,3.344,0.0,3.4083,3.3425,3.4532,3.534,3.534,3.4921,3.51,3.6252,3.5818,3.5983,3.706,3.712,3.7846,3.9505,3.9033,3.9838,4.2117,4.2236,4.2608,4.325,4.391,4.4553,4.5196,4.5821,4.5754,4.5179,4.5179,4.4874,4.4384,4.4265,4.4367,4.457,4.4451,4.4468,4.4654,4.5297,4.5534,4.5635,-0.8085,-0.7397,-0.6544,-0.4917,-0.3461,-0.2139,-0.1308,-0.0463,0.0,0.0,0.0679,0.1454,0.2124,0.3685,0.5137,0.6589,0.7371,0.7931,0.7931,0.843,0.8866,0.8933,0.8723,0.8601,0.8587,0.8381,0.8235,0.8163,0.877,0.9702,1.1068,1.2328,1.3686,1.4949,1.5534,1.5832,1.5832,1.5832,1.5832,1.5832,1.5832,1.6574,1.787,1.9039,2.0215,2.148,2.2677,2.3135,2.3135,2.3135,2.3135,2.3299,2.4457,2.5546,2.6719,2.7775,2.8937,2.9792,2.9792,2.9792,2.9792,2.9792,2.9792,2.9792,2.9792,2.9792,2.9792,2.9792,2.9792,3.0216,3.1683,3.2321,3.2989,3.4076,3.398,0.0,0.0,3.3314,3.3621,3.3328,3.4376,3.5166,3.5166,3.5195,3.5541,3.6142,3.6416,3.6791,3.7375,3.7404,3.8135,3.9754,4.0804,4.1816,4.2895,4.3724,4.4299,4.4671,4.5415,4.5957,4.6295,4.6633,4.6397,4.5703,4.5703,4.528,4.4587,4.4587,4.4823,4.5179,4.5179,4.5432,4.5821,4.616,4.6295,4.6397,-0.6689,-0.6186,-0.5288,-0.29,-0.2143,-0.153,-0.0237,0.0344,0.0564,0.0458,0.1808,0.2904,0.3239,0.5359,0.6813,0.7149,0.8266,0.894,0.894,0.894,0.894,0.894,0.8825,0.8693,0.8537,0.8428,0.856,0.8826,0.9658,1.0842,1.251,1.342,1.4561,1.5832,1.5832,1.5832,1.5832,1.5832,1.5832,1.5832,1.5832,1.6756,1.8234,1.9131,2.0395,2.1845,2.2775,2.3135,2.3135,2.3135,2.3135,2.3387,2.4713,2.5808,2.6719,2.8108,2.9106,2.9792,2.9792,2.9792,2.9792,2.9792,2.9792,2.9792,2.9792,2.9792,2.9829,2.9955,3.02,3.0879,3.2718,3.3112,3.352,3.4448,0.0,0.0,0.0,3.2634,3.309,3.2947,3.4028,3.4797,3.4797,3.544,3.6,3.6301,3.7278,3.8003,3.8317,3.8332,3.9085,4.0685,4.2643,4.376,4.3944,4.528,4.5957,4.5957,4.6701,4.7056,4.7056,4.7225,4.6904,4.621,4.621,4.5703,4.4857,4.5026,4.5331,4.572,4.5889,4.6295,4.6802,4.6989,4.7056,4.7158,-0.5121,-0.3601,-0.2537,-0.2452,-0.1201,-0.0118,0.0,0.1155,0.2024,0.2059,0.3388,0.4804,0.6253,0.6589,0.726,0.8605,0.8826,0.894,0.894,0.894,0.894,0.894,0.8927,0.8852,0.8696,0.8682,0.9235,1.0522,1.0336,1.1539,1.4126,1.3984,1.4561,1.5832,1.5832,1.5832,1.5832,1.5832,1.5832,1.5832,1.5832,1.7203,1.9405,1.9497,2.0953,2.296,2.3047,2.3135,2.3135,2.3135,2.3135,2.3474,2.5641,2.6389,2.6894,2.904,2.9702,2.9792,2.9792,2.9792,2.9792,2.9792,2.9792,2.9792,2.9792,2.9792,2.9942,3.0457,3.1371,3.2475,3.4018,3.4552,3.4877,3.4972,0.0,0.0,3.1847,3.2635,3.3173,3.2648,3.3583,3.43,3.43,3.5319,3.6359,3.7613,3.8635,3.9798,4.1025,4.1085,4.1928,4.3735,4.415,4.473,4.5534,4.6312,4.6718,4.6718,4.7479,4.7834,4.7851,4.8528,4.8443,4.775,4.775,4.6938,4.5669,4.6346,4.6261,4.5771,4.6447,4.6735,4.687,4.7581,4.7834,4.7936,-0.3426,-0.2747,-0.205,-0.1093,-0.0474,0.0349,0.1168,0.1823,0.2576,0.3494,0.4935,0.6033,0.6591,0.7485,0.8266,0.8826,0.894,0.894,0.894,0.894,0.894,0.894,0.894,0.8913,0.8852,0.876,0.9422,1.0822,1.1225,1.2463,1.4347,1.4877,1.5337,1.5832,1.5832,1.5832,1.5832,1.5832,1.5832,1.5825,1.6669,1.7948,1.9579,2.0305,2.1667,2.3135,2.3135,2.3135,2.3135,2.3135,2.3551,2.4467,2.5975,2.6964,2.7775,2.9378,2.9792,2.9792,2.9792,2.9792,2.9792,2.9792,2.9792,2.9792,2.9792,3.0055,3.0502,3.1371,3.2149,3.3275,3.5043,3.4961,3.4679,3.495,0.0,3.2915,3.1964,3.2506,3.2934,3.2733,3.3672,3.4407,3.4407,3.6081,3.7433,3.791,3.9642,4.0846,4.1354,4.1384,4.2203,4.4042,4.4589,4.5354,4.638,4.7107,4.7479,4.7496,4.824,4.8595,4.8595,4.8883,4.8612,4.7919,4.7919,4.7327,4.6397,4.6667,4.6904,4.7107,4.7378,4.7767,4.8206,4.8494,4.8883,4.9306,-0.1878,-0.166,-0.1315,-0.0239,0.0351,0.1033,0.2063,0.3049,0.4021,0.5027,0.6478,0.7371,0.7371,0.8266,0.894,0.894,0.894,0.894,0.894,0.894,0.894,0.894,0.894,0.894,0.894,0.9265,1.0166,1.1657,1.2658,1.3752,1.5078,1.5706,1.5919,1.5832,1.5832,1.5832,1.5832,1.5832,1.6015,1.648,1.7318,1.8688,2.0124,2.1025,2.2031,2.3135,2.3135,2.3135,2.3135,2.3135,2.3978,2.5232,2.6185,2.7452,2.8803,2.9745,2.993,2.9792,2.9792,2.9917,3.0005,2.9829,2.993,3.0043,3.0043,3.047,3.1204,3.2423,3.3234,3.4331,3.6241,3.5804,3.5152,3.5109,3.3813,3.2529,3.1915,3.2447,3.2914,3.2914,3.3856,3.4725,3.5134,3.6904,3.8297,3.8823,4.068,4.1773,4.1983,4.1998,4.2696,4.4297,4.5091,4.5992,4.7005,4.7865,4.8257,4.8257,4.8765,4.9001,4.9001,4.9001,4.8731,4.8257,4.8257,4.7834,4.7158,4.7394,4.7648,4.797,4.8426,4.89,4.9373,4.961,5.0016,5.0439,-0.0235,0.0,0.0,0.0,0.1276,0.2177,0.2177,0.4739,0.6702,0.6702,0.8042,0.894,0.894,0.894,0.894,0.894,0.894,0.894,0.894,0.894,0.894,0.894,0.894,0.894,0.894,1.0347,1.1864,1.327,1.4423,1.5536,1.67,1.6413,1.6119,1.5838,1.5832,1.5832,1.5832,1.5832,1.6574,1.7692,1.7692,1.9139,2.1302,2.1302,2.2041,2.3154,2.3154,2.3144,2.3144,2.3154,2.4267,2.5743,2.6296,2.8063,2.9917,3.0457,3.0231,2.9804,2.9804,3.0206,3.0495,2.9942,3.0218,3.062,3.062,3.1022,3.1851,3.3487,3.4641,3.5934,3.7486,3.7236,3.6493,3.5586,3.3934,3.2475,3.1562,3.2378,3.3093,3.3093,3.406,3.5137,3.6392,3.7476,3.8891,4.0703,4.178,4.2656,4.3299,4.3344,4.3786,4.4752,4.5722,4.6609,4.7605,4.8513,4.9001,4.9001,4.9001,4.9001,4.9001,4.9001,4.9001,4.9001,4.9001,4.8595,4.7986,4.8714,4.8578,4.8071,4.9526,5.0084,5.0185,5.0947,5.1217,5.1217,-0.0116,0.0,0.0347,0.1387,0.1937,0.2927,0.5062,0.6163,0.7038,0.8152,0.8602,0.894,0.894,0.894,0.894,0.894,0.894,0.894,0.894,0.894,0.894,0.894,0.894,0.9372,1.046,1.0891,1.2295,1.477,1.4949,1.5731,1.7007,1.6714,1.6526,1.6433,1.6233,1.6139,1.6222,1.6855,1.7318,1.7893,1.9886,2.1186,2.1953,2.307,2.3741,2.4033,2.4033,2.3848,2.3643,2.3935,2.5207,2.7149,2.9295,3.0387,3.0947,3.111,3.1047,3.0909,3.0909,3.1035,3.1035,3.0507,3.0771,3.116,3.116,3.2188,3.3395,3.4679,3.6487,3.7953,3.8371,3.804,3.7257,3.5722,3.4725,3.3918,3.3293,3.3771,3.4223,3.4223,3.4864,3.5722,3.6911,3.8483,4.011,4.1918,4.3109,4.3808,4.4003,4.4018,4.4679,4.6098,4.6391,4.6981,4.7918,4.866,4.9001,4.9001,4.9001,4.9001,4.9001,4.9001,4.9001,4.9001,4.9001,4.8883,4.8697,4.8917,4.9187,4.9492,4.9915,5.0422,5.0913,5.1133,5.1539,5.1978,0.0,0.0455,0.1136,0.2043,0.3149,0.4578,0.6366,0.7146,0.7931,0.8826,0.894,0.894,0.894,0.894,0.894,0.894,0.894,0.894,0.894,0.894,0.9182,0.9898,0.9902,1.0307,1.1109,1.2186,1.3696,1.5417,1.5798,1.6412,1.725,1.6967,1.682,1.67,1.652,1.6728,1.7295,1.7868,1.8721,1.9772,2.1494,2.2538,2.3037,2.4031,2.4414,2.4414,2.4414,2.4248,2.4072,2.4336,2.5816,2.8043,3.1109,3.175,3.1436,3.165,3.1562,3.1386,3.1386,3.1549,3.17,3.1612,3.165,3.1775,3.2001,3.3346,3.4846,3.6232,3.7573,3.8573,3.8982,3.8128,3.7017,3.6002,3.5173,3.4613,3.4274,3.47,3.5127,3.5341,3.5855,3.6887,3.8872,4.0028,4.146,4.3507,4.4347,4.4706,4.4706,4.4706,4.5182,4.6097,4.648,4.6998,4.7505,4.829,4.8879,4.9304,4.9675,4.9881,4.9881,4.9881,4.9881,4.9881,4.9881,4.9712,4.9458,4.9763,4.9965,5.0152,5.0727,5.1251,5.1674,5.2012,5.2401,5.2773,0.0224,0.1343,0.2459,0.2571,0.4912,0.6702,0.6924,0.8042,0.894,0.894,0.894,0.894,0.894,0.894,0.894,0.894,0.895,0.8957,0.8957,0.8957,0.9683,1.1397,1.1612,1.1642,1.1595,1.4056,1.5441,1.5636,1.6929,1.7448,1.7188,1.7188,1.7048,1.678,1.676,1.7526,1.8792,1.8852,2.0289,2.2604,2.2735,2.3514,2.4482,2.4521,2.4541,2.4541,2.4541,2.4512,2.4473,2.474,2.6267,2.8657,3.2031,3.2365,3.1637,3.2139,3.1938,3.1549,3.1599,3.1976,3.2503,3.3081,3.283,3.2579,3.3106,3.4495,3.6085,3.7646,3.802,3.838,3.9211,3.7754,3.6463,3.6289,3.5494,3.4939,3.4939,3.5416,3.5956,3.6445,3.6948,3.8458,4.1366,4.1931,4.3019,4.5123,4.5349,4.5394,4.5394,4.5394,4.5409,4.5469,4.6295,4.6729,4.6729,4.7785,4.8764,4.9694,5.0643,5.1136,5.1217,5.1217,5.1217,5.1217,5.1217,5.0828,5.0253,5.093,5.0845,5.0422,5.1775,5.235,5.2503,5.323,5.3501,5.3501,0.1677,0.2907,0.4357,0.547,0.6253,0.7035,0.8266,0.8716,0.894,0.894,0.894,0.894,0.894,0.894,0.894,0.894,0.9042,0.9106,0.9106,0.9106,0.9957,1.1714,1.2688,1.3876,1.5122,1.5603,1.6276,1.7147,1.747,1.7549,1.7488,1.7488,1.7455,1.7382,1.7154,1.7848,1.9122,1.9924,2.1154,2.2726,2.4013,2.4733,2.4961,2.5312,2.5449,2.5449,2.5449,2.5225,2.5288,2.7185,2.842,2.9579,3.2265,3.2905,3.2729,3.2855,3.2805,3.2805,3.3244,3.3445,3.3671,3.4223,3.4274,3.4211,3.4336,3.5285,3.6234,3.6625,3.7758,3.8498,3.7738,3.7688,3.739,3.6526,3.6546,3.6646,3.6646,3.7123,3.7513,3.7638,3.7751,3.8897,4.1407,4.3875,4.5335,4.5334,4.5798,4.6097,4.6097,4.6097,4.6337,4.686,4.7102,4.7171,4.7171,4.9016,4.9837,4.9694,4.9918,5.0426,5.1217,5.1217,5.1217,5.1217,5.1217,5.1116,5.098,5.115,5.1454,5.186,5.2181,5.2689,5.3264,5.345,5.3501,5.3501,0.3129,0.4468,0.5808,0.6589,0.726,0.8042,0.8826,0.894,0.894,0.894,0.894,0.894,0.894,0.894,0.8964,0.9035,0.911,0.9184,0.9256,1.0052,1.1261,1.2938,1.4427,1.589,1.7522,1.739,1.752,1.8016,1.7862,1.7796,1.7802,1.7649,1.7582,1.7575,1.7422,1.8466,2.0466,2.0875,2.2275,2.4183,2.4996,2.5391,2.541,2.5644,2.5742,2.5742,2.5742,2.5952,2.6576,2.8481,2.9818,3.0924,3.2611,3.3432,3.3809,3.3545,3.3658,3.3922,3.4211,3.4299,3.4424,3.4977,3.5115,3.5115,3.5115,3.5955,3.688,3.7069,3.7878,3.8343,3.7659,3.7391,3.7147,3.6804,3.6998,3.7274,3.7538,3.7826,3.8115,3.8391,3.8974,4.0377,4.3181,4.5464,4.6636,4.6277,4.6591,4.68,4.68,4.68,4.695,4.7294,4.7309,4.7309,4.7309,4.8841,4.9783,5.005,5.1028,5.1799,5.2317,5.2317,5.2317,5.2317,5.2317,5.2097,5.1758,5.2147,5.23,5.2334,5.2723,5.3129,5.3501,5.3501,5.3501,5.3501,0.4582,0.6033,0.7038,0.7038,0.8042,0.8947,0.8971,0.8977,0.8984,0.9011,0.8991,0.8977,0.8977,0.8977,0.9032,0.9178,0.9215,0.9398,0.987,1.1141,1.2712,1.4776,1.6017,1.7412,1.8998,1.8998,1.8831,1.849,1.823,1.8076,1.8043,1.7782,1.7629,1.7582,1.7891,1.9317,2.1752,2.1954,2.3484,2.5742,2.5742,2.5742,2.5742,2.5742,2.5742,2.5742,2.5742,2.6476,2.7778,2.9139,3.064,3.2256,3.3108,3.3985,3.4625,3.4173,3.4361,3.4751,3.4839,3.4864,3.5002,3.5554,3.568,3.568,3.568,3.6533,3.7389,3.7769,3.7835,3.79,3.79,3.7211,3.6684,3.7236,3.7412,3.7638,3.809,3.8228,3.8479,3.8956,4.0317,4.2385,4.5149,4.6535,4.7309,4.7309,4.7309,4.7309,4.7309,4.7309,4.7309,4.7309,4.7309,4.7381,4.7523,4.861,4.9615,5.0703,5.2574,5.3501,5.3501,5.3501,5.3501,5.3501,5.3501,5.3129,5.2553,5.323,5.3112,5.257,5.3247,5.3501,5.3501,5.3501,5.3501,5.3501,0.6366,0.7595,0.8602,0.8602,0.8716,0.8981,0.9103,0.9123,0.9171,0.9303,0.9208,0.9123,0.9123,0.9123,0.9184,0.9337,0.9469,1.0137,1.1544,1.1896,1.3377,1.6546,1.6691,1.7498,1.9299,1.9305,1.9038,1.849,1.8444,1.8297,1.805,1.8003,1.7842,1.7687,1.8812,2.0231,2.1752,2.2968,2.4304,2.5742,2.5742,2.5742,2.5742,2.5742,2.5742,2.5742,2.5742,2.6476,2.7831,2.9526,3.1032,3.2376,3.399,3.46,3.4713,3.4625,3.4663,3.4826,3.5303,3.5429,3.5567,3.6119,3.6257,3.6257,3.6257,3.6799,3.7109,3.6704,3.7007,3.7336,3.7336,3.7157,3.7249,3.7801,3.8316,3.8668,3.8743,3.917,3.9496,3.9572,4.1669,4.369,4.5298,4.6535,4.7309,4.7309,4.7309,4.7309,4.7309,4.7309,4.7309,4.7309,4.7309,4.7679,4.8594,4.9615,5.0703,5.1687,5.2939,5.3501,5.3501,5.3501,5.3501,5.3501,5.3501,5.345,5.3348,5.3467,5.345,5.3348,5.3467,5.3501,5.3501,5.3501,5.3501,5.3501,0.7817,0.8491,0.8964,0.9045,0.8991,0.9018,0.9245,0.9208,0.9208,0.9361,0.9323,0.9283,0.9283,0.9283,0.9344,0.9496,1.0384,1.128,1.2082,1.3736,1.5429,1.6962,1.7805,1.8628,1.9366,1.9366,1.9239,1.8978,1.8811,1.8664,1.8531,1.837,1.8639,1.9334,1.996,2.1314,2.3181,2.3806,2.4846,2.6084,2.584,2.5889,2.6074,2.583,2.5742,2.5762,2.6016,2.741,2.9244,3.0203,3.2078,3.4047,3.4557,3.514,3.5579,3.5278,3.5403,3.5692,3.5931,3.6232,3.6445,3.6383,3.6596,3.6734,3.6433,3.7023,3.74,3.6533,3.6797,3.7186,3.7186,3.7437,3.7826,3.8391,3.8705,3.8981,3.9283,3.9534,4.0275,4.1703,4.3409,4.5024,4.6344,4.6931,4.7309,4.7309,4.7309,4.7309,4.7309,4.7309,4.7309,4.7309,4.7309,4.7749,4.8825,4.9852,5.093,5.1921,5.3025,5.3501,5.3501,5.3501,5.3501,5.3501,5.3501,5.3501,5.3501,5.3501,5.3501,5.3501,5.3501,5.3501,5.3501,5.3501,5.3501,5.3501]},{"header":{"parameterUnit":"m.s-1","parameterCategory":1,"la1":30.6,"la2":28.766,"lo1":-90.7593,"lo2":-88.6598,"dy":0.0162,"dx":0.0183,"nx":116,"ny":114,"refTime":"2023-04-22T18:00:00:Z","depth":0,"parameterNumber":3,"parameterNumberName":"V-component_of_WINDS"},"data":[0.0,0.0,0.0,0.0,0.0,0.0,0.0,0.0,0.0,0.0,0.0,0.0,0.0,0.0,0.0,0.0,0.0,0.0,0.0,0.0,0.0,0.0,0.0,0.0,0.0,0.0,0.0,0.0,0.0,0.0,0.0,0.0,0.0,0.0,0.0,0.0,0.0,0.0,0.0,0.0,0.0,0.0,0.0,0.0,0.0,0.0,0.0,0.0,0.0,0.0,0.0,0.0,0.0,0.0,0.0,0.0,0.0,0.0,0.0,0.0,0.0,0.0,0.0,0.0,0.0,0.0,0.0,0.0,0.0,0.0,0.0,0.0,0.0,0.0,0.0,0.0,0.0,0.0,0.0,0.0,0.0,0.0,0.0,0.0,0.0,0.0,0.0,0.0,0.0,0.0,0.0,0.0,0.0,0.0,0.0,0.0,0.0,0.0,0.0,0.0,0.0,0.0,0.0,0.0,0.0,0.0,0.0,0.0,0.0,0.0,0.0,0.0,0.0,0.0,0.0,0.0,0.0,0.0,0.0,0.0,0.0,0.0,0.0,0.0,0.0,0.0,0.0,0.0,0.0,0.0,0.0,0.0,0.0,0.0,0.0,0.0,0.0,0.0,0.0,0.0,0.0,0.0,0.0,0.0,0.0,0.0,0.0,0.0,0.0,0.0,0.0,0.0,0.0,0.0,0.0,0.0,0.0,0.0,0.0,0.0,0.0,0.0,0.0,0.0,0.0,0.0,0.0,0.0,0.0,0.0,0.0,0.0,0.0,0.0,0.0,0.0,0.0,0.0,0.0,0.0,0.0,0.0,0.0,0.0,0.0,0.0,0.0,0.0,0.0,0.0,0.0,0.0,0.0,0.0,0.0,0.0,0.0,0.0,0.0,0.0,0.0,0.0,0.0,0.0,0.0,0.0,0.0,0.0,0.0,0.0,0.0,0.0,0.0,0.0,0.0,0.0,0.0,0.0,0.0,0.0,0.0,0.0,0.0,0.0,0.0,0.0,0.0,0.0,0.0,0.0,0.0,0.0,0.0,0.0,0.0,0.0,0.0,0.0,0.0,0.0,0.0,0.0,0.0,0.0,0.0,0.0,0.0,0.0,0.0,0.0,0.0,0.0,0.0,0.0,0.0,0.0,0.0,0.0,0.0,0.0,0.0,0.0,0.0,0.0,0.0,0.0,0.0,0.0,0.0,0.0,0.0,0.0,0.0,0.0,0.0,0.0,0.0,0.0,0.0,0.0,0.0,0.0,0.0,0.0,0.0,0.0,0.0,0.0,0.0,0.0,0.0,0.0,0.0,0.0,0.0,0.0,0.0,0.0,0.0,0.0,0.0,0.0,0.0,0.0,0.0,0.0,0.0,0.0,0.0,0.0,0.0,0.0,0.0,0.0,0.0,0.0,0.0,0.0,0.0,0.0,0.0,0.0,0.0,0.0,0.0,0.0,0.0,0.0,0.0,0.0,0.0,0.0,0.0,0.0,0.0,0.0,0.0,0.0,0.0,0.0,0.0,0.0,0.0,0.0,0.0,0.0,0.0,0.0,0.0,0.0,0.0,0.0,0.0,0.0,0.0,0.0,0.0,0.0,0.0,0.0,0.0,0.0,0.0,0.0,0.0,0.0,0.0,0.0,0.0,0.0,0.0,0.0,0.0,0.0,0.0,0.0,0.0,0.0,0.0,0.0,0.0,0.0,0.0,0.0,0.0,0.0,0.0,0.0,0.0,0.0,0.0,0.0,0.0,0.0,0.0,0.0,0.0,0.0,0.0,0.0,0.0,0.0,0.0,0.0,0.0,0.0,0.0,0.0,0.0,0.0,0.0,0.0,0.0,0.0,0.0,0.0,0.0,0.0,0.0,0.0,0.0,0.0,0.0,0.0,0.0,0.0,0.0,0.0,0.0,0.0,0.0,0.0,0.0,0.0,0.0,0.0,0.0,0.0,0.0,0.0,0.0,0.0,0.0,0.0,0.0,0.0,0.0,0.0,0.0,0.0,0.0,0.0,0.0,0.0,0.0,0.0,0.0,0.0,0.0,0.0,0.0,0.0,0.0,0.0,0.0,0.0,0.0,0.0,0.0,0.0,0.0,0.0,0.0,0.0,0.0,0.0,0.0,0.0,0.0,0.0,0.0,0.0,0.0,0.0,0.0,0.0,0.0,0.0,0.0,0.0,0.0,0.0,0.0,0.0,0.0,0.0,0.0,0.0,0.0,0.0,0.0,0.0,0.0,0.0,0.0,0.0,0.0,0.0,0.0,0.0,0.0,0.0,0.0,0.0,0.0,0.0,0.0,0.0,0.0,0.0,0.0,0.0,0.0,0.0,0.0,0.0,0.0,0.0,0.0,0.0,0.0,0.0,0.0,0.0,0.0,0.0,0.0,0.0,0.0,0.0,0.0,0.0,0.0,0.0,0.0,0.0,0.0,0.0,0.0,0.0,0.0,0.0,0.0,0.0,0.0,0.0,0.0,0.0,0.0,0.0,0.0,0.0,0.0,0.0,0.0,0.0,0.0,0.0,0.0,0.0,0.0,0.0,0.0,0.0,0.0,0.0,0.0,0.0,0.0,0.0,0.0,0.0,0.0,0.0,0.0,0.0,0.0,0.0,0.0,0.0,0.0,0.0,0.0,0.0,0.0,0.0,0.0,0.0,0.0,0.0,0.0,0.0,0.0,0.0,0.0,0.0,0.0,0.0,0.0,0.0,0.0,0.0,0.0,0.0,0.0,0.0,0.0,0.0,0.0,0.0,0.0,0.0,0.0,0.0,0.0,0.0,0.0,0.0,0.0,0.0,0.0,0.0,0.0,0.0,0.0,0.0,0.0,0.0,0.0,0.0,0.0,0.0,0.0,0.0,0.0,0.0,0.0,0.0,0.0,0.0,0.0,0.0,0.0,0.0,0.0,0.0,0.0,0.0,0.0,0.0,0.0,0.0,0.0,0.0,0.0,0.0,0.0,0.0,0.0,0.0,0.0,0.0,0.0,0.0,0.0,0.0,0.0,0.0,0.0,0.0,0.0,0.0,0.0,0.0,0.0,0.0,0.0,0.0,0.0,0.0,0.0,0.0,0.0,0.0,0.0,0.0,0.0,0.0,0.0,0.0,0.0,0.0,0.0,0.0,0.0,0.0,0.0,0.0,0.0,0.0,0.0,0.0,0.0,0.0,0.0,0.0,0.0,0.0,0.0,0.0,0.0,0.0,0.0,0.0,0.0,0.0,0.0,0.0,0.0,0.0,0.0,0.0,0.0,0.0,0.0,0.0,0.0,0.0,0.0,0.0,0.0,0.0,0.0,0.0,0.0,0.0,0.0,0.0,0.0,0.0,0.0,0.0,0.0,0.0,0.0,0.0,0.0,0.0,0.0,0.0,0.0,0.0,0.0,0.0,0.0,0.0,0.0,0.0,0.0,0.0,0.0,0.0,0.0,0.0,0.0,0.0,0.0,0.0,0.0,0.0,0.0,0.0,0.0,0.0,0.0,0.0,0.0,0.0,0.0,0.0,0.0,0.0,0.0,0.0,0.0,0.0,0.0,0.0,0.0,0.0,0.0,0.0,0.0,0.0,0.0,0.0,0.0,0.0,0.0,0.0,0.0,0.0,0.0,0.0,0.0,0.0,0.0,0.0,0.0,0.0,0.0,0.0,0.0,0.0,0.0,0.0,0.0,0.0,0.0,0.0,0.0,0.0,0.0,0.0,0.0,0.0,0.0,0.0,0.0,0.0,0.0,0.0,0.0,0.0,0.0,0.0,0.0,0.0,0.0,0.0,0.0,0.0,0.0,0.0,0.0,0.0,0.0,0.0,0.0,0.0,0.0,0.0,0.0,0.0,0.0,0.0,0.0,0.0,0.0,0.0,0.0,0.0,0.0,0.0,0.0,0.0,0.0,0.0,0.0,0.0,0.0,0.0,0.0,0.0,0.0,0.0,0.0,0.0,0.0,0.0,0.0,0.0,0.0,0.0,0.0,0.0,0.0,0.0,0.0,0.0,0.0,0.0,0.0,0.0,0.0,0.0,0.0,0.0,0.0,0.0,0.0,0.0,0.0,0.0,0.0,0.0,0.0,0.0,0.0,0.0,0.0,0.0,0.0,0.0,0.0,0.0,0.0,0.0,0.0,0.0,0.0,0.0,0.0,0.0,0.0,0.0,0.0,0.0,0.0,0.0,0.0,0.0,0.0,0.0,0.0,0.0,0.0,0.0,0.0,0.0,0.0,0.0,0.0,0.0,0.0,0.0,0.0,0.0,0.0,0.0,0.0,0.0,0.0,0.0,0.0,0.0,0.0,0.0,0.0,0.0,0.0,0.0,0.0,0.0,0.0,0.0,0.0,0.0,0.0,0.0,0.0,0.0,0.0,0.0,0.0,0.0,0.0,0.0,0.0,0.0,0.0,0.0,0.0,0.0,0.0,0.0,0.0,0.0,0.0,0.0,0.0,0.0,0.0,0.0,0.0,0.0,0.0,0.0,0.0,0.0,0.0,0.0,0.0,0.0,0.0,0.0,0.0,0.0,0.0,0.0,0.0,0.0,0.0,0.0,0.0,0.0,0.0,0.0,0.0,0.0,0.0,0.0,0.0,0.0,0.0,0.0,0.0,0.0,0.0,0.0,0.0,0.0,0.0,0.0,0.0,0.0,0.0,0.0,0.0,0.0,0.0,0.0,0.0,0.0,0.0,0.0,0.0,0.0,0.0,0.0,0.0,0.0,0.0,0.0,0.0,0.0,0.0,0.0,0.0,0.0,0.0,0.0,0.0,0.0,0.0,0.0,0.0,0.0,0.0,0.0,0.0,0.0,0.0,0.0,0.0,0.0,0.0,0.0,0.0,0.0,0.0,0.0,0.0,0.0,0.0,0.0,0.0,0.0,0.0,0.0,0.0,0.0,0.0,0.0,0.0,0.0,0.0,0.0,0.0,0.0,0.0,0.0,0.0,0.0,0.0,0.0,0.0,0.0,0.0,0.0,0.0,0.0,0.0,0.0,0.0,0.0,0.0,0.0,0.0,0.0,0.0,0.0,0.0,0.0,0.0,0.0,0.0,0.0,0.0,0.0,0.0,0.0,0.0,0.0,0.0,0.0,0.0,0.0,0.0,0.0,0.0,0.0,0.0,0.0,0.0,0.0,0.0,0.0,0.0,0.0,0.0,0.0,0.0,0.0,0.0,0.0,0.0,0.0,0.0,0.0,0.0,0.0,0.0,0.0,0.0,0.0,0.0,0.0,0.0,0.0,0.0,0.0,0.0,0.0,0.0,0.0,0.0,0.0,0.0,0.0,0.0,0.0,0.0,0.0,0.0,0.0,0.0,0.0,0.0,0.0,0.0,0.0,0.0,0.0,0.0,0.0,0.0,0.0,0.0,0.0,0.0,0.0,0.0,0.0,0.0,0.0,0.0,0.0,0.0,0.0,0.0,0.0,0.0,0.0,0.0,0.0,0.0,0.0,0.0,0.0,0.0,0.0,0.0,0.0,0.0,0.0,0.0,0.0,0.0,0.0,0.0,0.0,0.0,0.0,0.0,0.0,0.0,0.0,0.0,0.0,0.0,0.0,0.0,0.0,0.0,0.0,0.0,0.0,0.0,0.0,0.0,0.0,0.0,0.0,0.0,0.0,0.0,0.0,0.0,0.0,0.0,0.0,0.0,0.0,0.0,0.0,0.0,0.0,0.0,0.0,0.0,0.0,0.0,0.0,0.0,0.0,0.0,0.0,0.0,0.0,0.0,0.0,0.0,0.0,0.0,0.0,0.0,0.0,0.0,0.0,0.0,0.0,0.0,0.0,0.0,0.0,0.0,0.0,0.0,0.0,0.0,0.0,0.0,0.0,0.0,0.0,0.0,0.0,0.0,0.0,0.0,0.0,0.0,0.0,0.0,0.0,0.0,0.0,0.0,0.0,0.0,0.0,0.0,0.0,0.0,0.0,0.0,0.0,0.0,0.0,0.0,0.0,0.0,0.0,0.0,0.0,0.0,0.0,0.0,0.0,0.0,0.0,0.0,0.0,0.0,0.0,0.0,0.0,0.0,0.0,0.0,0.0,0.0,0.0,0.0,0.0,0.0,0.0,0.0,0.0,0.0,0.0,0.0,0.0,0.0,0.0,0.0,0.0,0.0,0.0,1.9502,0.0,0.0,0.0,0.0,0.0,0.0,0.0,0.0,0.0,0.0,0.0,0.0,0.0,0.0,0.0,0.0,0.0,0.0,0.0,0.0,0.0,0.0,0.0,0.0,0.0,0.0,0.0,0.0,0.0,0.0,0.0,0.0,0.0,0.0,0.0,0.0,0.0,0.0,0.0,2.01,2.0238,2.0238,2.1631,2.2297,2.2372,0.0,0.0,0.0,0.0,0.0,0.0,0.0,0.0,0.0,0.0,0.0,0.0,0.0,0.0,0.0,0.0,0.0,0.0,0.0,0.0,0.0,0.0,0.0,0.0,0.0,0.0,0.0,0.0,0.0,0.0,0.0,0.0,0.0,0.0,0.0,0.0,0.0,0.0,0.0,0.0,0.0,0.0,0.0,0.0,0.0,0.0,0.0,0.0,0.0,0.0,0.0,0.0,0.0,0.0,0.0,0.0,0.0,0.0,0.0,0.0,0.0,0.0,0.0,0.0,0.0,0.0,0.0,0.0,0.0,0.0,0.0,1.9775,0.0,0.0,0.0,0.0,0.0,0.0,0.0,0.0,0.0,0.0,0.0,0.0,0.0,0.0,0.0,0.0,0.0,0.0,0.0,0.0,0.0,0.0,0.0,0.0,2.1104,2.2221,2.1393,0.0,0.0,0.0,0.0,0.0,0.0,0.0,0.0,1.9798,1.9798,1.9798,1.9911,2.0526,2.1656,2.2661,2.2648,2.1807,2.2623,0.0,0.0,0.0,0.0,0.0,0.0,0.0,0.0,0.0,0.0,0.0,0.0,0.0,0.0,0.0,0.0,0.0,0.0,0.0,0.0,0.0,0.0,0.0,0.0,0.0,0.0,0.0,0.0,0.0,0.0,0.0,0.0,0.0,0.0,0.0,0.0,0.0,0.0,0.0,0.0,0.0,0.0,0.0,0.0,0.0,0.0,0.0,0.0,0.0,0.0,0.0,0.0,0.0,0.0,0.0,0.0,0.0,0.0,0.0,0.0,0.0,0.0,0.0,2.3206,2.2695,2.3379,2.3379,2.3184,2.2783,2.1709,2.1074,2.0644,1.8861,0.0,0.0,0.0,0.0,0.0,0.0,0.0,0.0,0.0,0.0,0.0,0.0,0.0,0.0,0.0,0.0,0.0,0.0,0.0,0.0,0.0,2.0756,2.1104,2.2221,2.1744,2.1631,0.0,0.0,0.0,0.0,0.0,0.0,1.9798,1.9798,1.9798,1.9798,2.03,2.1117,2.2221,2.2836,2.3002,2.284,2.2573,2.3226,2.4506,0.0,0.0,0.0,0.0,0.0,0.0,0.0,0.0,0.0,0.0,0.0,0.0,0.0,0.0,0.0,0.0,0.0,0.0,0.0,0.0,0.0,0.0,0.0,0.0,0.0,0.0,0.0,0.0,0.0,0.0,0.0,0.0,0.0,0.0,0.0,0.0,0.0,0.0,0.0,0.0,0.0,2.4161,2.343,0.0,0.0,0.0,0.0,0.0,0.0,0.0,0.0,0.0,0.0,0.0,0.0,0.0,2.8302,2.8302,2.6677,2.5973,2.6117,2.4747,2.4141,2.4248,2.4248,2.4219,2.416,2.3984,0.0,2.1559,1.9626,0.0,0.0,0.0,0.0,0.0,0.0,0.0,0.0,0.0,0.0,0.0,0.0,0.0,0.0,0.0,0.0,0.0,0.0,0.0,0.0,0.0,2.1029,2.1907,2.2711,2.3138,2.3069,2.238,0.0,0.0,0.0,0.0,2.0105,1.9798,1.9799,2.0091,2.0785,2.1622,2.2472,2.3276,2.3828,2.4079,2.4079,2.3828,2.3966,2.4305,2.3577,0.0,0.0,0.0,0.0,0.0,0.0,0.0,0.0,0.0,0.0,0.0,0.0,0.0,0.0,0.0,0.0,0.0,0.0,0.0,0.0,0.0,0.0,0.0,0.0,0.0,0.0,0.0,0.0,0.0,0.0,0.0,0.0,0.0,0.0,0.0,0.0,0.0,0.0,0.0,2.303,2.3382,2.1587,2.1248,2.0465,0.0,0.0,0.0,0.0,0.0,0.0,0.0,0.0,0.0,2.8469,2.9535,3.0275,3.0692,2.8929,2.7897,2.7531,2.5931,2.5156,2.5156,2.5156,2.4756,2.4029,2.357,2.2585,2.1032,1.9678,1.8171,1.6589,0.0,0.0,0.0,0.0,1.3728,1.3754,0.0,0.0,0.0,0.0,0.0,0.0,0.0,0.0,0.0,0.0,0.0,0.0,2.0143,2.1448,2.2648,2.3489,2.4067,2.3929,2.2824,2.2209,0.0,0.0,2.0028,2.0055,2.0055,2.0187,2.0804,2.197,2.2738,2.3577,2.4418,2.4833,2.5096,2.5247,2.5247,2.5008,2.4607,2.418,2.3188,2.1882,0.0,0.0,0.0,0.0,0.0,0.0,0.0,0.0,0.0,0.0,0.0,0.0,0.0,0.0,0.0,0.0,0.0,0.0,0.0,0.0,0.0,0.0,0.0,0.0,0.0,0.0,0.0,0.0,0.0,0.0,0.0,0.0,0.0,0.0,0.0,0.0,0.0,2.3403,2.3525,2.0753,2.1242,2.0794,0.0,0.0,0.0,0.0,0.0,0.0,2.5597,2.7899,2.9923,3.1462,3.2014,3.2506,3.2961,3.0584,2.9228,2.8768,2.6676,2.5742,2.5742,2.5742,2.4963,2.361,2.3021,2.177,1.9981,1.9092,1.7842,1.6226,1.484,1.4309,1.4415,1.4802,1.4792,1.4774,0.0,0.0,0.0,0.0,0.0,0.0,0.0,0.0,0.0,0.0,0.0,1.9623,2.1251,2.1941,2.2962,2.4594,2.3816,2.3414,2.3879,2.1933,2.0769,2.068,2.0707,2.0759,2.0759,2.1259,2.2049,2.3231,2.3119,2.3954,2.5523,2.5548,2.585,2.6445,2.6445,2.6433,2.6294,2.4669,2.3627,2.2902,2.1907,0.0,0.0,0.0,0.0,0.0,0.0,0.0,0.0,0.0,0.0,0.0,0.0,0.0,0.0,0.0,0.0,0.0,0.0,0.0,0.0,0.0,0.0,0.0,0.0,0.0,0.0,0.0,0.0,0.0,0.0,0.0,0.0,0.0,0.0,0.0,0.0,0.0,0.0,2.3857,2.3979,0.0,0.0,0.0,0.0,2.2149,2.4932,2.7468,2.9456,3.2433,3.4346,3.4943,3.5018,3.5154,3.5182,3.1342,2.9396,2.9373,2.6829,2.5742,2.5742,2.5742,2.4811,2.3335,2.329,2.1386,1.8323,1.7621,1.7229,1.6989,1.5556,1.4917,1.5061,1.5871,1.6082,1.6122,0.0,0.0,0.0,0.0,0.0,0.0,0.0,0.0,0.0,1.8113,1.9746,2.1028,2.1419,2.3767,2.5434,2.5854,2.6151,2.5812,2.4607,2.3825,2.2946,2.1953,2.2011,2.2234,2.267,2.2318,2.2711,2.3878,2.3739,2.4167,2.5096,2.4534,2.4366,2.456,2.4957,2.4759,2.4236,2.4797,2.4293,2.3015,2.2322,2.0952,0.0,0.0,0.0,0.0,0.0,0.0,0.0,0.0,0.0,0.0,0.0,0.0,0.0,0.0,0.0,0.0,0.0,0.0,0.0,0.0,0.0,0.0,0.0,0.0,0.0,0.0,0.0,0.0,0.0,0.0,0.0,0.0,0.0,0.0,0.0,0.0,0.0,2.5219,2.6086,0.0,2.3393,2.3931,2.5143,2.7046,2.9468,3.1612,3.3155,3.5205,3.6285,3.6245,3.5955,3.5528,3.4915,3.1902,3.0034,2.9407,2.7232,2.5859,2.5303,2.5303,2.3972,2.1533,2.1285,1.9606,1.7001,1.648,1.6306,1.6292,1.5737,1.5975,1.6755,1.6766,1.7251,1.7811,0.0,0.0,0.0,0.0,0.0,0.0,0.0,0.0,1.8254,1.8635,2.0326,2.1781,2.2565,2.5127,2.685,2.7012,2.7344,2.6905,2.5243,2.4434,2.3662,2.2886,2.3147,2.3412,2.3645,2.3296,2.3406,2.4161,2.3842,2.3891,2.4329,2.3598,2.3202,2.31,2.3429,2.3329,2.301,2.4196,2.3796,2.238,2.2176,2.1255,1.9939,0.0,0.0,0.0,0.0,0.0,0.0,0.0,0.0,0.0,0.0,0.0,0.0,0.0,0.0,0.0,0.0,0.0,0.0,0.0,0.0,0.0,0.0,0.0,0.0,0.0,0.0,0.0,0.0,0.0,0.0,0.0,0.0,0.0,0.0,2.9493,2.9974,2.7837,2.8973,2.9108,2.6992,2.817,2.9776,3.1489,3.3893,3.5683,3.663,3.7865,3.8057,3.7166,3.6487,3.5682,3.4746,3.1853,3.0057,2.9407,2.7242,2.5781,2.5068,2.4679,2.2999,2.0371,1.9755,1.8183,1.6106,1.5912,1.6015,1.648,1.648,1.7217,1.828,1.8277,1.8844,1.9678,0.0,0.0,0.0,0.0,0.0,0.0,0.0,1.8145,1.8565,1.98,2.0389,2.1771,2.4596,2.5845,2.6961,2.7984,2.7125,2.626,2.5811,2.3704,2.2769,2.3392,2.4131,2.4266,2.3622,2.411,2.4286,2.4053,2.3361,2.312,2.3394,2.284,2.2406,2.2059,2.207,2.2363,2.2753,2.2823,2.2065,2.1019,2.151,2.1384,2.0926,0.0,0.0,0.0,0.0,0.0,0.0,0.0,0.0,0.0,0.0,0.0,0.0,0.0,0.0,0.0,0.0,0.0,0.0,0.0,0.0,0.0,0.0,0.0,0.0,0.0,0.0,0.0,0.0,0.0,0.0,0.0,0.0,0.0,3.1801,3.3409,3.3789,3.1818,3.2653,3.2515,3.0159,3.2702,3.4765,3.5304,3.8036,3.9726,3.9765,4.0334,3.9829,3.7829,3.6774,3.5748,3.4746,3.1163,2.9396,2.9385,2.6914,2.5478,2.5029,2.3858,2.2057,2.0008,1.8807,1.7311,1.5832,1.5825,1.6574,1.7777,1.7762,1.8488,1.9612,2.0368,2.1043,2.1607,0.0,0.0,0.0,0.0,0.0,0.0,0.0,1.9214,1.9649,2.0773,2.2307,2.3695,2.4789,2.64,2.7391,2.7515,2.6573,2.5903,2.5773,2.4861,2.4732,2.5531,2.5741,2.5798,2.5704,2.4479,2.3756,2.3619,2.1968,2.1186,2.1236,2.0205,1.9684,1.9565,1.9918,2.0007,1.9818,2.0428,2.0519,2.0266,2.1039,2.1394,2.1459,0.0,0.0,0.0,0.0,0.0,0.0,0.0,0.0,0.0,0.0,0.0,0.0,0.0,0.0,0.0,0.0,0.0,0.0,0.0,0.0,0.0,0.0,0.0,0.0,0.0,0.0,0.0,0.0,0.0,0.0,0.0,3.3911,3.5143,3.5161,3.6014,3.6373,3.5613,3.5862,3.5864,3.5183,3.6475,3.7741,3.8572,4.0293,4.1065,4.0479,4.0582,3.9829,3.7829,3.6774,3.5748,3.4746,3.1163,2.9228,2.8982,2.6433,2.4863,2.4141,2.2917,2.1406,1.9645,1.8365,1.7116,1.5825,1.6756,1.7863,1.8915,1.8512,1.9132,2.0403,2.0318,2.0518,2.0927,0.0,0.0,0.0,0.0,0.0,0.0,0.0,2.0039,2.0386,2.1574,2.2527,2.3455,2.4491,2.5308,2.5794,2.5894,2.4952,2.4376,2.4543,2.4805,2.5029,2.5095,2.5893,2.5864,2.4864,2.403,2.3111,2.2122,2.0958,2.0064,1.9361,1.8876,1.8415,1.8134,1.8583,1.8487,1.8057,1.8954,1.9219,1.9125,2.0254,2.1252,2.2132,2.218,2.2799,2.3655,2.3557,2.3878,2.4165,2.3146,0.0,0.0,0.0,0.0,0.0,0.0,0.0,0.0,0.0,0.0,0.0,0.0,0.0,0.0,0.0,0.0,0.0,0.0,0.0,0.0,0.0,0.0,0.0,0.0,3.8122,3.9408,4.0275,3.9752,3.9243,3.9084,3.8891,3.8877,3.9209,3.9748,4.0442,4.1278,4.2118,4.2189,4.128,4.0878,3.9829,3.7829,3.6774,3.5612,3.4362,3.0918,2.8858,2.8365,2.5962,2.4156,2.3047,2.1731,2.0306,0.0,1.7404,1.6756,1.6669,1.7412,1.8851,0.0,0.0,0.0,0.0,0.0,2.152,2.129,0.0,0.0,0.0,0.0,0.0,0.0,0.0,2.0682,2.0814,2.2096,2.1816,2.213,2.3804,2.3393,2.3237,2.372,2.2908,2.2605,2.3198,2.4254,2.4482,2.367,2.5161,2.495,2.2746,2.3077,2.2298,2.0282,2.0096,1.9249,1.7848,1.8041,1.7789,1.7193,1.7466,1.7385,1.7045,1.784,1.8075,1.7963,1.9183,2.0844,2.2626,2.3122,2.405,2.505,2.4833,2.4695,2.4633,2.4487,0.0,0.0,0.0,0.0,0.0,0.0,0.0,0.0,0.0,0.0,0.0,0.0,0.0,0.0,0.0,0.0,0.0,0.0,0.0,0.0,0.0,0.0,0.0,0.0,4.2487,4.3753,4.5727,4.3844,4.2221,4.2068,4.1429,4.1273,4.202,4.2193,4.2574,4.325,4.3273,4.2909,4.2062,0.0,0.0,0.0,0.0,3.5382,3.3671,3.0414,2.8432,2.7667,2.5239,2.3369,2.1861,2.0441,1.9058,1.7598,1.648,1.6669,1.7692,1.7956,1.9834,2.2414,2.2375,2.2675,2.326,2.3787,2.3155,2.223,0.0,0.0,0.0,0.0,0.0,0.0,0.0,2.1118,2.1164,2.1972,2.1939,2.2087,2.2706,2.2565,2.2636,2.3064,2.2826,2.3249,2.4767,2.508,2.5337,2.5608,2.5099,2.4366,2.3409,2.2009,2.0769,1.9734,1.8069,1.7088,1.6764,1.6004,1.564,1.5725,1.5449,1.5411,1.5627,1.5769,1.642,1.7442,1.8261,1.9736,2.1632,2.2678,2.3664,2.4527,2.494,2.5621,2.613,2.5135,2.4769,2.4718,2.4516,2.3676,0.0,0.0,0.0,0.0,0.0,0.0,0.0,0.0,0.0,0.0,0.0,0.0,0.0,0.0,0.0,0.0,0.0,0.0,0.0,4.2112,4.4042,4.5748,4.7063,4.5968,4.4661,4.3703,4.2415,4.1692,4.185,4.2135,4.2354,4.2489,4.2974,4.2909,4.2062,4.1147,3.9829,3.7829,3.6774,3.513,3.3005,3.0232,2.8077,2.6608,0.0,0.0,2.1329,1.9144,1.8016,1.7692,1.7412,1.7505,1.787,1.9761,2.2026,2.4263,2.3883,2.3888,2.4038,2.3623,2.3046,2.2657,0.0,0.0,0.0,0.0,0.0,0.0,0.0,2.1568,2.1535,2.2216,2.1817,2.1685,2.2165,2.1643,2.1499,2.2129,2.2497,2.3111,2.418,2.4568,2.473,2.4654,2.3938,2.2833,2.1315,2.0306,1.9141,1.7743,1.6922,1.614,1.5332,1.5179,1.4941,1.4698,1.4848,1.4779,1.445,1.5021,1.5556,1.6315,1.7724,1.9169,2.064,2.2222,2.3258,2.4083,2.5025,2.5612,2.5968,2.5919,2.5575,2.5277,2.5837,2.5488,2.4859,0.0,0.0,0.0,0.0,0.0,0.0,0.0,0.0,0.0,0.0,0.0,0.0,0.0,0.0,3.7228,3.8967,0.0,4.3365,4.5849,4.7101,4.7952,4.8509,4.7494,4.6195,4.4797,4.3105,4.2121,4.2324,4.1977,4.2066,4.2794,4.2047,4.1698,4.1965,4.0106,3.8687,3.7814,3.6494,3.4526,3.2059,2.9675,2.7491,2.5567,2.2853,2.1229,2.0305,1.8503,1.7692,1.7692,1.7692,1.8411,1.9728,2.2112,2.3875,2.5153,2.4989,2.4927,2.486,2.3998,2.3545,2.3315,0.0,0.0,0.0,0.0,0.0,0.0,0.0,0.0,2.1903,2.234,2.1643,2.1319,2.1848,2.1044,2.0822,2.1746,2.236,2.2894,2.3283,2.3641,2.3539,2.2857,2.2328,2.1083,1.8903,1.8629,1.7564,1.5652,1.5905,1.5352,1.4029,1.4458,1.4442,1.3955,1.4383,1.4109,1.3455,1.4307,1.4871,1.5325,1.7125,1.8553,1.981,2.1327,2.247,2.3345,2.4461,2.4694,2.4688,2.5926,2.5486,2.4798,2.6614,2.6911,2.6525,2.6153,2.6842,0.0,0.0,0.0,0.0,0.0,0.0,0.0,0.0,3.4558,3.5456,3.6781,3.8668,4.0824,4.3218,4.4781,4.6578,4.9361,4.9827,4.9785,4.9611,4.849,4.7115,4.5592,4.366,4.2523,4.2668,4.1916,4.173,4.2715,4.0981,4.032,4.1326,3.865,3.7195,3.7296,3.5822,3.3622,3.0832,2.8974,2.6791,2.4227,2.2031,2.0305,1.9131,1.7863,1.7505,1.7692,1.8234,1.972,2.1992,2.3854,2.4937,2.5431,2.5456,2.5385,2.5184,2.4318,2.3866,2.3555,0.0,0.0,0.0,0.0,0.0,0.0,0.0,0.0,0.0,2.1774,2.1606,2.1528,2.1544,2.1432,2.1766,2.2845,2.3034,2.3277,2.3628,2.2983,2.2372,2.1865,2.0779,1.9622,1.8333,1.747,1.632,1.4844,1.4571,1.4134,1.3479,1.2852,1.2757,1.3215,1.2516,1.2339,1.2445,1.2592,1.3593,1.53,1.6067,1.74,1.9022,1.9316,2.0343,2.1812,2.2414,2.2337,2.2179,2.375,2.3852,2.3882,2.702,2.8015,2.7987,2.8076,2.8201,2.7822,2.5679,2.6559,2.8697,3.1373,3.3115,3.5097,0.0,3.998,4.0781,4.1944,4.4099,4.5757,4.5686,4.762,4.9361,4.9741,5.0331,5.0482,4.9708,4.8692,4.7465,4.5935,4.4178,4.2795,4.1984,4.198,4.1579,4.0553,4.0118,3.9642,3.9121,3.7237,3.6012,3.5579,3.451,3.2358,2.911,2.8415,2.6144,2.2308,2.0559,1.9047,1.787,1.6567,1.6669,1.7777,1.9943,2.1964,2.3722,2.397,2.4414,2.4898,2.4913,2.4607,2.4167,2.4042,2.3282,2.2137,0.0,0.0,0.0,0.0,0.0,0.0,0.0,0.0,0.0,0.0,2.2241,2.2289,2.247,2.2659,2.2884,2.3136,2.3374,2.3466,2.3425,2.2765,2.2032,2.1152,1.9683,1.8188,1.6671,1.6103,1.5188,1.3931,1.43,1.4007,1.296,1.2818,1.2586,1.2367,1.1591,1.1659,1.2224,1.1694,1.2739,1.4861,1.5308,1.6485,1.8092,1.8258,1.8869,1.9648,2.02,2.025,0.0,2.1606,2.2109,2.2613,2.5242,2.6193,2.6468,2.707,2.7857,2.8494,2.8353,3.029,3.2673,3.4146,3.6564,3.9094,4.0945,4.2377,4.3433,4.3985,4.5706,4.7235,4.7619,4.8564,4.9567,5.0465,5.085,5.0778,5.0094,4.8741,4.74,4.6346,4.404,4.2341,4.1866,4.1192,4.0561,4.0106,3.8777,3.8169,3.8663,3.6215,3.4825,3.4775,3.3467,3.1203,2.8,2.7712,2.5577,2.1554,2.0201,1.8864,1.7692,1.7131,1.8288,2.0864,2.1674,2.3294,2.5329,2.408,2.4253,2.5203,2.4564,2.4205,2.4004,2.4004,2.2973,2.1511,0.0,0.0,0.0,0.0,0.0,0.0,0.0,0.0,0.0,0.0,2.2695,2.2797,2.3045,2.3369,2.3459,2.3212,2.3346,2.3214,2.2765,2.2128,2.1232,2.0049,1.8536,1.6979,1.5472,1.5003,1.4198,1.311,1.3743,1.3469,1.2316,1.234,1.2104,1.1552,1.0781,1.0938,1.1842,1.1087,1.2078,1.4235,1.4638,1.5747,1.7192,1.7392,1.7775,1.8274,1.8641,1.8706,1.8744,1.9836,2.0502,2.1228,2.3506,2.465,2.5424,2.6441,2.7652,2.8956,3.052,3.3038,3.5518,3.6658,3.9577,4.2285,4.2785,4.407,4.5172,4.5269,4.6443,4.7681,4.8417,4.871,4.9289,5.0644,5.0778,5.0442,4.9719,4.8464,4.7087,4.5736,4.3527,4.1796,4.1033,4.0096,3.9343,3.8909,3.7436,3.6925,3.7751,3.5184,3.379,3.4112,3.2209,2.9875,2.7296,2.6945,2.4763,2.0755,1.9943,1.8672,1.7225,1.7863,1.9686,2.238,2.2758,2.396,2.5529,2.41,2.4154,2.5046,2.3954,2.3404,2.3195,2.3046,2.2043,2.0617,0.0,0.0,0.0,0.0,0.0,0.0,0.0,0.0,0.0,0.0,0.0,0.0,0.0,2.3021,2.3212,2.3189,2.2923,2.2398,2.1589,2.075,1.9632,1.8238,1.7079,1.607,1.5333,1.4317,1.3378,1.2422,1.2313,1.197,1.143,1.0787,1.0609,1.0777,0.982,0.9895,1.0858,1.0783,1.1801,1.34,1.4089,1.5109,1.6266,1.6371,1.719,1.8197,1.8202,1.789,1.7601,1.8706,1.9079,1.9575,2.2498,2.4476,2.5926,2.7266,2.8147,2.9152,3.1221,3.3264,3.5538,3.8539,4.1447,4.3785,4.4705,4.5605,4.625,4.6269,4.6972,4.7598,4.7637,4.8211,4.9001,4.9894,4.9829,4.9238,4.8043,4.7717,4.6537,4.3646,4.261,4.127,3.9097,3.8814,3.7897,3.5861,3.6243,3.6305,3.5614,3.3699,3.2883,3.3431,3.059,2.8456,2.7296,2.6163,2.3614,1.9579,1.9497,1.8211,1.592,1.8303,1.9928,2.0898,2.3042,2.3748,2.3441,2.3804,2.3984,2.3929,2.2799,2.1925,2.12,2.0686,2.0006,1.9197,0.0,0.0,0.0,0.0,0.0,0.0,0.0,0.0,0.0,0.0,0.0,0.0,0.0,0.0,0.0,0.0,2.2772,2.2262,2.1243,2.0555,1.9566,1.8171,1.6638,1.532,1.4279,1.3588,1.2638,1.1516,1.141,1.1089,1.0528,0.9862,0.9491,0.9427,0.8637,0.8752,0.9493,0.9504,1.0331,1.1791,1.29,1.4108,1.5321,1.5941,1.6777,1.7642,0.0,1.8026,1.7919,1.8265,1.8865,1.9666,2.1287,2.2984,2.4842,2.7263,2.942,3.1367,3.3012,3.5745,3.8639,4.0843,4.2962,4.4763,4.5664,4.6543,4.6992,4.6426,4.6074,4.5879,4.5879,4.6072,4.6493,4.7279,4.823,4.8606,4.7852,4.6969,4.563,4.3535,4.1597,3.9451,3.6942,3.7003,3.7009,3.6444,3.5644,3.552,3.6197,3.3901,3.2376,3.183,2.9543,2.7521,2.57,2.445,2.2441,1.9488,1.8688,1.8103,1.7879,1.9571,2.1102,2.2531,2.2608,2.3308,2.4387,2.3391,2.3156,2.329,2.204,2.1174,2.051,1.8973,1.7884,1.7119,0.0,0.0,0.0,0.0,0.0,0.0,0.0,0.0,0.0,0.0,0.0,0.0,0.0,0.0,0.0,0.0,0.0,2.1943,2.1055,2.0187,1.9221,1.8131,1.6255,1.4903,1.429,1.2978,1.2006,1.1383,1.1003,1.0437,0.9767,0.9195,0.8689,0.8207,0.7465,0.7513,0.8267,0.8472,0.9382,1.0792,1.195,1.3273,1.4654,1.5519,1.6585,0.0,1.8391,1.8806,1.8987,1.8517,1.9016,2.0061,2.1328,2.3441,2.591,2.8241,3.0664,3.3064,3.5215,3.7998,4.0794,4.2812,4.4414,4.5605,4.6172,4.6738,4.6797,4.5605,4.4687,4.3984,4.3691,4.332,4.3434,4.4528,4.5508,4.6201,4.6333,4.5532,4.4354,4.2729,4.0793,3.8552,3.5874,3.553,3.5404,3.5247,3.5002,3.4984,3.5347,3.3636,3.1965,3.0475,2.8555,2.6431,2.3998,2.2869,2.0968,1.8563,1.7682,1.7748,1.8666,1.9755,2.131,2.3198,2.2498,2.3011,2.4339,2.3195,2.2764,2.2643,2.1231,2.0274,1.9506,1.772,1.6353,1.5434,0.0,0.0,0.0,0.0,0.0,0.0,0.0,0.0,0.0,0.0,0.0,0.0,0.0,0.0,0.0,0.0,0.0,0.0,2.0991,1.9596,1.8579,1.8092,1.5891,1.4875,1.5178,1.2674,1.1477,1.1814,1.0938,1.0129,0.9244,0.8785,0.8074,0.7223,0.6335,0.6403,0.7351,0.8006,0.904,1.0332,1.1391,1.2742,1.4254,1.5256,1.6705,1.8369,1.9361,2.0218,2.0719,1.9459,1.9752,2.0999,2.2824,2.5909,2.9062,3.0374,3.2113,3.4365,3.777,4.0012,4.1972,4.4433,4.5664,4.6269,4.623,4.6171,4.5664,4.3925,4.2832,4.1953,4.1133,4.0272,4.0227,4.187,4.2139,4.2555,4.3811,4.3654,4.2862,4.1377,4.0173,3.8482,3.5859,3.4345,3.325,3.2479,0.0,3.4743,3.3303,3.2806,3.1562,2.9515,2.7544,2.5204,2.2428,2.1265,1.9349,1.6675,1.6675,1.7265,1.8349,1.9173,2.0675,2.2573,2.2688,2.2914,2.319,2.3084,2.2749,2.2063,2.0266,1.9121,1.8294,1.6903,1.5467,1.4118,0.0,0.0,0.0,0.0,0.0,0.0,0.0,0.0,0.0,0.0,0.0,0.0,0.0,0.0,0.0,0.0,0.0,0.0,2.0516,1.9417,1.8398,1.7477,1.5672,1.4326,1.3463,1.2521,1.1584,1.0701,1.0027,0.9326,0.8626,0.7949,0.7482,0.7149,0.7064,0.7098,0.7269,0.8663,0.937,0.98,1.1947,1.358,1.4916,1.6784,1.8577,2.0139,2.0949,2.173,2.2312,2.2032,2.3632,2.6131,2.84,3.0348,3.2287,3.4754,3.6665,3.8486,4.0715,4.2529,4.4118,4.5352,4.5839,4.5845,4.5241,4.4604,4.3655,4.1964,4.0404,3.9106,3.8361,3.9554,4.0823,4.1362,4.3469,4.5105,4.5356,4.4275,4.2943,4.1526,3.9315,3.7053,3.4874,3.3512,3.2305,3.1105,3.2421,3.3683,3.4592,3.2892,3.0758,2.8379,2.714,2.487,2.1302,1.9011,1.7022,1.5479,1.7121,1.7795,1.7532,2.0065,2.1237,2.1167,2.2162,2.2409,2.2135,2.2369,2.1958,2.0944,1.9406,1.8385,1.7601,1.5869,1.4297,1.2981,0.0,0.0,0.0,0.0,0.0,0.0,0.0,0.0,0.0,0.0,0.0,0.0,0.0,0.0,0.0,0.0,0.0,0.0,0.0,1.9045,1.8129,1.73,1.5596,1.4365,1.3643,1.283,1.1939,1.097,1.0635,0.9995,0.9079,0.877,0.8397,0.7971,0.8116,0.8149,0.8077,0.9273,1.0038,0.0,0.0,1.4422,1.6182,1.78,1.9627,2.1481,2.2344,2.4012,2.5922,2.6533,2.7808,2.9596,3.1928,3.3385,3.4792,3.7503,3.8946,4.0103,4.2208,4.3712,4.4878,4.5704,4.5626,4.5051,4.3833,4.2907,4.161,3.9163,3.7871,3.6845,3.5665,3.7201,3.8721,3.8843,4.1365,4.3381,4.3619,4.297,4.2041,4.0959,3.8743,3.6513,3.4542,3.2978,3.1614,3.06,3.145,3.2109,3.2357,3.1576,2.9675,2.6753,2.6324,2.4043,1.9692,1.6777,1.5042,1.4382,1.6467,1.7162,1.6768,1.9717,2.11,2.1231,0.0,2.2037,2.2286,2.1778,2.0902,1.9773,1.8386,1.7323,1.6353,1.4661,1.33,1.2224,0.0,0.0,0.0,0.0,0.0,0.0,0.0,0.0,0.0,0.0,0.0,0.0,0.0,0.0,0.0,0.0,0.0,0.0,0.0,0.0,1.7773,1.7079,1.552,1.4606,1.4479,1.3233,1.2295,1.1814,1.1867,1.1293,1.0126,1.0346,1.0066,0.9299,0.9299,0.9299,0.9399,1.0046,1.1027,1.2142,1.3521,1.5457,1.7624,0.0,2.046,2.2531,2.3684,2.6353,2.9566,3.1025,3.1651,3.2208,3.4456,3.5859,3.7144,3.9642,4.031,4.0766,4.3034,4.416,4.4858,4.5537,4.5121,4.4044,4.2228,4.1118,3.9513,3.6207,3.5565,3.5079,3.3446,3.4624,3.5948,3.6183,3.8164,4.0019,4.0976,4.0913,4.0597,4.0094,3.8125,3.6078,3.4233,3.2274,3.072,2.9897,3.0232,3.0016,2.8843,2.9562,2.8482,2.5082,2.4843,2.2544,1.7979,1.5047,1.3546,1.3581,1.5382,1.6195,1.6213,1.8842,2.0665,2.1677,0.0,0.0,2.2686,2.1112,1.9777,1.8637,1.727,1.612,1.5008,1.3553,1.2497,1.1771,0.0,0.0,0.0,0.0,0.0,0.0,0.0,0.0,0.0,0.0,2.2939,2.2349,0.0,0.0,0.0,0.0,0.0,0.0,0.0,0.0,0.0,1.5855,1.5118,1.4247,1.3248,1.2939,1.2478,1.1814,1.1799,1.1421,1.064,1.0705,1.0669,1.0506,1.0506,1.0506,1.0601,1.1796,1.2461,1.2871,1.5661,1.7276,1.8289,2.0249,0.0,0.0,2.5492,2.6945,2.8326,3.0812,3.3161,3.5424,3.7864,3.9321,4.0617,4.3097,4.3552,4.3505,4.4646,4.4787,4.4657,4.4791,4.4186,4.2974,4.0863,3.9174,3.7332,3.4702,3.4314,3.4125,3.2995,3.4933,3.6946,3.7741,3.8853,4.037,4.2477,4.0631,3.9204,3.9717,3.6559,3.3759,3.2383,3.022,2.8237,2.6579,2.6309,2.7025,2.8726,2.841,2.7213,2.5048,2.1364,1.875,1.7596,1.4938,1.3527,1.328,1.5273,1.5996,1.5856,1.939,2.0643,2.0198,2.15,0.0,2.1029,1.9719,1.8835,1.8037,1.621,1.5351,1.4977,1.3233,1.2167,1.1452,0.0,0.0,0.0,0.0,0.0,0.0,0.0,2.3611,2.3773,2.4149,2.3829,2.3283,2.2578,2.2311,2.1759,0.0,0.0,0.0,0.0,0.0,0.0,0.0,0.0,0.0,1.3372,1.3283,1.2937,1.2344,0.0,1.2401,1.1891,1.1891,1.1891,1.1891,1.1891,1.208,1.2385,1.3024,1.3679,1.4468,1.6846,1.8513,1.9767,0.0,0.0,0.0,2.7377,2.8367,2.9064,3.1232,3.2871,3.4652,3.8305,4.0025,4.1168,4.3613,4.3728,4.335,4.4603,4.4773,4.458,4.458,4.3617,4.1949,3.9113,3.7562,3.5837,3.2898,3.308,3.3489,3.2556,3.4295,3.5868,3.5844,3.7017,3.8346,3.956,3.8594,3.7755,3.7721,3.4997,3.2508,3.0869,2.8633,2.6517,2.4684,2.4124,2.4635,2.635,2.5369,2.4225,2.3218,1.9201,1.6779,1.6063,1.4173,1.3335,1.3726,1.5032,1.5794,1.6191,1.91,2.015,1.9795,2.0973,0.0,1.9687,1.8823,1.7592,1.621,1.5264,1.4549,1.3821,1.2184,1.1396,1.0949,0.0,0.0,0.0,0.0,0.0,0.0,0.0,2.3716,2.3951,2.4862,2.5095,2.4685,2.3391,2.2851,2.2051,0.0,0.0,0.0,0.0,0.0,0.0,0.0,0.0,0.0,1.36,0.0,0.0,1.3018,1.3481,0.0,0.0,0.0,0.0,0.0,1.3104,1.3382,1.3815,1.4097,1.4869,0.0,0.0,1.9787,0.0,0.0,0.0,0.0,0.0,2.9289,2.9727,3.1182,3.1865,3.2785,3.6664,3.8734,4.0165,4.2228,4.2467,4.2375,4.3818,4.4288,4.4364,4.4364,4.3125,4.1079,3.7953,3.649,3.4945,3.1975,3.2447,3.3164,3.2445,3.3392,3.4151,3.3636,3.4506,3.5457,3.6056,3.6083,3.5803,3.5249,3.3393,3.1375,2.9336,2.7267,2.5334,2.3539,2.2615,2.262,2.3735,2.2374,2.1446,2.1051,1.7895,1.5775,1.4889,1.3589,1.3329,1.4137,1.486,1.5627,1.6365,1.8564,1.9493,1.9398,2.0041,0.0,0.0,1.7729,1.6271,1.4599,1.4307,1.3579,1.251,1.1275,1.072,1.0415,0.0,0.0,0.0,0.0,0.0,0.0,0.0,2.3981,2.4881,2.6302,2.6607,2.6297,2.518,2.3427,2.204,0.0,0.0,0.0,0.0,0.0,0.0,0.0,0.0,0.0,0.0,0.0,0.0,1.3447,1.4152,0.0,0.0,0.0,0.0,0.0,0.0,1.3732,1.3862,1.4949,0.0,0.0,0.0,0.0,0.0,0.0,0.0,0.0,0.0,2.8352,2.8695,2.9689,3.05,3.1348,3.2585,3.5136,3.784,3.8745,4.0268,4.1838,4.2725,4.3262,4.3597,4.3597,4.24,4.0603,3.8265,3.6552,3.4933,3.3171,3.3112,3.3291,3.2997,3.2668,3.2656,3.3318,3.2352,3.2294,3.4642,3.3732,3.2822,3.2822,3.1678,2.9936,2.7478,2.619,2.4734,2.291,2.1464,2.112,2.2103,2.0963,2.0004,1.9521,1.7322,1.584,1.5199,1.4015,1.3633,1.3972,1.4858,1.5364,1.5494,1.8017,1.8873,1.8473,1.8885,0.0,0.0,1.5803,1.4782,1.4518,1.3459,1.2578,1.1823,1.1065,1.0415,0.9762,0.0,0.0,0.0,0.0,0.0,0.0,2.3304,2.3646,2.4416,2.5944,2.6276,2.627,2.5994,2.4599,2.2942,2.1094,0.0,0.0,0.0,0.0,0.0,0.0,0.0,0.0,0.0,0.0,1.3581,1.4173,1.4683,0.0,0.0,0.0,0.0,0.0,0.0,1.4827,1.4971,1.6154,0.0,0.0,0.0,0.0,0.0,0.0,0.0,0.0,0.0,0.0,2.8179,2.9035,2.9202,2.913,2.9467,3.1173,3.3639,3.6569,3.8558,4.0062,4.0972,4.212,4.3014,4.3014,4.1433,3.9446,3.7952,3.6325,3.4703,3.3105,3.3222,3.3605,3.3499,3.2524,3.1823,3.2139,3.0857,3.0381,3.2047,3.1162,3.0418,3.0574,2.9355,2.7641,2.542,2.4239,2.2737,2.0455,1.9324,1.8656,1.8351,1.8228,1.776,1.6958,1.5177,1.3761,1.2939,1.2466,1.2814,1.4024,1.441,1.5136,1.6182,1.785,1.8272,1.7658,1.8193,0.0,0.0,1.5064,1.4216,1.3479,1.2607,1.208,1.1665,1.061,1.0012,0.9718,0.0,0.0,0.0,0.0,0.0,2.249,2.311,2.3365,2.4014,2.5448,2.5735,2.6,2.6388,2.5168,2.3523,2.1467,1.9964,0.0,0.0,0.0,0.0,0.0,0.0,0.0,0.0,0.0,1.3902,1.4761,1.556,1.6265,0.0,0.0,1.665,1.5761,0.0,0.0,0.0,0.0,0.0,0.0,0.0,0.0,0.0,0.0,0.0,0.0,0.0,0.0,0.0,0.0,0.0,2.8117,2.7879,2.8654,3.0314,3.3647,3.6084,3.7931,3.8761,4.0522,4.2121,4.2099,4.0448,3.8564,3.7624,3.5945,3.4236,3.2855,3.3121,3.3606,3.3606,3.259,3.1751,3.1751,3.0302,2.9397,3.0027,2.9179,2.8518,2.8522,2.7315,2.5899,2.4469,2.327,2.1505,1.8903,1.8058,1.7115,1.5733,1.5494,1.5136,1.4651,1.3545,1.246,1.162,1.162,1.2365,1.3768,1.4025,1.4799,1.6009,1.7451,1.7715,1.7048,1.7448,0.0,0.0,1.4183,1.3283,1.251,1.1774,1.1366,1.1116,1.0167,0.9658,0.9465,0.0,0.0,0.0,0.0,0.0,0.0,2.2677,2.3276,2.4094,2.5158,2.5381,2.5706,2.6417,2.4835,2.3426,2.272,2.0487,0.0,0.0,0.0,0.0,0.0,0.0,0.0,0.0,0.0,1.4052,1.5174,1.6926,1.7806,1.7891,1.8582,1.7984,1.6407,0.0,0.0,0.0,0.0,0.0,0.0,0.0,0.0,0.0,0.0,0.0,0.0,0.0,0.0,0.0,0.0,0.0,0.0,0.0,2.8093,2.8582,2.9421,3.2462,3.563,3.6007,3.8386,4.0724,4.0719,3.9549,3.8185,3.7388,3.5385,3.3472,3.2659,3.2872,3.3214,3.3214,3.2866,3.2596,3.2596,3.0883,2.9453,2.908,2.8047,2.7178,2.677,2.5732,2.5064,2.5179,2.3691,2.1602,1.8915,1.8195,0.0,1.5019,1.3037,1.2233,1.2937,1.2908,1.2675,1.2201,1.2193,1.2482,1.3017,1.3803,1.4222,1.4282,1.6564,1.7202,0.0,0.0,0.0,0.0,1.2745,1.1814,1.1765,1.1065,1.0415,0.9814,0.9814,0.9361,0.8811,0.0,0.0,0.0,0.0,0.0,0.0,0.0,2.2139,2.2654,2.3786,2.3949,2.4476,2.5728,2.4875,2.3985,2.3349,2.1118,0.0,0.0,0.0,0.0,0.0,0.0,0.0,0.0,0.0,1.4756,1.6409,1.7265,1.8205,1.9216,1.9401,1.9018,1.8178,1.8668,1.8753,0.0,0.0,0.0,0.0,0.0,0.0,2.8872,0.0,0.0,0.0,0.0,0.0,0.0,0.0,0.0,0.0,0.0,0.0,0.0,2.8652,3.0672,3.2944,3.3739,3.5521,3.7224,3.7691,3.6654,3.5486,3.5615,3.4198,3.2818,3.257,3.2616,3.2713,3.2713,3.2166,3.1542,3.1052,2.9951,2.8966,2.8336,2.7151,2.6275,2.6116,2.4108,2.2964,2.3462,2.1477,1.9801,1.8908,1.7556,1.5799,1.356,1.2491,1.1581,1.0827,1.0255,0.9692,0.9143,0.9536,1.0262,1.1301,1.2497,1.3482,1.4255,1.5726,1.6056,0.0,0.0,0.0,0.0,1.241,1.1783,1.1665,1.0568,0.9969,0.9762,0.9263,0.8956,0.8838,0.0,0.0,0.0,0.0,0.0,0.0,0.0,2.1311,2.1766,2.2608,2.2919,2.3633,2.5046,2.438,2.3716,2.3626,2.147,0.0,0.0,0.0,0.0,0.0,0.0,0.0,1.374,1.416,1.5252,1.7021,1.7643,1.8592,1.9811,2.0024,1.9876,1.9387,1.9808,2.004,0.0,0.0,0.0,0.0,0.0,0.0,2.9395,0.0,0.0,0.0,0.0,0.0,0.0,0.0,0.0,0.0,0.0,0.0,0.0,0.0,2.9638,3.0818,3.1987,3.367,3.5191,3.5656,3.4782,3.3911,3.4248,3.3138,3.2021,3.2021,3.2144,3.2142,3.1878,3.1784,3.1405,3.0406,2.9669,2.8921,2.8028,2.6511,2.5229,2.4563,2.3223,2.2161,2.1664,2.0259,1.892,1.7945,1.6654,1.4889,1.2458,1.1763,1.06,0.8664,0.8639,0.8477,0.8044,0.8477,0.9336,1.0592,1.1768,1.2834,1.3753,1.5039,1.5208,0.0,0.0,0.0,0.0,1.1912,1.1275,1.0965,0.9865,0.9413,0.9361,0.8956,0.8804,0.8798,0.0,0.0,0.0,0.0,0.0,0.0,0.0,2.0806,2.132,2.1609,2.2203,2.3101,2.4418,2.3407,2.2917,2.3602,0.0,0.0,0.0,0.0,0.0,0.0,0.0,0.0,1.4116,1.4609,1.5581,1.7025,1.807,1.9022,1.9874,2.0557,2.0605,2.0104,2.0199,2.0951,0.0,0.0,0.0,0.0,0.0,0.0,0.0,0.0,0.0,0.0,0.0,0.0,0.0,0.0,0.0,0.0,0.0,0.0,0.0,0.0,0.0,0.0,0.0,3.2645,3.4201,3.4252,3.3795,3.3322,3.3271,3.2222,0.0,3.1207,3.1507,3.151,3.0785,3.1567,3.1835,3.0344,2.9782,2.9064,2.7918,2.6078,2.4223,2.2568,2.2964,2.243,2.0173,1.9814,1.8767,1.6459,1.5661,1.4208,1.1633,1.0995,0.9408,0.6696,0.7891,0.8512,0.8405,0.8549,0.9326,1.0622,1.148,1.221,1.2977,1.4413,1.4685,0.0,0.0,0.0,0.0,1.1268,1.0415,0.971,0.9061,0.8804,0.8811,0.8831,0.8785,0.8665,0.0,0.0,0.0,0.0,0.0,0.0,0.0,0.0,0.0,0.0,2.1515,2.2413,2.3699,2.3459,2.3485,0.0,0.0,0.0,0.0,0.0,0.0,0.0,0.0,0.0,1.4629,1.5049,1.5976,1.7465,1.8462,1.9492,2.0529,2.1639,2.1839,2.1257,2.2366,2.3408,0.0,0.0,0.0,0.0,0.0,0.0,0.0,0.0,0.0,0.0,3.0589,3.0768,0.0,0.0,0.0,0.0,0.0,0.0,0.0,0.0,2.9895,3.004,3.0954,0.0,3.1275,3.1833,3.2256,3.2391,0.0,3.1884,3.1867,3.1309,3.1291,3.113,3.0381,3.0455,3.0153,2.8648,2.8288,2.7792,2.6623,2.5655,2.4633,2.3289,2.29,2.2163,2.0811,1.9001,1.7681,1.7143,1.4832,1.291,1.1704,1.01,0.8423,0.6642,0.6554,0.6513,0.6471,0.6874,0.7971,0.9735,1.1005,1.2072,1.2913,1.357,1.3797,0.0,0.0,0.0,1.1899,1.1099,1.0415,0.971,0.9061,0.8804,0.8831,0.9058,0.8686,0.8181,0.0,0.0,0.0,0.0,0.0,0.0,0.0,0.0,0.0,0.0,0.0,2.1973,2.2642,2.2898,0.0,0.0,0.0,0.0,0.0,0.0,0.0,0.0,0.0,1.4639,1.5068,1.5886,1.6843,1.8036,1.9149,2.037,2.1611,2.2272,2.2575,2.2586,2.3562,2.4755,0.0,0.0,0.0,0.0,3.1093,0.0,0.0,0.0,0.0,0.0,3.0687,3.1081,0.0,3.11,3.0832,3.0525,0.0,0.0,0.0,0.0,3.0598,3.0683,3.1089,3.1157,3.1207,3.1596,3.1985,3.2212,3.1782,3.1732,3.1664,3.1275,3.092,3.0463,2.9736,2.96,2.9093,2.7554,2.7588,2.7291,2.5824,2.491,2.4171,2.358,2.2197,2.1126,2.0585,1.8336,1.6669,1.6173,1.4067,1.2376,1.1332,0.9974,0.8376,0.6642,0.6644,0.6481,0.6151,0.6522,0.7836,1.0035,1.0825,1.18,1.2917,1.3118,1.3223,0.0,0.0,0.0,1.1316,1.0965,1.0218,0.9316,0.8962,0.8891,0.8964,0.8724,0.8395,0.8109,0.0,0.0,0.0,0.0,0.0,0.0,0.0,0.0,0.0,0.0,0.0,0.0,0.0,0.0,0.0,0.0,0.0,0.0,0.0,0.0,0.0,0.0,1.5439,1.5204,1.5663,1.6788,1.7839,1.8794,1.9935,2.1262,2.271,2.2951,2.3399,2.4122,2.4502,2.5598,0.0,0.0,0.0,0.0,3.1715,0.0,0.0,0.0,0.0,0.0,0.0,0.0,0.0,3.1526,3.1515,3.166,3.1329,0.0,0.0,0.0,0.0,0.0,3.119,3.1884,3.256,3.2381,3.2357,3.2425,3.2307,3.1799,3.1326,3.1207,3.07,3.0006,2.9236,2.9066,2.8592,2.7129,2.7233,2.7031,2.5675,2.439,2.3548,2.3556,2.1542,2.0112,1.9949,1.7713,1.5824,1.4801,1.3348,1.1984,1.0864,0.9961,0.8652,0.6804,0.7289,0.7289,0.675,0.6935,0.8275,1.0813,1.0813,1.1534,1.2881,1.2881,1.2881,1.2881,0.0,0.0,1.0813,1.0669,0.9917,0.8811,0.8858,0.9025,0.9079,0.8351,0.8109,0.8067,0.0,0.0,0.0,0.0,0.0,0.0,0.0,0.0,0.0,0.0,0.0,0.0,0.0,0.0,0.0,0.0,0.0,0.0,0.0,0.0,0.0,1.7187,1.64,1.6238,1.7057,1.72,1.8189,2.0132,2.0641,2.1691,2.3318,2.4435,2.5312,2.5998,2.5963,2.6547,2.769,2.9449,0.0,0.0,3.2336,0.0,0.0,0.0,0.0,0.0,0.0,0.0,0.0,3.1882,3.1537,3.1291,3.123,0.0,0.0,0.0,0.0,0.0,3.119,3.2645,3.3846,3.2594,3.2763,3.3068,3.2425,3.2188,3.1935,3.1326,3.1106,3.0696,2.9609,2.9437,2.9037,2.7912,2.6822,2.6264,2.6726,2.5353,2.4048,2.3504,2.2259,2.0854,1.9391,1.7065,1.5381,1.4731,1.2464,1.1007,1.0813,0.902,0.7877,0.7557,0.702,0.702,0.7509,0.7543,0.8639,1.0813,1.0813,1.1534,1.2881,1.2881,1.2881,1.2881,0.0,1.1516,1.0762,1.0167,0.951,0.8831,0.9024,0.9143,0.9131,0.8824,0.8215,0.7451,0.0,0.0,0.0,0.0,0.0,0.0,0.0,0.0,0.0,0.0,0.0,0.0,0.0,0.0,0.0,0.0,0.0,0.0,0.0,0.0,1.871,1.765,1.7707,1.7603,1.7301,1.835,1.9425,2.0423,2.1534,2.2921,2.4517,2.5166,2.5834,2.639,2.6287,2.713,2.8782,3.0272,3.1709,0.0,0.0,0.0,0.0,0.0,0.0,0.0,0.0,0.0,0.0,0.0,3.1528,3.119,3.119,0.0,0.0,0.0,0.0,0.0,3.1487,3.2569,3.3676,3.3644,3.4134,3.449,3.4024,3.3076,3.2188,3.185,3.1338,3.0778,3.0249,3.0016,2.9548,2.8413,2.6993,2.6065,2.6065,2.4563,2.3503,2.3492,0.0,2.0133,1.9698,1.6868,1.4944,1.472,1.2619,1.1166,1.0813,0.954,0.8508,0.7723,0.7777,0.7777,0.7723,0.8455,0.9488,1.0813,1.1166,1.1882,1.2881,1.2881,1.2666,1.2295,0.0,1.1216,1.0269,0.9917,0.9413,0.8838,0.907,0.9283,0.9374,0.8634,0.7632,0.6523,0.0,0.0,0.0,0.0,0.0,0.0,0.0,0.0,0.0,0.0,0.0,0.0,0.0,0.0,0.0,0.0,0.0,0.0,0.0,2.0549,1.9816,1.8509,1.9164,1.9145,1.8239,1.9712,2.0742,2.1305,2.256,2.3961,2.5439,2.5856,2.6335,2.6845,2.6767,2.7935,3.0009,3.0888,3.2169,0.0,0.0,0.0,0.0,0.0,0.0,0.0,0.0,0.0,0.0,0.0,0.0,0.0,0.0,0.0,0.0,3.1393,3.1326,3.1325,3.1921,3.2637,3.35,3.4464,3.4934,3.5231,3.5653,3.4276,3.2968,3.3156,3.2377,3.1498,3.0975,3.0254,2.9465,2.8595,2.7183,2.6034,2.5525,2.3875,2.2805,2.3139,2.0769,1.9239,1.9637,1.6675,1.4698,1.4698,1.2918,1.1516,1.0864,1.0167,0.9242,0.799,0.848,0.8586,0.8196,0.9444,1.0312,1.0813,1.1466,1.2187,1.2881,1.2881,1.251,1.1814,1.1616,1.0914,0.9769,0.9694,0.9369,0.8891,0.9075,0.9072,0.8932,0.804,0.6958,0.5854,0.0,0.0,0.0,0.0,0.0,0.0,0.0,0.0,0.0,0.0,0.0,0.0,0.0,0.0,0.0,0.0,0.0,0.0,0.0,2.0266,2.0013,2.0403,2.0819,2.1107,2.1169,2.0869,2.1754,2.4045,2.3572,2.4062,2.5453,2.6813,2.7731,2.8168,2.8163,2.9299,3.1243,3.0921,3.1709,3.3243,3.3189,0.0,0.0,0.0,0.0,0.0,0.0,0.0,0.0,0.0,0.0,0.0,0.0,0.0,3.1326,3.2002,3.1732,3.1443,3.2593,3.345,3.4094,3.4354,3.4082,3.4358,3.6643,3.5899,3.4925,3.565,3.5173,3.3915,3.1738,2.9543,2.817,2.8375,2.696,2.5942,2.6181,2.4209,2.2515,2.209,2.0302,1.8934,1.8481,1.6154,1.4698,1.4698,1.2918,1.1516,1.0864,1.0167,0.9458,0.8752,0.8752,0.9061,0.9658,1.0364,1.0762,1.0813,1.1466,1.2187,1.2881,1.2881,1.251,1.1765,1.1166,1.0466,0.9784,0.9411,0.9205,0.9154,0.8913,0.809,0.7081,0.7043,0.6526,0.6013,0.0,0.0,0.0,0.0,0.0,0.0,0.0,0.0,0.0,0.0,0.0,0.0,0.0,0.0,0.0,0.0,0.0,0.0,0.0,2.0531,2.0899,2.1031,2.1693,2.2683,2.4044,2.3418,2.3501,2.4422,2.5024,2.5577,2.6063,2.6696,2.7685,2.8917,2.8526,2.9493,3.1416,3.1394,3.2102,3.3166,3.2872,0.0,0.0,0.0,0.0,0.0,0.0,0.0,0.0,0.0,3.119,3.119,3.119,3.119,3.1241,3.1512,3.1611,3.1746,3.2476,3.3846,3.5003,3.4836,3.5412,3.6313,3.7415,3.6577,3.5687,3.5989,3.6077,3.5367,3.2996,3.0973,2.9288,2.8168,2.6922,2.5738,2.4658,2.3473,2.2352,2.1394,1.9991,1.8879,1.8342,1.6142,1.4698,1.4698,1.2918,0.0,1.0864,1.0167,0.951,0.8804,0.8804,0.9106,0.9814,1.0466,1.1015,1.1416,1.2138,1.2618,1.2881,1.2881,1.2255,1.1166,1.0914,1.0283,0.9397,0.9247,0.9345,0.9458,0.9088,0.8077,0.6886,0.7003,0.6565,0.603,0.0,0.0,0.0,0.0,0.0,0.0,0.0,0.0,0.0,0.0,0.0,0.0,0.0,0.0,0.0,0.0,0.0,0.0,1.9498,2.0607,2.147,2.1916,2.2778,2.4024,2.5856,2.5612,2.5388,2.5124,2.6069,2.6458,2.6455,2.6973,2.8076,2.9665,2.9335,3.0391,3.2429,3.2004,3.2405,3.3324,3.2722,3.2681,0.0,0.0,0.0,0.0,0.0,0.0,0.0,0.0,3.119,3.119,3.119,3.119,3.123,3.1329,3.1582,3.1915,3.255,3.38,3.4957,3.4989,3.6131,3.7463,3.8322,3.7857,3.738,3.7864,3.7072,3.5439,3.2925,3.1003,2.9265,2.764,2.6582,2.5408,2.3871,2.2928,2.1895,2.0495,1.9431,1.8412,1.7523,1.5778,1.4606,1.4422,1.2783,0.0,0.0,1.0167,0.951,0.8804,0.9008,0.9465,1.0115,1.0762,1.1466,1.2129,1.2666,1.2881,1.2881,1.2666,1.1891,1.0762,1.0568,0.9993,0.919,0.9339,0.9485,0.964,0.8982,0.8038,0.7057,0.6833,0.6482,0.6101,0.0,0.0,0.0,0.0,0.0,0.0,0.0,0.0,0.0,0.0,0.0,0.0,0.0,0.0,0.0,0.0,0.0,0.0,1.9761,2.0446,2.1561,2.3345,2.4124,2.5135,2.6481,2.7203,2.7255,2.6525,2.651,2.651,2.651,2.7864,2.9234,3.0537,3.0792,3.2349,3.4641,3.2649,3.2529,3.3631,3.2836,3.2535,3.2634,0.0,0.0,0.0,0.0,0.0,0.0,0.0,3.119,3.119,3.119,3.119,3.1291,3.1674,3.1823,3.2022,3.2854,3.3356,3.3844,3.4798,3.5872,3.7291,3.9442,3.99,4.0341,4.1937,3.8393,3.411,3.1237,2.9144,2.7553,2.6826,2.5855,2.4965,2.4259,2.2748,2.1039,1.9321,1.8505,1.7436,1.5752,1.505,1.4468,1.3862,0.0,0.0,0.0,1.0167,0.951,0.8857,0.9465,1.0115,1.0813,1.1466,1.2187,1.2881,1.2881,1.2881,1.2881,1.2138,1.1416,1.0771,1.0123,0.9599,0.9216,0.9573,0.971,0.9583,0.8576,0.7944,0.7347,0.6399,0.6129,0.6338,0.0,0.0,0.0,0.0,0.0,0.0,0.0,0.0,0.0,0.0,0.0,0.0,0.0,0.0,0.0,0.0,0.0,0.0,1.9206,1.9869,2.1259,2.3519,2.429,2.5236,2.6481,2.6215,2.6443,2.7227,2.7254,2.7269,2.7227,2.8647,2.9689,3.0477,3.1358,3.228,3.3121,3.2544,3.3027,3.415,3.3588,3.3886,3.4613,0.0,0.0,0.0,0.0,0.0,0.0,0.0,0.0,0.0,3.119,3.1372,3.1519,3.1094,3.1954,3.2972,3.248,3.4009,3.5795,3.5882,3.7456,3.9271,4.0483,4.0304,3.9946,4.0049,3.6876,3.3723,3.2613,3.0345,2.8149,2.6667,2.5352,2.402,2.2655,2.1287,1.9915,1.8571,1.7896,1.7037,1.5708,1.505,1.4468,0.0,0.0,0.0,0.0,1.0167,0.9718,0.9517,0.971,1.0364,1.1516,1.1715,1.2187,1.2881,1.2881,1.2881,1.2891,1.2402,1.1792,1.1104,1.0615,1.0187,0.9893,1.0401,1.0231,0.9685,0.9759,0.8836,0.7508,0.735,0.6827,0.6338,0.0,0.0,0.0,0.0,0.0,0.0,0.0,0.0,0.0,0.0,0.0,0.0,0.0,0.0,0.0,0.0,0.0,0.0,0.0,2.018,2.1703,2.3871,2.4681,2.55,2.6481,2.6309,2.6493,2.7072,2.712,2.7291,2.7568,2.8889,2.9848,3.0523,3.207,3.2979,3.3402,3.3318,3.3866,3.4808,3.4211,3.4518,3.5193,0.0,0.0,0.0,0.0,0.0,0.0,0.0,0.0,0.0,3.1389,3.1699,3.1899,3.1441,3.2234,3.3234,3.3091,3.4758,3.6677,3.7275,3.9081,4.0785,4.1048,4.0983,4.0471,3.9157,3.6613,3.42,3.2614,3.0523,2.8485,2.6896,2.5244,2.3666,2.2194,2.0794,1.943,1.8254,1.7626,1.6744,1.5365,1.4926,1.4329,0.0,0.0,0.0,0.0,1.0167,0.9814,0.9814,1.0064,1.0712,1.1765,1.208,1.2452,1.2881,1.3047,1.3135,1.3085,1.2286,1.1609,1.106,1.0624,1.0297,1.016,1.0748,1.0724,1.0393,1.039,0.9515,0.8216,0.7893,0.7176,0.6271,0.0,0.0,0.0,0.0,0.0,0.0,0.0,0.0,0.0,0.0,1.9773,0.0,0.0,0.0,0.0,0.0,0.0,0.0,0.0,2.1069,2.2629,2.4313,2.5161,2.5888,2.6533,2.7021,2.6952,2.6476,2.6486,2.6878,2.7625,2.892,2.9868,3.0674,3.2755,3.4074,3.4746,3.4447,3.4829,3.548,3.4757,3.4616,3.4817,3.4455,0.0,0.0,0.0,0.0,0.0,0.0,0.0,0.0,3.1696,3.2074,3.242,3.2383,3.2643,3.3212,3.4466,3.5609,3.6901,3.8852,4.0686,4.1873,4.1328,4.1629,4.1318,3.8861,3.7053,3.499,3.1884,2.9985,2.8521,2.7217,2.5345,2.3623,2.249,2.0822,1.9319,1.8254,1.7585,1.6574,1.488,1.4698,0.0,0.0,0.0,0.0,0.0,1.0312,0.9961,0.9961,1.0559,1.1216,1.1873,1.2559,1.2881,1.2881,1.3271,1.3435,1.341,1.2043,1.1115,1.0675,1.0274,1.016,1.02,1.0788,1.1189,1.1319,1.0688,0.9996,0.915,0.8178,0.7188,0.6285,0.0,0.0,0.0,0.0,0.0,0.0,0.0,0.0,0.0,0.0,0.0,0.0,0.0,0.0,0.0,0.0,0.0,0.0,0.0,2.141,2.2675,2.5078,2.5321,2.5965,2.7025,2.5676,2.5431,2.6272,2.6418,2.6878,2.7625,2.9438,3.0542,3.1226,3.2867,3.3926,3.4461,3.4095,3.4393,3.5096,3.4932,3.509,3.531,3.424,3.3547,0.0,0.0,0.0,0.0,0.0,0.0,0.0,3.1789,3.2492,3.3214,3.258,3.3455,3.4756,3.5512,3.6502,3.7908,4.0443,4.1642,4.2189,4.2062,4.0862,3.9354,3.7822,3.5937,3.4081,3.2383,3.004,2.7965,2.6685,2.4401,2.2568,2.1955,1.9893,1.8377,1.812,1.7229,1.6139,1.4835,1.4698,0.0,0.0,0.0,0.0,1.1616,1.1466,1.1366,1.1366,1.1516,1.1931,1.2666,1.2822,1.2881,0.0,1.2969,1.3046,1.3032,1.2448,1.1619,1.0616,1.0497,1.0461,1.0514,1.1096,1.1369,1.1339,1.0894,1.0146,0.9165,0.8325,0.7285,0.6298,0.0,0.0,0.0,0.0,0.0,0.0,0.0,0.0,0.0,0.0,0.0,0.0,0.0,0.0,0.0,0.0,0.0,0.0,0.0,0.0,2.3686,2.5393,2.606,2.6552,2.6849,2.556,2.5326,2.6315,2.6126,2.6696,2.8057,2.9359,3.0486,3.1421,3.2976,3.3804,3.4017,3.4269,3.4633,3.499,3.4801,3.4938,3.5075,3.3864,3.3134,3.2591,3.1562,0.0,0.0,0.0,0.0,0.0,0.0,0.0,3.3566,3.3333,3.4137,3.53,3.6269,3.7602,3.939,4.2062,4.2519,4.2194,4.1809,3.991,3.7917,3.684,3.5314,3.3598,3.1613,2.9594,2.7794,2.6527,2.4139,2.2279,2.1786,1.9655,1.8152,1.8152,1.7161,1.602,1.4846,0.0,0.0,0.0,0.0,1.2559,1.1814,1.1814,1.1814,1.1814,1.1814,1.2129,1.2881,1.2881,1.2881,1.2881,1.3291,1.3271,1.2911,1.24,1.1561,1.0624,1.0624,1.0624,1.0658,1.1035,1.1296,1.1401,1.1331,1.0536,0.9309,0.8871,0.7811,0.6505,0.0,0.0,0.0,0.0,0.0,0.0,0.0,0.0,0.0,0.0,0.0,0.0,0.0,0.0,0.0,0.0,0.0,0.0,0.0,0.0,0.0,2.5719,2.6761,2.7144,2.6841,2.5906,2.5835,2.6669,2.5893,2.6634,2.8857,2.9243,3.0254,3.1892,3.2997,3.3717,3.4082,3.4586,3.4742,3.4658,3.4329,3.4232,3.4182,3.3242,3.2565,3.2019,3.141,3.1252,3.1351,3.1696,0.0,0.0,0.0,0.0,3.3781,3.411,3.4595,3.5342,3.674,3.8561,4.0643,4.3006,4.2723,4.1717,4.1038,3.8903,3.6822,3.597,3.4681,3.293,3.0408,2.8821,2.7457,2.6174,2.3938,2.2214,2.1744,1.9674,1.8222,1.8222,1.7196,1.602,1.4846,0.0,0.0,0.0,0.0,1.2646,1.2122,1.2008,1.2008,1.2072,1.2008,1.2286,1.2881,1.2881,1.291,1.2998,1.3681,1.3596,1.2857,1.2112,1.1351,1.0624,1.0624,1.0624,1.0651,1.0929,1.1209,1.1394,1.1662,1.0834,0.9458,0.934,0.8193,0.6725,0.0,0.0,0.0,0.0,0.0,0.0,0.0,0.0,0.0,0.0,2.0009,2.0686,0.0,0.0,0.0,0.0,0.0,0.0,2.2897,0.0,0.0,2.6471,2.6572,2.7101,2.8052,2.639,2.6074,2.7164,2.6079,2.7177,3.0224,2.9633,3.0938,3.3606,3.295,3.3866,3.5846,3.4504,3.3743,3.3436,3.3376,3.2876,3.2175,3.2015,3.172,3.1326,3.1241,3.1411,3.1733,3.1789,3.2332,0.0,0.0,0.0,3.4134,3.4176,3.4467,3.5113,3.6738,3.8724,4.0595,4.167,4.107,4.0175,4.0065,3.8054,3.5952,3.5226,3.3199,3.1134,2.9686,2.7849,2.6142,2.4883,2.3041,2.1787,2.1715,1.9674,1.8222,1.8222,1.7196,1.602,1.4846,0.0,0.0,0.0,1.2881,1.3037,1.3237,1.2918,1.2889,1.3246,1.2908,1.2774,1.2881,1.2881,1.3066,1.3437,1.3561,1.3257,1.2445,1.2012,1.1351,1.0624,1.0624,1.0624,1.0665,1.1142,1.139,1.1339,1.1064,1.0377,0.9399,0.8631,0.7659,0.6739,0.0,0.0,0.0,0.0,0.0,0.0,0.0,0.0,0.0,0.0,0.0,2.0879,0.0,0.0,0.0,2.0938,2.2139,2.331,2.4223,2.5258,2.5908,2.6004,2.5988,2.6379,2.7328,2.5771,2.5558,2.6811,2.594,2.6951,2.9789,2.9843,3.1608,3.4697,3.3618,3.4127,3.5775,3.4385,3.3578,3.3184,3.2903,3.24,3.1789,3.1528,3.1351,3.123,3.1449,3.166,3.188,3.24,3.2872,3.3243,3.3465,0.0,0.0,0.0,3.453,3.5608,3.7708,3.8503,3.919,4.088,4.0033,3.8904,3.934,3.7452,3.5402,3.4668,3.2461,3.0292,2.893,2.7696,2.6365,2.4683,2.3225,2.2143,2.1738,1.9976,1.8595,1.8228,1.7505,1.6483,1.5148,0.0,0.0,0.0,1.3584,1.3662,1.3848,1.3682,1.3662,1.3857,1.3447,1.334,1.3584,1.335,1.3349,1.356,1.3577,1.3151,1.2267,1.1973,1.1351,1.0631,1.0735,1.0802,1.0835,1.1249,1.1523,1.1627,1.1513,1.0594,0.9468,0.9091,0.8061,0.6848,0.0,0.0,0.0,0.0,0.0,0.0,0.0,0.0,0.0,0.0,0.0,0.0,0.0,0.0,0.0,0.0,2.2959,2.4047,2.471,2.5046,2.5255,2.5345,2.5463,2.585,2.6509,2.5346,2.5345,2.6598,2.594,2.693,2.9486,3.0071,3.2174,3.5423,3.4375,3.4577,3.5634,3.4462,3.3728,3.3234,3.2409,3.19,3.1568,3.1125,3.1099,3.1372,3.1696,3.1951,3.2264,3.2965,3.3273,3.339,3.3707,3.3807,0.0,0.0,0.0,3.5522,3.7522,3.7636,3.7624,3.9441,3.8736,3.7749,3.8379,3.6555,3.4636,3.4272,3.2121,2.9872,2.8509,2.751,2.634,2.4698,2.3451,2.2452,2.1805,2.034,1.9094,1.85,1.7928,1.7044,1.5654,0.0,0.0,0.0,1.4077,1.4126,1.4297,1.4136,1.4136,1.4297,1.3887,1.3818,1.4077,1.3936,1.3873,1.3921,1.3651,1.3199,1.2508,1.1966,1.1404,1.0788,1.0929,1.0995,1.1022,1.139,1.167,1.1877,1.1951,1.1198,0.9932,0.9696,0.86,0.7325,0.0,0.0,0.0,0.0,0.0,0.0,0.0,0.0,0.0,0.0,0.0,0.0,2.3389,2.2996,2.2741,2.29,2.265,2.2776,2.346,2.421,2.4642,2.4627,2.5254,0.0,2.6394,2.5716,2.5944,2.7158,2.655,2.7599,3.0243,3.036,3.2366,3.5934,3.5102,3.5313,3.6172,3.4915,3.4096,3.3507,3.1585,3.095,3.1145,3.0429,3.0851,3.1789,3.1789,3.2366,3.3136,3.3184,3.3447,3.3762,3.3788,3.3807,3.3807,0.0,0.0,0.0,3.4991,3.5771,3.6376,3.6523,3.6711,3.6844,3.6813,3.496,3.339,3.4046,3.2121,2.9894,2.8619,2.6792,2.5318,2.4702,2.3523,2.2452,2.1805,2.0671,1.9721,1.9032,1.8493,1.7605,1.6294,0.0,0.0,0.0,1.4077,1.4316,1.4727,1.4355,1.4326,1.4736,1.4326,1.4058,1.4077,1.4521,1.4736,1.4739,1.3831,1.3377,1.3291,1.1981,1.1383,1.1363,1.1102,1.0995,1.1035,1.161,1.1857,1.1897,1.2171,1.1942,1.1221,1.0095,0.9303,0.8615,0.0,0.0,0.0,0.0,0.0,0.0,0.0,0.0,0.0,0.0,0.0,0.0,0.0,2.3041,2.2787,2.2984,2.3157,2.3462,2.3996,2.4291,2.4526,2.4612,2.5137,2.5569,2.5772,2.5864,2.6078,2.6433,2.6211,2.7267,2.947,3.0255,3.1719,3.3756,3.3934,3.4882,3.6211,3.4676,3.3581,3.2836,3.1626,3.1011,3.0722,3.002,3.0456,3.1526,3.1838,3.2491,3.3243,3.3494,3.368,3.3807,3.3807,3.3807,3.3807,3.3807,3.3807,3.3972,3.477,3.4853,3.4871,3.566,3.5303,3.4816,3.5047,3.4168,3.3242,3.302,3.1615,3.0125,2.9195,2.78,2.6287,2.4837,2.389,2.2955,2.1846,2.0698,1.976,1.9069,1.8857,1.8154,1.6739,0.0,0.0,0.0,0.0,1.5019,1.5176,1.5039,1.5019,1.5186,1.4775,1.4551,1.4551,1.4971,1.4657,1.3652,1.3492,1.2954,1.2121,1.1642,1.153,1.1703,1.1603,1.1557,1.159,1.1984,1.2144,1.2178,1.2472,1.2094,1.119,1.0215,0.9395,0.8623,0.0,0.0,0.0,0.0,0.0,0.0,0.0,0.0,0.0,2.3258,0.0,0.0,0.0,0.0,2.3026,2.3132,2.3721,2.4129,2.4343,2.4531,2.4823,2.517,2.5528,2.5916,2.6303,2.6463,2.6553,2.6593,2.6593,2.736,2.8834,3.011,3.1426,3.2781,3.3247,3.4362,3.5789,3.453,3.3671,3.2998,3.1586,3.1258,3.1533,3.0504,3.1223,3.2741,3.2805,3.3237,3.38,3.3799,3.3807,3.3807,3.3807,3.3807,3.3762,3.3652,3.3606,3.366,3.4073,3.396,3.3966,3.4735,3.4177,3.3564,3.405,3.3391,3.2594,3.2341,3.1166,2.9996,2.9486,2.8388,2.7038,2.5511,2.4373,2.3369,2.2471,2.1129,2.0113,1.9649,1.9572,1.8897,1.7216,0.0,0.0,0.0,0.0,0.0,1.541,1.541,1.541,1.541,1.5137,1.5,1.5,1.542,1.4962,1.3568,1.3733,1.3173,1.1985,1.181,1.183,1.2011,1.2011,1.1957,1.1891,1.2184,1.2305,1.2318,1.2518,1.2337,1.1745,1.0776,1.0213,0.9715,0.0,0.0,0.0,0.0,0.0,0.0,0.0,0.0,2.5146,2.463,0.0,0.0,0.0,0.0,0.0,2.3451,2.4321,2.4713,2.4333,2.49,2.5589,2.6278,2.6366,2.6911,2.818,2.7503,2.7341,2.7824,2.7807,2.8015,2.8449,2.9953,3.1555,3.3178,3.3207,3.3866,3.4963,3.4552,3.4388,3.4158,3.1439,3.1661,3.3539,3.2012,3.3122,3.5413,3.4622,3.4611,3.4844,3.4064,3.3825,3.3844,3.3844,3.3844,3.3744,3.3321,3.3184,3.3075,0.0,0.0,0.0,3.358,3.33,3.3251,3.3883,3.2564,3.141,3.2104,3.0744,2.9422,2.9361,2.84,2.7415,2.6722,2.5007,2.3712,2.3622,2.2019,2.082,2.0721,2.069,1.9902,1.7833,0.0,0.0,0.0,1.5449,1.5449,1.5449,1.5449,1.5449,1.5449,1.5449,1.5449,1.5449,1.5869,1.5576,1.4711,1.4547,1.3939,1.3072,1.2528,1.2305,1.2305,1.2305,1.2144,1.1904,1.2184,1.2305,1.2305,1.2318,1.2692,1.3048,1.1914,1.1817,1.2157,0.0,0.0,0.0,0.0,0.0,0.0,2.8399,2.7146,2.6119,0.0,0.0,0.0,2.4373,2.4575,2.4798,2.4906,2.6183,2.6836,2.6527,2.703,2.728,2.7097,2.7492,2.7827,2.8196,2.7818,2.7791,2.8217,2.77,2.7924,2.8868,2.9556,3.0882,3.2629,3.2944,3.3696,3.4776,3.4408,3.4428,3.4586,3.3478,3.3264,3.3522,3.2575,3.2711,3.3387,3.3168,3.3542,3.41,3.388,3.4192,3.4688,3.4688,3.4473,3.4093,3.3406,3.2952,3.2648,3.255,0.0,0.0,0.0,0.0,0.0,3.2047,3.2004,3.1786,3.1008,3.0517,2.9906,2.892,2.8125,2.7565,2.732,2.5633,2.4124,2.3682,2.2273,2.1297,2.1297,2.0729,1.9897,0.0,0.0,0.0,0.0,1.6367,1.6367,1.6367,1.6367,1.6367,1.6367,1.6367,1.6367,1.6367,1.582,1.5095,1.4267,1.3734,1.305,1.2226,1.2317,1.2305,1.2305,1.2305,1.2258,1.2191,1.2271,1.2305,1.2345,1.2786,1.306,1.3094,1.2324,1.2204,1.2157,0.0,0.0,0.0,0.0,0.0,3.0316,3.068,2.9488,2.8319,0.0,0.0,0.0,2.5484,2.5785,2.6222,2.6582,2.7644,2.8098,2.7602,2.7864,2.8052,2.8063,2.8384,2.8837,2.9454,2.8996,2.8799,2.8848,2.812,2.8102,2.8762,2.9447,3.0606,3.2175,3.2866,3.3738,3.4732,3.4973,3.5139,3.5168,3.4217,3.4529,3.546,3.4222,3.4407,3.5235,3.4798,3.4945,3.5293,3.4963,3.5147,0.0,3.4863,3.4764,3.4709,3.3835,3.3388,3.3106,3.2943,3.2869,3.2864,3.2926,0.0,0.0,3.2184,3.2205,3.1931,3.0584,3.0173,2.9749,2.8668,2.7993,2.7625,2.7625,2.6335,2.511,2.4443,2.269,2.1568,2.1807,2.1037,2.017,0.0,1.8513,1.776,1.6738,1.6665,1.6665,1.6665,1.6665,1.6665,1.6665,1.6665,1.6665,1.6665,1.6372,1.5516,1.4246,1.4063,1.3319,1.2058,1.2225,1.2305,1.2305,1.2305,1.2305,1.2311,1.2438,1.2412,1.2351,1.2832,1.3093,1.318,1.2959,1.2928,1.2942,0.0,0.0,3.2561,3.2015,3.2406,3.2755,3.2718,3.2067,3.1111,0.0,2.8463,2.738,2.6941,2.7301,2.7859,2.8511,2.907,2.9053,2.8235,2.8185,2.849,2.9223,2.9257,2.9921,3.1295,3.0598,3.0086,2.9777,2.903,2.8711,2.8801,2.9752,3.0835,3.2058,3.3032,3.3941,3.485,3.5909,3.6215,3.5892,3.4567,3.5795,3.8222,3.6475,3.7075,3.8664,3.7716,3.7349,3.7257,3.6633,3.6358,0.0,0.0,0.0,0.0,0.0,3.4056,3.3825,3.3498,3.3406,3.3558,3.4201,3.388,0.0,3.3406,3.2908,3.2026,3.0615,2.9895,2.9324,2.8542,2.7944,2.764,2.773,2.7099,2.6315,2.5522,2.3326,2.1958,2.2347,2.1523,2.0482,1.9373,1.8805,1.8076,1.6894,1.6875,1.6875,1.6875,1.6875,1.6875,1.6875,1.6875,1.6875,1.6875,1.7125,1.6407,1.4745,1.5076,1.4235,1.2445,1.2445,1.2372,1.2305,1.2305,1.2318,1.2371,1.2714,1.2592,1.2385,1.2719,1.3013,1.3293,1.3587,1.3861,1.4088,0.0,3.2944,3.3544,3.3941,3.4116,3.417,3.4118,3.3573,3.2676,3.1308,2.947,2.8545,2.9324,2.9461,2.9854,3.0844,3.1481,3.1475,3.0685,3.0633,3.067,3.0828,3.0828,3.13,3.223,3.1526,3.1264,3.1524,3.0783,3.0666,3.1143,3.1336,3.2141,3.342,3.3625,3.4334,3.5392,3.6262,3.6573,3.6638,3.7709,3.8251,3.8357,3.797,3.7405,3.6822,3.6607,3.6523,3.6597,3.7092,3.6835,3.6376,0.0,0.0,0.0,3.4553,0.0,0.0,0.0,0.0,0.0,0.0,0.0,0.0,3.3406,3.3322,3.2731,3.0862,3.0402,2.9831,2.8091,2.766,2.7754,2.8308,2.7774,2.6854,2.5578,2.448,2.3541,2.3022,2.1587,0.0,2.031,1.8979,1.8044,1.7764,1.7764,1.7764,1.7764,1.7764,1.7764,1.7764,1.7764,1.7764,1.7764,1.7126,1.6597,1.6173,1.5545,1.4593,1.3455,1.3455,1.3025,1.2305,1.2305,1.2438,1.2741,1.2802,1.2788,1.2712,1.3253,1.3507,1.3594,1.3895,1.4041,1.4088,3.3945,3.4362,3.482,3.5552,3.5713,3.5706,3.5645,3.5052,3.4149,3.272,3.0951,3.0231,3.1174,3.1124,3.139,3.2362,3.2721,3.257,3.1805,3.1619,3.1356,3.0981,3.1227,3.1703,3.2466,3.2128,3.2215,3.2802,3.2019,3.1783,3.1992,3.2147,3.2557,3.323,3.4236,3.4961,3.5622,3.7296,3.8238,3.8604,3.8642,3.8728,3.8804,3.8483,3.8188,3.7917,3.7606,3.7496,3.7496,3.7496,3.7496,0.0,3.7179,3.635,3.5455,0.0,3.4835,3.4032,0.0,0.0,0.0,3.4506,0.0,0.0,0.0,3.3458,3.2929,3.0894,3.0529,3.0135,2.8839,2.8308,2.8308,2.8981,2.7905,2.6754,2.6022,2.5212,2.436,2.3223,2.199,0.0,2.0655,1.9431,1.8462,1.8008,1.8008,1.8008,1.8008,1.8008,1.8008,1.8008,1.8008,1.8008,1.8008,1.7501,1.707,1.6567,1.5658,1.4665,1.3673,1.3244,1.2732,1.2311,1.2458,1.2605,1.2842,1.3066,1.3193,1.3227,1.3527,1.3559,1.3681,1.3975,1.4088,1.4108,3.5591,3.5898,3.6103,3.6616,3.6837,3.6842,3.6615,3.6064,3.5197,3.3902,3.2591,3.2184,3.3123,3.311,3.339,3.4237,3.4046,3.3599,3.3007,3.2447,3.1785,3.0954,3.1426,3.199,3.2572,3.2746,3.3117,3.371,3.3142,3.2806,3.2767,3.2978,3.3219,3.3485,3.4889,3.5771,3.6388,3.8426,3.9662,4.0181,3.9142,3.9223,3.9854,3.9098,3.9194,3.9658,3.8958,3.8707,3.8615,3.812,3.8285,3.8572,3.7802,3.7291,0.0,0.0,0.0,0.0,0.0,0.0,0.0,0.0,0.0,3.5455,0.0,0.0,0.0,3.1103,3.0587,3.0311,2.9702,2.9146,2.8966,2.949,0.0,0.0,0.0,2.581,0.0,2.3261,2.2384,0.0,2.1047,2.0293,1.9504,1.8586,1.8517,1.8517,1.8517,1.839,1.8252,1.8252,1.8174,1.8174,1.8252,1.8086,1.7586,1.6792,1.6079,1.5095,1.3859,1.3205,1.2783,1.2492,1.2732,1.2943,1.2959,1.344,1.3674,1.3728,1.3728,1.3728,1.3761,1.4001,1.4122,1.4202,3.672,3.702,3.69,3.6496,3.6982,3.7033,3.5887,3.565,3.5251,3.4351,3.409,3.4523,3.5726,3.6408,3.7106,3.7936,3.6697,3.5809,3.5669,3.4227,3.3025,3.2153,3.2564,3.2863,3.2945,3.3636,3.4037,3.4134,3.4352,3.4546,3.4766,3.4802,3.5403,3.6372,3.5766,3.6794,3.8977,3.921,3.9354,3.9546,4.0854,4.1717,4.2105,4.1026,4.0491,4.0178,3.9091,3.8707,3.8799,0.0,3.9203,3.8927,0.0,3.8542,3.6413,3.7771,0.0,0.0,0.0,0.0,0.0,0.0,3.6649,0.0,0.0,0.0,3.3123,3.1756,0.0,3.0333,2.9738,0.0,0.0,0.0,0.0,0.0,2.662,2.6175,2.5262,2.3311,2.2384,0.0,0.0,2.2102,2.1479,2.0526,2.0456,2.0456,2.0456,1.9635,1.9141,1.9141,1.8769,1.875,1.9141,1.8389,1.7891,1.7566,1.7652,1.659,1.4528,1.4973,1.4479,1.3106,1.314,1.3307,1.3547,1.3532,1.3801,1.4035,1.4035,1.4035,1.4041,1.4075,1.4249,1.4476,3.6946,3.719,3.7256,3.7479,3.7772,3.7796,3.7234,3.7182,3.6928,3.6093,3.6408,3.6975,3.7685,3.8061,3.8586,3.9352,3.8551,3.7897,3.7636,3.6599,3.5599,3.4716,3.4759,3.4772,3.4677,3.4564,3.4797,3.5414,3.5078,3.507,3.5339,3.5892,3.6149,3.6193,3.7278,3.8121,3.8786,4.0174,4.1046,4.1604,4.2777,4.34,4.3369,4.1242,4.0104,3.9556,3.8932,3.8707,3.8762,0.0,3.9294,0.0,0.0,0.0,0.0,3.7912,0.0,0.0,0.0,0.0,0.0,0.0,0.0,0.0,3.5467,0.0,3.3702,0.0,0.0,0.0,0.0,0.0,0.0,0.0,2.8656,0.0,0.0,0.0,2.4067,0.0,0.0,0.0,0.0,0.0,0.0,0.0,2.0621,2.0275,2.0275,1.9635,1.9287,1.9287,1.9111,1.9102,1.9287,1.8936,1.8711,1.8609,1.8187,1.7451,1.6472,1.5559,1.4743,1.413,1.362,1.3534,1.3661,1.3828,1.3975,1.4088,1.4088,1.4088,1.4108,1.4275,1.4416,1.4569,3.7612,3.7701,3.7739,3.8107,3.8176,3.8067,3.7739,3.7782,3.7809,3.7578,3.8287,3.9039,3.9657,4.0209,4.0633,4.0907,4.0451,3.9935,3.9468,3.8543,3.7487,3.6255,3.6393,3.6154,3.5381,3.5211,3.5401,3.5983,3.567,3.563,3.5853,3.6767,3.7003,3.6716,3.8559,3.9449,3.9677,4.1412,4.2643,4.347,4.4066,4.4028,4.3359,4.117,3.976,3.8943,3.8762,3.8707,3.8726,3.8946,3.9423,0.0,3.886,0.0,3.8987,0.0,0.0,0.0,3.7855,0.0,0.0,0.0,0.0,0.0,0.0,0.0,0.0,0.0,0.0,0.0,0.0,0.0,0.0,0.0,0.0,2.6845,0.0,2.4754,0.0,0.0,0.0,0.0,0.0,0.0,0.0,0.0,0.0,2.0557,2.0359,1.9885,1.9639,1.9639,1.9521,1.9521,1.9639,1.9404,1.9257,1.9173,1.8564,1.8117,1.7711,1.6365,1.5677,1.5474,1.4536,1.4159,1.4179,1.4162,1.4088,1.4088,1.4088,1.4135,1.4229,1.4442,1.4623,1.4816,3.9213,3.9054,3.8515,3.8016,3.7895,3.7486,3.6273,3.6342,3.7007,3.829,3.9277,4.042,4.1933,4.3609,4.4247,4.3368,4.2623,4.1965,4.1347,3.9762,3.7923,3.5818,3.6898,3.6439,3.4032,3.5452,3.5886,3.5143,3.6155,3.6647,3.668,3.7546,3.8427,3.927,3.9301,4.0684,4.3041,4.305,4.3528,4.4259,4.4297,4.3335,4.1805,0.0,3.996,3.8689,3.8707,0.0,0.0,3.9588,3.9863,0.0,0.0,0.0,0.0,0.0,0.0,0.0,0.0,0.0,0.0,3.7994,0.0,0.0,0.0,0.0,3.431,0.0,0.0,0.0,0.0,0.0,0.0,0.0,0.0,0.0,0.0,0.0,2.5134,0.0,0.0,0.0,0.0,0.0,0.0,0.0,0.0,0.0,2.1386,2.0883,2.0527,2.0527,2.0117,2.0098,2.0518,1.9697,1.9164,1.8991,1.9145,1.8561,1.7374,1.7883,1.7839,1.7139,1.6085,1.5606,1.5523,1.4489,1.4088,1.4088,1.4088,1.4262,1.4502,1.4516,1.4883,1.5371,3.9388,3.95,3.9231,3.9069,3.9043,3.9072,3.9231,3.9362,3.9844,4.0881,4.1967,4.2937,4.3763,4.4533,4.4887,4.4632,4.3593,4.2895,4.269,4.1888,4.0962,3.9911,4.0312,3.9663,3.7714,3.8121,3.7958,3.7154,3.7434,3.7565,3.7584,3.8511,3.91,3.9456,4.0584,4.1571,4.246,4.3474,4.4047,4.428,4.4059,4.3371,4.231,0.0,0.0,3.9242,3.8833,3.8707,0.0,3.9019,3.9213,3.924,3.8491,3.8386,3.8485,3.7957,3.7687,0.0,0.0,0.0,3.8331,3.8539,0.0,0.0,0.0,0.0,0.0,0.0,0.0,0.0,0.0,0.0,0.0,0.0,0.0,0.0,0.0,0.0,0.0,2.5096,2.5372,2.5328,0.0,0.0,0.0,0.0,0.0,0.0,0.0,2.0687,2.0566,2.0566,2.042,2.042,2.0566,2.0283,2.012,2.0079,2.011,1.9889,1.9511,1.897,1.8267,1.7261,1.6191,1.5296,1.4566,1.425,1.4202,1.4369,1.4369,1.4669,1.5077,1.4883,1.5064,1.5424,3.9895,4.0024,3.9842,3.9645,3.997,4.0418,4.0865,4.1609,4.2437,4.3258,4.4327,4.513,4.5473,4.6104,4.6147,4.5294,4.4853,4.4285,4.354,4.3273,4.2684,4.1623,4.1919,4.1185,3.9221,3.9636,3.9331,3.8208,3.8973,3.9046,3.8488,3.9695,4.0095,3.9863,4.1622,4.2381,4.2497,4.4094,4.4687,4.4538,4.406,4.351,0.0,0.0,4.0477,3.9645,0.0,3.8946,3.8707,3.8707,3.8793,3.8735,3.7557,3.7805,3.8425,3.7699,3.7499,3.7669,3.8413,3.8075,0.0,3.8069,3.7427,0.0,3.6974,0.0,0.0,0.0,0.0,0.0,0.0,0.0,0.0,0.0,0.0,0.0,0.0,2.59,0.0,2.59,2.59,2.5686,2.5146,0.0,0.0,0.0,0.0,0.0,0.0,0.0,2.0478,2.0791,2.0644,2.0644,2.0801,2.0644,2.0566,2.0566,2.0566,2.0566,2.0566,1.9844,1.9195,1.8381,1.7326,1.6519,1.5794,1.4977,1.4831,1.5016,1.469,1.4877,1.5378,1.519,1.5304,1.5578,4.0707,4.0629,4.0408,3.9878,4.071,4.1393,4.1206,4.2869,4.4453,4.528,4.6253,4.6928,4.708,4.8241,4.7983,4.5518,4.6308,4.607,4.3986,4.3981,4.312,4.101,4.1794,4.1129,3.8635,4.0101,4.0084,3.8449,4.0733,4.1027,3.945,4.1046,4.1335,4.0566,4.2316,4.3104,4.3201,4.4893,4.54,4.5011,4.4271,4.3736,4.3235,4.258,4.1387,4.001,3.9955,3.9441,3.8762,3.8762,3.8695,3.8483,3.7523,3.7718,3.8058,3.7188,3.684,3.6941,3.7702,3.733,3.6695,3.6631,0.0,0.0,0.0,0.0,3.5504,0.0,0.0,0.0,0.0,0.0,0.0,2.9364,2.826,0.0,0.0,0.0,2.6533,2.6533,2.6533,2.6239,2.5649,2.5573,0.0,0.0,0.0,2.1644,0.0,0.0,2.0361,2.1211,2.084,2.082,2.123,2.081,2.0586,2.0566,2.0566,2.0566,2.0566,2.0566,2.0566,2.0479,1.9441,1.8975,1.8745,1.6617,1.592,1.6063,1.4984,1.4917,1.5418,1.5418,1.5591,1.5832,4.0916,4.1338,4.1801,4.2216,4.1558,4.1577,4.3339,4.3597,4.4313,4.6305,4.7346,4.8063,4.8432,4.8752,4.8267,4.6685,4.6261,4.5735,4.4827,4.4882,4.4258,4.2643,4.4091,4.3737,4.1208,4.2712,4.3008,4.1911,4.2487,4.222,4.1181,4.1604,4.1335,4.0566,4.2316,4.3104,4.3201,4.4893,4.5263,4.4682,4.4204,4.3782,4.343,0.0,4.2561,4.1607,4.102,4.0267,3.9588,3.9588,3.8692,3.7631,3.7919,3.7638,3.7353,3.8187,3.7652,3.6941,3.7702,3.6561,3.5297,3.5791,3.5495,3.512,0.0,0.0,0.0,0.0,0.0,0.0,0.0,0.0,0.0,2.9919,2.808,2.6714,0.0,0.0,0.0,2.6533,2.6533,2.6239,2.5649,2.5247,0.0,0.0,0.0,0.0,0.0,0.0,0.0,2.123,2.1435,2.1445,2.123,2.1123,2.0898,2.0566,2.0566,2.0566,2.0566,2.0566,2.0157,1.9362,1.9116,1.8717,1.8152,1.6645,1.6391,1.6818,1.5604,1.5398,1.5718,1.5718,1.5765,1.5832,4.1487,4.2078,4.2824,4.3633,4.3047,4.3047,4.4804,4.5063,4.5655,4.7356,4.8339,4.8874,4.8909,4.9384,4.9175,4.7903,4.7186,4.6555,4.5956,4.5692,4.4879,4.3352,4.4316,4.3833,4.1579,4.2748,4.3182,4.2686,4.295,4.2643,4.1797,4.1797,4.1335,4.0566,4.2316,4.3104,4.3184,4.4594,4.4943,4.4553,4.4004,4.3679,0.0,4.3497,4.3222,4.2763,4.2304,4.1405,4.0414,4.0414,3.9363,3.8112,3.8646,3.8258,3.7786,3.873,3.8396,3.777,3.7872,3.6549,3.5103,3.5214,3.4641,3.4268,3.4987,3.512,3.5145,0.0,0.0,0.0,0.0,0.0,0.0,2.9261,0.0,0.0,0.0,0.0,0.0,2.6533,2.6533,0.0,0.0,0.0,0.0,0.0,0.0,0.0,0.0,0.0,0.0,2.1504,2.1758,2.1768,2.1523,2.1328,2.1016,2.0566,2.0566,2.0566,2.0566,2.0566,2.0351,1.9958,1.9958,1.9859,1.9647,1.8347,1.7913,1.7709,1.616,1.5685,1.5832,1.5832,1.5832,1.5832,4.2458,4.2959,4.368,4.4532,4.4806,4.5171,4.5986,4.6811,4.762,4.8343,4.9199,4.9575,4.9102,5.0042,5.0141,4.8827,4.8335,4.7733,4.6892,4.6249,4.5208,4.3613,4.3671,4.2902,4.1148,4.1803,4.2196,4.2312,4.2838,4.272,4.197,4.197,4.1508,4.0739,4.247,4.3299,4.3421,4.4265,4.4553,4.4474,4.3758,4.3497,4.3497,4.3497,4.3497,4.3497,4.3497,4.2525,4.1244,4.1192,4.0268,3.9211,3.9425,3.9136,3.8711,3.9033,3.9073,3.8853,3.8113,3.6753,3.5395,3.475,3.4062,3.3698,3.436,3.4547,3.4786,3.5385,3.5504,3.5115,0.0,0.0,0.0,2.8252,0.0,0.0,0.0,0.0,2.6559,2.6634,0.0,0.0,0.0,0.0,0.0,0.0,0.0,0.0,0.0,0.0,0.0,2.1938,2.1992,0.0,2.1973,0.0,2.1152,2.0654,2.0654,2.0625,2.0566,2.0566,2.081,2.123,2.123,2.1514,2.188,2.0726,1.973,1.8694,1.6829,1.6015,1.6015,1.5825,1.5832,1.5832,4.4253,4.4355,4.4684,4.5429,4.6138,4.6828,4.7584,4.7927,4.8368,4.912,4.9969,5.0471,5.0374,5.0567,5.0029,4.8356,4.8145,4.7501,4.6093,4.5949,4.5426,4.4357,4.4448,4.3948,4.2714,4.2842,4.323,0.0,0.0,4.3028,4.2874,4.2874,4.2412,4.1662,4.3335,4.4344,4.4739,4.4643,0.0,4.4076,4.3679,4.3497,4.3497,4.3497,4.3497,4.3497,4.3497,4.2892,4.1999,4.1524,4.0504,3.9461,3.9608,3.9318,3.9067,3.9714,3.9462,3.8856,3.805,3.6391,3.4835,3.4585,3.4007,3.3698,3.4355,3.4921,3.5355,3.5489,3.5504,3.5265,3.4457,0.0,0.0,0.0,0.0,0.0,0.0,0.0,0.0,2.708,0.0,2.6533,0.0,0.0,0.0,0.0,0.0,0.0,0.0,0.0,0.0,0.0,2.2559,0.0,0.0,0.0,2.1894,2.1113,2.1113,2.0918,2.0566,2.0566,2.081,2.123,2.123,2.168,2.2318,2.1142,2.0131,1.9224,1.7933,1.7412,1.7225,1.6204,1.5832,1.5832,4.4594,4.4904,4.5427,4.6229,4.7047,4.7844,4.8643,4.9565,4.9986,4.9471,4.976,5.0029,5.0029,5.0433,5.0183,4.8894,4.8355,4.7648,4.6604,4.6134,4.5548,4.4735,4.4777,4.4295,4.3178,4.2734,4.31,4.4297,0.0,0.0,4.3701,4.3297,4.2874,4.2527,4.356,4.4439,4.5074,0.0,0.0,4.3986,4.3612,4.3497,4.3497,4.3497,4.3497,4.3497,4.3497,4.3083,4.245,4.2173,4.1016,3.9713,4.0169,3.9692,3.914,3.9868,3.9834,3.9412,3.8639,3.7134,3.5655,3.5252,3.4309,3.3664,3.4322,3.4726,3.507,3.5429,3.522,3.4666,3.3649,3.2247,0.0,0.0,0.0,0.0,0.0,0.0,2.6979,0.0,2.6804,2.6533,0.0,0.0,0.0,0.0,0.0,0.0,0.0,0.0,0.0,0.0,0.0,0.0,0.0,0.0,0.0,2.1572,2.1572,2.1465,2.125,2.125,2.1484,2.1894,2.1894,2.2256,2.2746,2.1471,2.0766,2.0305,1.9131,1.8226,1.7598,1.7037,1.6386,1.5832,4.4959,4.5491,4.6144,4.7009,4.7836,4.8606,4.9298,5.0683,5.1164,4.9856,4.9837,4.9875,4.9683,5.0279,5.0337,4.9471,4.8623,4.7878,4.7242,4.6402,4.5699,4.5184,4.4985,4.4449,4.3485,4.2671,4.2833,0.0,0.0,0.0,0.0,4.3566,4.3417,4.3537,0.0,0.0,0.0,0.0,4.3955,4.3881,4.3597,4.3497,4.3497,4.3497,4.3497,4.3497,4.3375,4.2976,4.248,4.2342,4.1319,4.0141,4.059,4.0055,3.9343,3.9918,4.007,3.9902,3.8992,3.781,3.6638,3.5862,3.4706,3.3873,3.4547,3.4696,3.4846,3.5385,3.4846,3.3948,3.2916,3.1942,0.0,0.0,0.0,0.0,0.0,0.0,2.7419,0.0,2.6904,2.6502,2.6151,0.0,0.0,0.0,0.0,0.0,0.0,0.0,0.0,0.0,0.0,2.251,2.251,0.0,2.2432,0.0,2.2021,2.1973,2.1885,2.1885,2.2119,2.251,2.251,2.2754,2.3047,2.2031,2.1658,2.1569,2.0034,1.8956,1.8048,1.7498,1.6669,1.5832,4.6453,4.6738,4.7028,4.7855,4.8702,4.9317,4.9394,5.0202,5.076,5.0587,5.1202,5.1395,5.0664,5.0644,5.0337,4.9471,4.8704,4.7966,4.7242,4.6508,4.6046,4.5996,4.5293,4.4741,4.4395,4.3524,4.3123,0.0,0.0,0.0,0.0,0.0,0.0,0.0,0.0,0.0,0.0,4.4028,4.3818,4.3548,4.3513,4.3497,4.3497,4.3497,4.3497,4.3444,4.2939,4.2382,4.181,4.1251,4.0943,4.0723,4.0302,4.007,3.9986,4.0054,4.007,3.9782,3.8293,3.7343,3.6578,3.575,3.4973,3.4562,3.525,3.5415,3.5429,3.5489,3.4472,3.3544,3.3425,3.2363,3.1496,0.0,0.0,0.0,0.0,0.0,2.7846,2.7344,2.7231,2.6615,2.5121,2.5875,0.0,0.0,2.6163,0.0,0.0,0.0,0.0,2.1289,0.0,2.251,2.251,2.2891,0.0,2.2451,2.2451,2.2256,2.1885,2.1885,2.2119,2.251,2.251,2.2754,2.3047,2.296,2.295,2.2677,2.0404,1.9397,1.9039,1.6842,1.592,1.5832,4.7529,4.7625,0.0,0.0,0.0,0.0,0.0,5.1202,5.1414,5.1414,5.1279,5.1048,5.0741,5.0756,5.0474,4.9605,4.933,4.8895,4.8152,4.7323,4.692,4.7006,4.6186,4.5656,4.5453,4.4569,4.43,0.0,0.0,0.0,0.0,0.0,0.0,0.0,0.0,4.4392,4.3986,4.3772,4.3612,4.3497,4.3497,4.3497,4.3497,4.3497,4.3286,4.2976,4.2788,4.208,4.1206,4.0995,4.0703,4.0368,4.0171,4.007,4.007,4.007,4.007,3.985,3.8761,3.7923,3.7223,3.64,3.5316,3.4666,3.5355,3.519,3.4891,3.4891,3.3829,3.2901,3.2901,3.2796,3.2367,0.0,0.0,0.0,0.0,0.0,0.0,2.6854,0.0,2.5887,2.4921,2.5498,0.0,0.0,0.0,0.0,0.0,0.0,0.0,2.2522,0.0,2.2637,2.2891,2.3057,2.3057,2.2891,2.2891,2.2803,2.2637,2.2637,2.2734,2.2891,2.2891,2.2988,2.3135,2.3135,2.3135,2.296,2.2041,2.0773,1.9405,1.8395,1.7117,1.5832,4.8414,0.0,4.9125,0.0,5.0144,5.0529,5.1722,5.1702,5.1548,5.1548,5.1087,5.0757,5.0757,5.0835,5.0666,5.0099,4.9936,4.9529,4.8743,4.792,4.7391,4.7226,4.6621,0.0,4.6045,4.5395,4.5142,4.5346,4.49,0.0,0.0,0.0,0.0,0.0,4.458,4.4223,4.3836,4.3597,4.3497,4.3497,4.3497,4.3497,4.3497,4.3497,4.3178,4.2673,4.248,4.175,4.0856,4.0703,4.0417,4.007,4.007,4.007,4.007,4.007,4.007,3.9901,3.887,3.8206,3.7573,3.6508,3.5516,3.4861,3.513,3.4831,3.4367,3.3978,3.3155,3.2512,3.2512,3.2901,3.272,3.1274,0.0,0.0,0.0,2.8009,0.0,2.6634,2.6239,2.5762,2.4908,2.5448,0.0,0.0,0.0,0.0,0.0,0.0,0.0,0.0,0.0,0.0,0.0,2.3076,2.3135,2.3135,2.3135,2.3135,2.3135,2.3135,2.3135,2.3135,2.3135,2.3135,2.3135,2.3135,2.3135,2.3047,2.2677,2.1489,1.9943,1.967,1.8395,1.6842,4.9163,5.0067,5.0914,5.1741,5.1875,5.1895,5.1914,5.1221,5.0702,5.0702,5.0822,5.0908,5.0908,5.0908,5.094,5.1074,5.0413,4.964,4.8757,4.8,4.7207,0.0,0.0,4.6175,4.5907,4.5879,4.5359,4.4316,0.0,0.0,4.4335,0.0,4.4919,4.458,4.4175,4.3836,4.3532,4.3479,4.3497,4.3497,4.3497,4.3497,4.3497,4.3497,4.3178,4.2616,4.2021,4.1402,4.0827,4.0286,4.0138,4.007,4.007,4.007,4.007,4.007,4.007,3.9782,3.8206,3.7822,3.7413,3.591,3.5489,3.531,3.4637,3.4487,3.4098,3.2811,3.2527,3.2512,3.2512,3.2527,3.2291,3.1708,0.0,0.0,0.0,0.0,0.0,2.6653,2.6929,2.6628,2.4983,2.5799,0.0,0.0,0.0,0.0,0.0,0.0,0.0,2.2741,2.3633,0.0,2.2519,2.293,2.3135,2.3135,2.3135,2.3135,2.3135,2.3135,2.3135,2.3135,2.3135,2.3135,2.3135,2.3135,2.3135,2.296,2.1756,2.1293,2.1114,1.9943,1.9497,1.9314,5.0221,5.051,5.0779,5.1029,5.1087,5.1279,5.1818,5.1221,5.1144,5.2365,5.1575,5.1179,5.1908,5.1456,5.1113,0.0,5.1031,5.0835,0.0,4.9804,4.8943,4.7988,4.7364,4.6689,4.5927,4.585,4.5648,4.5327,0.0,0.0,0.0,4.536,4.514,4.458,4.4474,4.4065,4.3497,4.3497,4.3497,4.3497,4.3497,4.3497,4.3497,4.3497,4.2903,4.208,4.1853,4.1196,4.0336,4.0171,4.007,4.007,4.007,4.007,4.007,4.007,3.9714,3.9102,3.8092,3.7397,3.6753,3.5733,3.4816,3.4203,3.4427,3.3784,3.3021,3.2602,3.2512,3.2647,3.3095,3.3544,3.3368,3.1983,3.1765,0.0,0.0,0.0,2.7331,2.6025,2.6025,2.5787,0.0,2.5812,0.0,0.0,0.0,0.0,0.0,0.0,0.0,0.0,2.4666,0.0,2.2939,2.3076,2.3135,2.3135,2.3135,2.3135,2.3135,2.3135,2.3135,2.3135,2.3135,2.3135,2.3135,2.3135,2.3135,2.3047,2.2677,2.2031,2.1293,2.0845,1.9829,1.8479,5.0702,5.0933,5.1144,5.1144,5.1144,5.1318,5.1837,5.126,5.1172,5.2322,5.1612,5.1269,5.1938,5.1574,0.0,5.1271,5.1344,5.1269,5.0976,5.0135,4.9207,4.824,4.7337,4.6539,4.5871,0.0,0.0,4.5718,4.5635,4.5586,4.5586,4.5476,4.5118,4.458,4.4447,4.4065,4.3497,4.3497,4.3497,4.3497,4.3497,4.3497,4.3497,4.3497,4.281,4.181,4.181,4.1076,4.007,4.007,4.007,4.007,4.007,4.007,4.002,3.9731,3.9315,3.869,3.7616,3.6964,3.6446,3.5668,3.4681,3.3844,3.3754,3.3095,3.2512,3.2512,3.2512,3.2706,3.338,3.3773,3.3449,3.1971,3.1609,3.0646,2.7948,0.0,2.718,0.0,0.0,0.0,0.0,2.6553,2.7306,0.0,0.0,0.0,0.0,0.0,0.0,2.563,2.5463,0.0,2.3135,2.3135,2.3135,2.3135,2.3135,2.3135,2.3135,2.3135,2.3135,2.3135,2.3135,2.3232,2.3369,2.3203,2.333,2.3603,2.3447,2.3012,2.2488,2.2488,2.163,2.0429,5.0702,5.1356,5.1914,0.0,5.1952,0.0,5.1914,5.1399,5.0995,5.1009,5.112,5.1225,5.1308,5.1361,5.1406,5.1386,0.0,0.0,0.0,4.9336,4.8406,4.7582,4.6551,4.5949,4.588,4.5822,4.5718,4.5586,4.5586,4.5586,4.5586,4.5243,4.4919,4.458,4.4175,4.3804,4.3497,4.3497,4.3497,4.3497,4.3497,4.3497,4.3497,4.3444,4.2772,4.1793,4.175,4.103,4.007,4.007,4.007,4.007,4.007,4.007,3.985,3.9139,3.8854,3.8509,3.7008,3.6554,3.6384,3.5668,3.4996,3.4143,3.2871,3.2587,3.2587,3.2587,3.2617,3.2841,3.344,3.3372,3.283,3.1834,3.1352,3.0451,2.8394,0.0,2.7708,0.0,0.0,0.0,0.0,2.7808,2.8335,0.0,0.0,0.0,0.0,0.0,2.7948,2.5766,2.6225,2.54,2.3135,2.3135,2.3154,2.3184,2.3184,2.3193,2.3223,2.3223,2.3223,2.3223,2.3223,2.3457,2.3799,2.3398,2.3701,2.4375,2.3984,2.4072,2.4414,2.4414,2.4341,2.4175,0.0,0.0,5.1914,5.1914,5.2527,5.2821,5.2147,5.1994,5.2008,5.2115,5.1576,5.1492,5.2261,5.1777,5.1365,5.1265,5.1242,5.1164,5.0988,5.0069,4.9391,4.9081,4.7629,4.6751,4.6634,4.5998,4.5635,4.5586,4.5586,4.5586,4.5586,4.5243,4.4919,4.458,4.4175,4.3804,4.3497,4.3497,4.3497,4.3497,4.3497,4.3497,4.3463,4.3069,4.2422,4.175,4.1268,4.0672,4.007,4.007,4.007,4.007,4.007,3.9662,3.9139,3.8962,3.8525,3.7847,3.6843,3.6165,3.5733,3.5554,3.4996,3.4262,3.344,3.326,3.326,3.326,3.3664,3.4068,3.4218,3.4017,3.3457,3.2527,3.137,3.0019,2.8344,2.8109,0.0,0.0,2.757,2.7908,2.7908,2.8034,2.8335,0.0,0.0,0.0,0.0,2.9666,2.8597,2.6374,2.6416,2.54,2.3135,2.3135,2.3301,2.3633,2.3633,2.3799,2.4111,2.4111,2.4111,2.4111,2.4111,2.417,2.4258,2.416,2.4228,2.4404,2.4307,2.4336,2.4414,2.4414,2.3946,2.324,5.1183,5.1606,5.1934,5.1989,5.2437,5.2661,5.224,5.1979,5.1973,5.245,5.1792,5.1496,5.2051,5.1637,5.1271,5.1206,5.1201,5.1191,5.1167,5.0247,4.9678,4.9606,4.7932,4.6973,4.6894,4.6047,4.5586,4.5586,4.5586,4.5513,4.5362,4.503,4.4682,4.429,4.3943,4.3679,4.3497,4.3497,4.3497,4.3497,4.3497,4.3497,4.3444,4.2902,4.2342,4.1707,4.1133,4.0528,4.007,4.007,4.007,4.007,4.007,3.9542,3.8854,3.8525,3.7847,3.71,3.629,3.5782,3.5429,3.5115,3.4996,3.4696,3.3724,3.3724,3.3948,3.3948,3.4233,3.4435,3.4301,3.3797,3.2947,3.1765,3.0547,2.9215,2.7905,2.7946,0.0,2.7344,2.7996,2.8486,2.8486,2.8725,2.9001,2.9302,0.0,0.0,2.9779,2.9792,2.8803,2.6565,2.6483,2.5497,2.3428,2.3623,2.3838,2.4072,2.4072,2.4199,2.4414,2.4414,2.4414,2.4414,2.4414,2.4531,2.4697,2.4502,2.4658,2.5,2.4795,2.4844,2.5019,2.5019,2.4679,2.43,5.1741,5.2011,5.2183,5.2446,5.2521,5.2596,5.2709,5.1973,5.1683,5.2429,5.1869,5.1386,5.1366,5.1268,5.1196,5.1154,5.1148,5.1133,5.1074,5.0145,4.9625,4.9761,4.8039,4.7144,4.7278,4.6297,4.572,4.5586,4.5586,4.5419,4.5096,4.4776,4.4392,4.3986,4.3646,4.3497,4.3497,4.3497,4.3497,4.3497,4.3497,4.3444,4.3321,4.277,4.2203,4.1578,4.0995,4.0497,4.007,4.007,4.007,4.007,3.9952,3.9368,3.858,3.7863,3.704,3.6275,3.5668,3.5504,3.537,3.4771,3.507,3.5205,3.4053,3.4233,3.4637,3.4637,3.4637,3.4515,3.4062,3.3241,3.2157,3.0777,2.9622,2.8574,2.7557,0.0,2.8021,2.7469,2.8386,2.9063,2.9063,2.9428,2.9729,2.9905,2.9842,2.9867,0.0,3.003,2.9022,2.6779,2.6629,2.5722,2.3877,2.4238,2.4453,2.4521,2.458,2.4648,2.4717,2.4775,2.4775,2.4717,2.4717,2.4893,2.5137,2.4775,2.5059,2.5703,2.5322,2.54,2.5742,2.581,2.584,2.5898,5.1741,5.2584,5.3394,5.4161,5.4488,5.4638,5.4651,5.3419,5.2518,5.2655,5.1933,5.1365,5.1242,5.121,5.1128,5.0959,5.0953,5.094,5.0932,4.9994,4.9758,5.049,4.8855,4.8259,4.899,4.749,4.6336,4.5586,4.5586,4.5419,4.5096,4.4776,4.4392,4.3986,4.3646,4.3497,4.3497,4.3497,4.3497,4.3497,4.3497,4.3214,4.277,4.2162,4.1578,4.0949,4.0417,4.0154,4.007,4.007,4.007,3.9952,3.9315,3.858,3.7806,3.7024,3.6228,3.5668,3.5504,3.5504,3.5489,3.537,3.5429,3.5444,3.525,3.5265,3.534,3.534,3.534,3.508,3.4163,3.3241,3.2294,3.1282,2.9866,2.8699,2.8059,0.0,2.8599,2.8047,2.8976,2.9654,2.9654,2.9302,2.9453,3.0419,3.0055,3.0193,3.1097,3.1148,3.0104,2.779,2.7205,2.6119,2.4316,2.4385,2.46,2.4971,2.5352,2.5723,2.6094,2.6455,2.6416,2.6084,2.6084,2.5908,2.5625,2.5557,2.5615,2.5732,2.5664,2.5674,2.5781,2.6152,2.6289,2.6348,5.2526,5.3475,5.4275,5.4819,5.4636,5.4431,5.4496,5.3084,5.2168,5.2637,5.187,5.1268,5.1206,5.1098,5.1011,5.0903,5.0835,5.0791,5.0791,5.0374,5.0279,5.0664,4.9471,4.8779,4.8702,4.7528,4.6701,4.6297,4.5649,4.5161,4.4806,4.4455,4.4076,4.3726,4.3563,4.3497,4.3497,4.3497,4.3497,4.3497,4.3497,4.3178,4.2616,4.2021,4.1446,4.0827,4.0286,4.007,4.007,4.007,4.007,3.9952,3.9139,3.8414,3.7632,3.6859,3.6054,3.5504,3.5504,3.5504,3.5504,3.5504,3.5504,3.5504,3.5504,3.5504,3.5504,3.5504,3.5504,3.5067,3.3533,3.289,3.1996,3.028,2.9799,0.0,0.0,2.9344,2.9615,2.9357,3.0413,3.1112,3.1112,3.1138,3.1306,3.1836,3.1102,3.0871,3.1361,3.1386,3.0744,2.9283,2.7136,2.5625,2.4766,2.5244,2.5576,2.5791,2.6221,2.6533,2.6728,2.6924,2.6787,2.6387,2.6387,2.6143,2.5742,2.5742,2.5879,2.6084,2.6084,2.623,2.6455,2.665,2.6728,2.6787,5.3509,5.4297,5.4922,5.5334,5.4548,5.3943,5.4257,5.2616,5.1676,5.2537,5.1785,5.1148,5.1128,5.0989,5.0894,5.0867,5.0757,5.0702,5.0702,5.0702,5.0702,5.0702,5.0048,4.9298,4.8413,4.7798,4.7338,4.705,4.5929,4.5162,4.4729,4.424,4.3836,4.3497,4.3497,4.3497,4.3497,4.3497,4.3497,4.3497,4.3497,4.3087,4.244,4.1979,4.1358,4.0655,4.0254,4.007,4.007,4.007,4.007,3.9901,3.8978,3.8262,3.7632,3.6631,3.5943,3.5504,3.5504,3.5504,3.5504,3.5504,3.5504,3.5504,3.5504,3.5504,3.5549,3.5699,3.5517,3.4902,3.3294,3.2681,3.1809,2.9945,0.0,0.0,0.0,3.0699,3.1128,3.0994,3.2011,3.2733,3.2733,3.2904,3.3132,3.341,3.2406,3.1888,3.2152,3.2164,3.165,3.0519,2.7429,2.5648,2.5371,2.6143,2.6533,2.6533,2.6963,2.7168,2.7168,2.7266,2.708,2.668,2.668,2.6387,2.5898,2.5996,2.6172,2.6396,2.6494,2.6728,2.7021,2.7129,2.7168,2.7226,5.4427,5.4941,5.5332,5.6157,5.5026,5.4258,5.5078,5.2936,5.1523,5.2401,5.1686,5.1063,5.0926,5.0903,5.0851,5.074,5.0702,5.0702,5.0702,5.0702,5.0702,5.0702,5.0625,5.0202,4.9317,4.924,4.8643,4.7461,4.6622,4.5855,4.5146,4.4351,4.3836,4.3497,4.3497,4.3497,4.3497,4.3497,4.3497,4.3497,4.3497,4.2847,4.1853,4.181,4.1122,4.0171,4.0121,4.007,4.007,4.007,4.007,3.985,3.8374,3.7863,3.7531,3.6022,3.5554,3.5504,3.5504,3.5504,3.5504,3.5504,3.5504,3.5504,3.5504,3.5504,3.5684,3.6297,3.5615,3.4825,3.4316,3.3076,3.1959,3.1767,0.0,0.0,3.1571,3.2635,3.3173,3.2648,3.373,3.445,3.445,3.3517,3.3463,3.4466,3.3585,3.3395,3.4424,3.4474,3.3351,3.0909,2.8946,2.7411,2.6289,2.6738,2.6973,2.6973,2.7412,2.7617,2.7627,2.8018,2.7969,2.7568,2.7568,2.71,2.6367,2.6758,2.6709,2.6426,2.6816,2.6982,2.706,2.7471,2.7617,2.7676,5.4071,5.4697,5.5235,5.5653,5.4314,5.328,5.3522,5.2214,5.1302,5.1581,5.1247,5.0972,5.0923,5.0839,5.0757,5.0702,5.0702,5.0702,5.0702,5.0702,5.0702,5.0702,5.0702,5.0548,5.0202,4.9683,4.9044,4.8314,4.6757,4.5714,4.5158,4.4142,4.3612,4.3497,4.3497,4.3497,4.3497,4.3497,4.3497,4.3479,4.3142,4.2541,4.175,4.1402,4.075,4.007,4.007,4.007,4.007,4.007,3.9782,3.9156,3.8149,3.7456,3.6859,3.5797,3.5504,3.5504,3.5504,3.5504,3.5504,3.5504,3.5504,3.5504,3.5504,3.5818,3.603,3.5615,3.5549,3.5064,3.3693,3.3468,3.3198,3.2167,0.0,3.4084,3.3831,3.4555,3.501,3.4797,3.5951,3.6735,3.6735,3.6397,3.6307,3.6769,3.5072,3.4274,3.47,3.4726,3.357,3.0982,3.0502,2.9172,2.6777,2.7197,2.7412,2.7422,2.7851,2.8057,2.8057,2.8223,2.8066,2.7666,2.7666,2.7324,2.6787,2.6943,2.708,2.7197,2.7353,2.7578,2.7832,2.7998,2.8223,2.8467,5.3776,5.433,5.4789,5.4882,5.3632,5.2607,5.2518,5.1707,5.1092,5.1042,5.0918,5.0835,5.0835,5.0757,5.0702,5.0702,5.0702,5.0702,5.0702,5.0702,5.0702,5.0702,5.0702,5.0702,5.0702,4.9988,4.9414,4.9024,4.724,4.6057,4.5393,4.4352,4.3736,4.3497,4.3497,4.3497,4.3497,4.3497,4.341,4.3214,4.2864,4.2221,4.149,4.1041,4.0577,4.007,4.007,4.007,4.007,4.007,3.9709,3.904,3.81,3.71,3.6211,3.5924,3.5669,3.5504,3.5504,3.5654,3.5759,3.5549,3.5669,3.5804,3.5804,3.6312,3.6535,3.5695,3.5639,3.5241,3.3648,3.3829,3.3946,3.3171,3.471,3.5969,3.5758,3.6514,3.704,3.704,3.8267,3.8906,3.851,3.8215,3.7964,3.782,3.5991,3.5052,3.5228,3.524,3.4267,3.2036,3.1867,3.0586,2.8104,2.7914,2.7861,2.7861,2.8154,2.8291,2.8291,2.8291,2.8135,2.7861,2.7861,2.7617,2.7226,2.7363,2.751,2.7695,2.7959,2.8232,2.8506,2.8643,2.8877,2.9121,5.3788,5.3984,5.3984,5.3984,5.3168,5.2494,5.2494,5.1579,5.0908,5.0908,5.0773,5.0702,5.0702,5.0702,5.0702,5.0702,5.0702,5.0702,5.0702,5.0702,5.0702,5.0702,5.0702,5.0702,5.0702,5.0294,4.9898,4.9522,4.8303,4.7114,4.5883,4.5094,4.4287,4.3516,4.3497,4.3497,4.3497,4.3497,4.3178,4.2711,4.2711,4.1997,4.092,4.092,4.0594,4.0104,4.0104,4.0087,4.0087,4.0104,3.999,3.964,3.8261,3.6738,3.5654,3.6297,3.6028,3.5519,3.5519,3.5998,3.6342,3.5684,3.6013,3.6492,3.6492,3.6971,3.7292,3.6866,3.6029,3.5159,3.4804,3.427,3.418,3.5123,3.5759,3.6385,3.7282,3.8586,3.9439,3.9439,4.0591,4.0959,3.9715,3.8639,3.7721,3.7135,3.6159,3.5793,3.6332,3.637,3.5775,3.4495,3.3066,3.1735,3.0328,2.9006,2.8291,2.8291,2.8291,2.8291,2.8291,2.8291,2.8291,2.8291,2.8291,2.8057,2.7705,2.8125,2.8047,2.7754,2.8594,2.8916,2.8975,2.9414,2.957,2.957,5.3027,5.3086,5.3065,5.295,5.2191,5.1538,5.1392,5.1114,5.0883,5.0756,5.0721,5.0702,5.0702,5.0702,5.0702,5.0702,5.0702,5.0702,5.0702,5.0702,5.0702,5.0702,5.0702,5.0565,5.0291,5.0159,4.9773,4.9075,4.8143,4.7358,4.6728,4.592,4.5406,4.5149,4.4599,4.4342,4.427,4.3342,4.2864,4.267,4.2404,4.2033,4.1726,4.1834,4.1749,4.1627,4.1627,4.1305,4.095,4.1457,4.0536,3.8953,3.7836,3.7192,3.6881,3.7075,3.7,3.6836,3.6836,3.6985,3.6985,3.6357,3.6671,3.7135,3.7135,3.7028,3.6765,3.5911,3.5544,3.5392,3.5315,3.6098,3.6933,3.7643,3.8906,3.9713,3.9501,4.0247,4.0786,4.0786,4.1549,4.164,4.0458,3.9676,3.9073,3.8411,3.7309,3.6759,3.6923,3.6935,3.6504,3.5532,3.5117,3.429,3.2933,2.9819,2.8291,2.8291,2.8291,2.8291,2.8291,2.8291,2.8291,2.8291,2.8291,2.8223,2.8115,2.8242,2.8398,2.8574,2.8818,2.9111,2.9394,2.9521,2.9756,3.001,5.2187,5.2146,5.2077,5.1991,5.1486,5.1045,5.0932,5.0848,5.0791,5.0702,5.0702,5.0702,5.0702,5.0702,5.0702,5.0702,5.0702,5.0702,5.0702,5.0702,5.0778,5.0922,5.0941,5.0661,5.0111,4.98,4.9386,4.8897,4.8261,4.7664,4.7075,4.6617,4.6214,4.5883,4.5388,4.5041,4.4763,4.3948,4.3315,4.2888,4.2643,4.2388,4.2208,4.2258,4.2286,4.2286,4.2286,4.1999,4.1694,4.2151,4.0915,3.9134,3.8417,3.7838,3.7464,3.7719,3.7614,3.7404,3.7404,3.7599,3.7778,3.7674,3.7719,3.7868,3.8138,3.7857,3.7368,3.6549,3.6443,3.6444,3.6035,3.7468,3.8837,3.9118,4.0462,4.125,4.0846,4.1354,4.1863,4.2117,4.2731,4.2621,4.1142,4.0733,4.0038,3.8661,3.7876,3.7513,3.7513,3.7513,3.7245,3.6831,3.6314,3.5577,3.4832,3.1963,3.0247,2.9625,2.9115,2.8799,2.8799,2.8799,2.8799,2.8799,2.8799,2.8701,2.8555,2.873,2.8848,2.8955,2.9287,2.959,2.9834,3.0029,3.0254,3.0469,5.1386,5.1271,5.1191,5.1185,5.1014,5.0908,5.0879,5.0773,5.0702,5.0702,5.0702,5.0702,5.0702,5.0702,5.0702,5.0702,5.076,5.0798,5.0798,5.0798,5.1003,5.1408,5.132,5.0932,5.0222,4.9427,4.8971,4.8847,4.8477,4.7939,4.7223,4.7223,4.6838,4.6104,4.6049,4.5658,4.5088,4.4957,4.4263,4.3192,4.3212,4.286,4.2405,4.2472,4.2506,4.2506,4.2506,4.2455,4.2388,4.221,4.1231,3.9991,3.9555,3.8571,3.7704,3.8302,3.8063,3.7599,3.7659,3.8108,3.8736,3.9424,3.9125,3.8826,3.9454,3.9161,3.8696,3.8309,3.8187,3.7881,3.7048,3.8587,3.9967,4.0126,4.1012,4.1639,4.1639,4.2207,4.2851,4.3434,4.4032,4.3661,4.1911,4.1567,4.0469,3.8199,3.8052,3.809,3.809,3.809,3.8103,3.8153,3.699,3.6345,3.6345,3.4878,3.3358,3.1811,3.0429,2.9672,2.957,2.957,2.957,2.957,2.957,2.9346,2.9014,2.9404,2.9355,2.9111,2.9893,3.0225,3.0312,3.0732,3.0889,3.0889,5.1242,5.1187,5.1084,5.0977,5.0926,5.0863,5.0757,5.0721,5.0702,5.0702,5.0702,5.0702,5.0702,5.0702,5.0702,5.0702,5.1279,5.1645,5.1645,5.1645,5.1826,5.2298,5.1366,5.0896,5.105,5.025,4.9358,4.8421,4.8326,4.8214,4.8049,4.8049,4.7957,4.7755,4.7131,4.6497,4.5882,4.4749,4.3856,4.3195,4.3321,4.3274,4.3234,4.3842,4.4079,4.4079,4.4079,4.369,4.293,4.1661,4.1351,4.1277,3.9844,3.9215,3.9005,3.9155,3.9095,3.9095,3.9619,3.9858,4.0127,4.0786,4.0846,4.0771,4.092,4.0235,3.9542,3.9447,3.91,3.9005,3.9768,4.0592,4.1526,4.2391,4.317,4.3673,4.3673,4.4242,4.4706,4.4855,4.499,4.4159,4.1952,4.038,3.9064,3.804,3.8429,3.868,3.868,3.868,3.8881,3.932,3.9,3.8885,3.8885,3.627,3.3933,3.1811,3.1496,3.075,2.957,2.957,2.957,2.957,2.957,2.9512,2.9434,2.9531,2.9707,2.9941,3.0127,3.042,3.0752,3.0859,3.0889,3.0889,5.1154,5.1074,5.0979,5.0903,5.0851,5.0773,5.0702,5.0702,5.0702,5.0702,5.0702,5.0702,5.0702,5.0702,5.0837,5.1241,5.1664,5.2087,5.2491,5.2324,5.2417,5.2874,5.2021,5.1572,5.1619,5.123,5.0525,4.9499,4.9077,4.8893,4.8912,4.8489,4.8306,4.8288,4.7865,4.7179,4.6239,4.5541,4.4677,4.3852,4.3956,4.3978,4.4012,4.4418,4.4587,4.4587,4.4587,4.4057,4.3157,4.183,4.1611,4.1601,3.9914,3.9843,4.0292,3.9978,4.0113,4.0427,4.0771,4.0876,4.1025,4.1683,4.1848,4.1848,4.1848,4.0999,4.0248,4.0631,4.0442,4.0406,4.1097,4.1893,4.2732,4.3668,4.4092,4.4421,4.4736,4.508,4.5424,4.5753,4.5232,4.4064,4.1882,4.0223,3.9132,3.8831,3.9094,3.927,3.927,3.927,3.9396,3.9685,3.9697,3.9697,3.9697,3.7477,3.5346,3.3443,3.2041,3.097,3.0205,3.0205,3.0205,3.0205,3.0205,3.0078,2.9883,3.0107,3.0195,3.0215,3.0439,3.0674,3.0889,3.0889,3.0889,3.0889,5.1084,5.0972,5.0883,5.0883,5.0773,5.0741,5.0875,5.0914,5.0952,5.1106,5.0991,5.0914,5.0914,5.0914,5.1221,5.2049,5.226,5.2624,5.3253,5.2982,5.2948,5.3282,5.28,5.2418,5.2197,5.2197,5.1738,5.0802,5.0086,4.9664,4.9572,4.8857,4.8434,4.8306,4.8172,4.7512,4.6383,4.6288,4.5597,4.4587,4.4587,4.4587,4.4587,4.4587,4.4587,4.4587,4.4587,4.4064,4.3185,4.2397,4.198,4.1472,4.0164,4.0502,4.1265,4.0726,4.095,4.1414,4.1519,4.1549,4.1713,4.2372,4.2521,4.2521,4.2521,4.1842,4.1343,4.1763,4.202,4.2092,4.2092,4.2806,4.3718,4.4377,4.4586,4.4855,4.5394,4.5559,4.5858,4.6426,4.5171,4.351,4.1736,4.0453,3.9697,3.9697,3.9697,3.9697,3.9697,3.9697,3.9697,3.9697,3.9697,3.9581,3.9349,3.7808,3.6379,3.4847,3.2217,3.0889,3.0889,3.0889,3.0889,3.0889,3.0889,3.0674,3.0342,3.0732,3.0664,3.0351,3.0742,3.0889,3.0889,3.0889,3.0889,3.0889,5.0932,5.0822,5.0721,5.0721,5.0721,5.0933,5.1625,5.1741,5.201,5.276,5.2222,5.1741,5.1741,5.1741,5.2087,5.2953,5.3703,5.4038,5.3735,5.3658,5.365,5.37,5.2939,5.2678,5.3023,5.3041,5.2307,5.0802,5.0674,5.027,4.9591,4.9462,4.9022,4.8267,4.7756,4.7088,4.6383,4.5815,4.5232,4.4587,4.4587,4.4587,4.4587,4.4587,4.4587,4.4587,4.4587,4.4064,4.3267,4.2961,4.2322,4.1626,4.1234,4.1235,4.1369,4.1265,4.1309,4.1504,4.2073,4.2222,4.2387,4.3045,4.321,4.321,4.321,4.3468,4.3641,4.3165,4.3522,4.3909,4.3909,4.4086,4.4392,4.505,4.5663,4.6082,4.6172,4.6681,4.707,4.716,4.5078,4.3122,4.169,4.0453,3.9697,3.9697,3.9697,3.9697,3.9697,3.9697,3.9697,3.9697,3.9697,3.9129,3.7796,3.6379,3.4847,3.3406,3.1652,3.0889,3.0889,3.0889,3.0889,3.0889,3.0889,3.0859,3.0801,3.0869,3.0859,3.0801,3.0869,3.0889,3.0889,3.0889,3.0889,3.0889,5.0789,5.074,5.0837,5.1298,5.0991,5.1144,5.2433,5.2222,5.2222,5.3087,5.2876,5.2645,5.2645,5.2645,5.2991,5.3857,5.405,5.423,5.4497,5.4084,5.3808,5.3795,5.3213,5.2972,5.3206,5.3206,5.2858,5.2142,5.1683,5.1279,5.0912,5.0472,4.9852,4.9083,4.879,4.7872,4.6495,4.6222,4.576,4.5179,4.4756,4.484,4.5162,4.4739,4.4587,4.4621,4.506,4.4295,4.3153,4.3538,4.2958,4.2045,4.155,4.1878,4.2402,4.2043,4.2192,4.2536,4.2821,4.318,4.3434,4.3359,4.3614,4.3778,4.3419,4.4122,4.4571,4.3539,4.3853,4.4317,4.4317,4.4616,4.508,4.5753,4.6127,4.6456,4.6815,4.7115,4.6741,4.5312,4.3598,4.1985,4.0642,4.0083,3.9697,3.9697,3.9697,3.9697,3.9697,3.9697,3.9697,3.9697,3.9697,3.9013,3.7465,3.6054,3.4515,3.3077,3.1546,3.0889,3.0889,3.0889,3.0889,3.0889,3.0889,3.0889,3.0889,3.0889,3.0889,3.0889,3.0889,3.0889,3.0889,3.0889,3.0889,3.0889]}]]